<?xml version="1.0" encoding="UTF-8"?>
<gpx version="1.1" creator="https://www.youtrack.es" xsi:schemaLocation="http://www.topografix.com/GPX/1/1 http://www.topografix.com/GPX/1/1/gpx.xsd http://www.garmin.com/xmlschemas/GpxExtensions/v3 http://www.garmin.com/xmlschemas/GpxExtensionsv3.xsd http://www.garmin.com/xmlschemas/TrackPointExtension/v1 http://www.garmin.com/xmlschemas/TrackPointExtensionv1.xsd" xmlns:gpxtpx="http://www.garmin.com/xmlschemas/TrackPointExtension/v1" xmlns:gpxx="http://www.garmin.com/xmlschemas/GpxExtensions/v3" xmlns:xsi="http://www.w3.org/2001/XMLSchema-instance">
  <metadata>
    <link href="https://www.youtrack.es">
      <text>YouTrack.es</text>
    </link>
    <time>2026-05-07T23:03:53Z</time>
  </metadata>
  <trk>
    <src>https://www.youtrack.es</src>
    <link href="https://www.youtrack.es/ruta/19485-cala-fornells-cap-andritxol-torre-y-camp-de-mar">
      <text>YouTrack.es</text>
    </link>
    <trkseg>
      <trkpt lat="39.531030" lon="2.437733">
        <ele>8.821</ele>
        <time>2012-09-20T06:46:31Z</time>
      </trkpt>
      <trkpt lat="39.531082" lon="2.437639">
        <ele>11.741</ele>
        <time>2012-09-20T06:46:48Z</time>
      </trkpt>
      <trkpt lat="39.531084" lon="2.437586">
        <ele>13.605</ele>
        <time>2012-09-20T06:46:51Z</time>
      </trkpt>
      <trkpt lat="39.531087" lon="2.437546">
        <ele>16.007</ele>
        <time>2012-09-20T06:46:53Z</time>
      </trkpt>
      <trkpt lat="39.531082" lon="2.437538">
        <ele>21.375</ele>
        <time>2012-09-20T06:46:57Z</time>
      </trkpt>
      <trkpt lat="39.531082" lon="2.437536">
        <ele>18.946</ele>
        <time>2012-09-20T06:46:58Z</time>
      </trkpt>
      <trkpt lat="39.531083" lon="2.437533">
        <ele>15.516</ele>
        <time>2012-09-20T06:46:59Z</time>
      </trkpt>
      <trkpt lat="39.531085" lon="2.437534">
        <ele>22.749</ele>
        <time>2012-09-20T06:47:00Z</time>
      </trkpt>
      <trkpt lat="39.531087" lon="2.437534">
        <ele>21.397</ele>
        <time>2012-09-20T06:47:01Z</time>
      </trkpt>
      <trkpt lat="39.531091" lon="2.437531">
        <ele>22.741</ele>
        <time>2012-09-20T06:47:06Z</time>
      </trkpt>
      <trkpt lat="39.531100" lon="2.437524">
        <ele>25.113</ele>
        <time>2012-09-20T06:47:10Z</time>
      </trkpt>
      <trkpt lat="39.531134" lon="2.437499">
        <ele>29.035</ele>
        <time>2012-09-20T06:47:20Z</time>
      </trkpt>
      <trkpt lat="39.531073" lon="2.437605">
        <ele>34.786</ele>
        <time>2012-09-20T06:47:38Z</time>
      </trkpt>
      <trkpt lat="39.531067" lon="2.437608">
        <ele>31.414</ele>
        <time>2012-09-20T06:47:39Z</time>
      </trkpt>
      <trkpt lat="39.531094" lon="2.437635">
        <ele>30.407</ele>
        <time>2012-09-20T06:48:02Z</time>
      </trkpt>
      <trkpt lat="39.531106" lon="2.437645">
        <ele>29.916</ele>
        <time>2012-09-20T06:48:09Z</time>
      </trkpt>
      <trkpt lat="39.531252" lon="2.437781">
        <ele>29.097</ele>
        <time>2012-09-20T06:48:27Z</time>
      </trkpt>
      <trkpt lat="39.531247" lon="2.437858">
        <ele>26.177</ele>
        <time>2012-09-20T06:48:42Z</time>
      </trkpt>
      <trkpt lat="39.531175" lon="2.437910">
        <ele>24.620</ele>
        <time>2012-09-20T06:48:56Z</time>
      </trkpt>
      <trkpt lat="39.531104" lon="2.437960">
        <ele>24.258</ele>
        <time>2012-09-20T06:49:05Z</time>
      </trkpt>
      <trkpt lat="39.531028" lon="2.438009">
        <ele>24.232</ele>
        <time>2012-09-20T06:49:11Z</time>
      </trkpt>
      <trkpt lat="39.531000" lon="2.438020">
        <ele>24.224</ele>
        <time>2012-09-20T06:49:13Z</time>
      </trkpt>
      <trkpt lat="39.530860" lon="2.438073">
        <ele>24.668</ele>
        <time>2012-09-20T06:49:28Z</time>
      </trkpt>
      <trkpt lat="39.530715" lon="2.438301">
        <ele>23.742</ele>
        <time>2012-09-20T06:49:46Z</time>
      </trkpt>
      <trkpt lat="39.530687" lon="2.438422">
        <ele>24.226</ele>
        <time>2012-09-20T06:50:00Z</time>
      </trkpt>
      <trkpt lat="39.530668" lon="2.438446">
        <ele>24.207</ele>
        <time>2012-09-20T06:50:03Z</time>
      </trkpt>
      <trkpt lat="39.530628" lon="2.438460">
        <ele>24.259</ele>
        <time>2012-09-20T06:50:16Z</time>
      </trkpt>
      <trkpt lat="39.530599" lon="2.438411">
        <ele>25.650</ele>
        <time>2012-09-20T06:50:28Z</time>
      </trkpt>
      <trkpt lat="39.530586" lon="2.438365">
        <ele>28.510</ele>
        <time>2012-09-20T06:50:43Z</time>
      </trkpt>
      <trkpt lat="39.530553" lon="2.438383">
        <ele>27.533</ele>
        <time>2012-09-20T06:50:54Z</time>
      </trkpt>
      <trkpt lat="39.530486" lon="2.438367">
        <ele>30.951</ele>
        <time>2012-09-20T06:51:08Z</time>
      </trkpt>
      <trkpt lat="39.530400" lon="2.438347">
        <ele>32.895</ele>
        <time>2012-09-20T06:51:20Z</time>
      </trkpt>
      <trkpt lat="39.530312" lon="2.438379">
        <ele>32.867</ele>
        <time>2012-09-20T06:51:29Z</time>
      </trkpt>
      <trkpt lat="39.530253" lon="2.438433">
        <ele>32.887</ele>
        <time>2012-09-20T06:51:34Z</time>
      </trkpt>
      <trkpt lat="39.530183" lon="2.438497">
        <ele>32.842</ele>
        <time>2012-09-20T06:51:40Z</time>
      </trkpt>
      <trkpt lat="39.530113" lon="2.438570">
        <ele>32.826</ele>
        <time>2012-09-20T06:51:58Z</time>
      </trkpt>
      <trkpt lat="39.530113" lon="2.438565">
        <ele>32.807</ele>
        <time>2012-09-20T06:52:09Z</time>
      </trkpt>
      <trkpt lat="39.530078" lon="2.438586">
        <ele>33.331</ele>
        <time>2012-09-20T06:52:13Z</time>
      </trkpt>
      <trkpt lat="39.529981" lon="2.438576">
        <ele>34.722</ele>
        <time>2012-09-20T06:52:27Z</time>
      </trkpt>
      <trkpt lat="39.529955" lon="2.438581">
        <ele>35.252</ele>
        <time>2012-09-20T06:52:30Z</time>
      </trkpt>
      <trkpt lat="39.529923" lon="2.438585">
        <ele>34.765</ele>
        <time>2012-09-20T06:52:32Z</time>
      </trkpt>
      <trkpt lat="39.529815" lon="2.438582">
        <ele>35.263</ele>
        <time>2012-09-20T06:52:43Z</time>
      </trkpt>
      <trkpt lat="39.529685" lon="2.438556">
        <ele>35.727</ele>
        <time>2012-09-20T06:52:58Z</time>
      </trkpt>
      <trkpt lat="39.529533" lon="2.438527">
        <ele>33.889</ele>
        <time>2012-09-20T06:53:14Z</time>
      </trkpt>
      <trkpt lat="39.529444" lon="2.438494">
        <ele>31.936</ele>
        <time>2012-09-20T06:53:33Z</time>
      </trkpt>
      <trkpt lat="39.529330" lon="2.438425">
        <ele>33.317</ele>
        <time>2012-09-20T06:53:51Z</time>
      </trkpt>
      <trkpt lat="39.529198" lon="2.438389">
        <ele>36.718</ele>
        <time>2012-09-20T06:54:05Z</time>
      </trkpt>
      <trkpt lat="39.529014" lon="2.438396">
        <ele>39.107</ele>
        <time>2012-09-20T06:54:22Z</time>
      </trkpt>
      <trkpt lat="39.528915" lon="2.438500">
        <ele>38.666</ele>
        <time>2012-09-20T06:54:36Z</time>
      </trkpt>
      <trkpt lat="39.528927" lon="2.438529">
        <ele>39.557</ele>
        <time>2012-09-20T06:54:49Z</time>
      </trkpt>
      <trkpt lat="39.528926" lon="2.438524">
        <ele>39.127</ele>
        <time>2012-09-20T06:55:13Z</time>
      </trkpt>
      <trkpt lat="39.528925" lon="2.438518">
        <ele>39.160</ele>
        <time>2012-09-20T06:55:27Z</time>
      </trkpt>
      <trkpt lat="39.528925" lon="2.438460">
        <ele>38.648</ele>
        <time>2012-09-20T06:55:43Z</time>
      </trkpt>
      <trkpt lat="39.528913" lon="2.438334">
        <ele>39.132</ele>
        <time>2012-09-20T06:56:01Z</time>
      </trkpt>
      <trkpt lat="39.528869" lon="2.438225">
        <ele>42.444</ele>
        <time>2012-09-20T06:56:15Z</time>
      </trkpt>
      <trkpt lat="39.528828" lon="2.438176">
        <ele>45.358</ele>
        <time>2012-09-20T06:56:33Z</time>
      </trkpt>
      <trkpt lat="39.528815" lon="2.438130">
        <ele>45.352</ele>
        <time>2012-09-20T06:56:45Z</time>
      </trkpt>
      <trkpt lat="39.528788" lon="2.437992">
        <ele>46.317</ele>
        <time>2012-09-20T06:56:59Z</time>
      </trkpt>
      <trkpt lat="39.528758" lon="2.437980">
        <ele>46.807</ele>
        <time>2012-09-20T06:57:03Z</time>
      </trkpt>
      <trkpt lat="39.528680" lon="2.437947">
        <ele>49.218</ele>
        <time>2012-09-20T06:57:18Z</time>
      </trkpt>
      <trkpt lat="39.528654" lon="2.437728">
        <ele>50.659</ele>
        <time>2012-09-20T06:57:33Z</time>
      </trkpt>
      <trkpt lat="39.528637" lon="2.437609">
        <ele>52.059</ele>
        <time>2012-09-20T06:57:42Z</time>
      </trkpt>
      <trkpt lat="39.528614" lon="2.437584">
        <ele>52.512</ele>
        <time>2012-09-20T06:57:45Z</time>
      </trkpt>
      <trkpt lat="39.528579" lon="2.437522">
        <ele>53.050</ele>
        <time>2012-09-20T06:57:51Z</time>
      </trkpt>
      <trkpt lat="39.528560" lon="2.437381">
        <ele>54.594</ele>
        <time>2012-09-20T06:58:06Z</time>
      </trkpt>
      <trkpt lat="39.528581" lon="2.437282">
        <ele>54.926</ele>
        <time>2012-09-20T06:58:15Z</time>
      </trkpt>
      <trkpt lat="39.528586" lon="2.437194">
        <ele>55.932</ele>
        <time>2012-09-20T06:58:22Z</time>
      </trkpt>
      <trkpt lat="39.528565" lon="2.437029">
        <ele>56.992</ele>
        <time>2012-09-20T06:58:36Z</time>
      </trkpt>
      <trkpt lat="39.528574" lon="2.436970">
        <ele>56.911</ele>
        <time>2012-09-20T06:58:41Z</time>
      </trkpt>
      <trkpt lat="39.528554" lon="2.436946">
        <ele>57.307</ele>
        <time>2012-09-20T06:58:43Z</time>
      </trkpt>
      <trkpt lat="39.528511" lon="2.436819">
        <ele>57.896</ele>
        <time>2012-09-20T06:58:55Z</time>
      </trkpt>
      <trkpt lat="39.528483" lon="2.436721">
        <ele>58.347</ele>
        <time>2012-09-20T06:59:04Z</time>
      </trkpt>
      <trkpt lat="39.528446" lon="2.436603">
        <ele>58.897</ele>
        <time>2012-09-20T06:59:13Z</time>
      </trkpt>
      <trkpt lat="39.528359" lon="2.436460">
        <ele>58.840</ele>
        <time>2012-09-20T06:59:28Z</time>
      </trkpt>
      <trkpt lat="39.528335" lon="2.436310">
        <ele>58.388</ele>
        <time>2012-09-20T06:59:42Z</time>
      </trkpt>
      <trkpt lat="39.528348" lon="2.436215">
        <ele>58.822</ele>
        <time>2012-09-20T06:59:53Z</time>
      </trkpt>
      <trkpt lat="39.528405" lon="2.436070">
        <ele>58.344</ele>
        <time>2012-09-20T07:00:07Z</time>
      </trkpt>
      <trkpt lat="39.528409" lon="2.436061">
        <ele>57.864</ele>
        <time>2012-09-20T07:00:08Z</time>
      </trkpt>
      <trkpt lat="39.528450" lon="2.435961">
        <ele>57.306</ele>
        <time>2012-09-20T07:00:20Z</time>
      </trkpt>
      <trkpt lat="39.528484" lon="2.435895">
        <ele>57.316</ele>
        <time>2012-09-20T07:00:31Z</time>
      </trkpt>
      <trkpt lat="39.528473" lon="2.435860">
        <ele>56.407</ele>
        <time>2012-09-20T07:00:34Z</time>
      </trkpt>
      <trkpt lat="39.528432" lon="2.435739">
        <ele>55.949</ele>
        <time>2012-09-20T07:00:47Z</time>
      </trkpt>
      <trkpt lat="39.528382" lon="2.435644">
        <ele>55.990</ele>
        <time>2012-09-20T07:01:01Z</time>
      </trkpt>
      <trkpt lat="39.528286" lon="2.435647">
        <ele>55.960</ele>
        <time>2012-09-20T07:01:12Z</time>
      </trkpt>
      <trkpt lat="39.528208" lon="2.435645">
        <ele>55.933</ele>
        <time>2012-09-20T07:01:20Z</time>
      </trkpt>
      <trkpt lat="39.528118" lon="2.435592">
        <ele>55.461</ele>
        <time>2012-09-20T07:01:32Z</time>
      </trkpt>
      <trkpt lat="39.528088" lon="2.435561">
        <ele>55.435</ele>
        <time>2012-09-20T07:01:37Z</time>
      </trkpt>
      <trkpt lat="39.528057" lon="2.435528">
        <ele>55.457</ele>
        <time>2012-09-20T07:01:42Z</time>
      </trkpt>
      <trkpt lat="39.528004" lon="2.435433">
        <ele>55.474</ele>
        <time>2012-09-20T07:01:55Z</time>
      </trkpt>
      <trkpt lat="39.527919" lon="2.435364">
        <ele>55.456</ele>
        <time>2012-09-20T07:02:06Z</time>
      </trkpt>
      <trkpt lat="39.527885" lon="2.435220">
        <ele>54.521</ele>
        <time>2012-09-20T07:02:19Z</time>
      </trkpt>
      <trkpt lat="39.527901" lon="2.435174">
        <ele>54.507</ele>
        <time>2012-09-20T07:02:23Z</time>
      </trkpt>
      <trkpt lat="39.527909" lon="2.435125">
        <ele>54.530</ele>
        <time>2012-09-20T07:02:27Z</time>
      </trkpt>
      <trkpt lat="39.527907" lon="2.435100">
        <ele>54.521</ele>
        <time>2012-09-20T07:02:29Z</time>
      </trkpt>
      <trkpt lat="39.527890" lon="2.435030">
        <ele>53.531</ele>
        <time>2012-09-20T07:02:35Z</time>
      </trkpt>
      <trkpt lat="39.527879" lon="2.434880">
        <ele>54.044</ele>
        <time>2012-09-20T07:02:49Z</time>
      </trkpt>
      <trkpt lat="39.527895" lon="2.434753">
        <ele>54.062</ele>
        <time>2012-09-20T07:03:02Z</time>
      </trkpt>
      <trkpt lat="39.527804" lon="2.434763">
        <ele>53.076</ele>
        <time>2012-09-20T07:03:14Z</time>
      </trkpt>
      <trkpt lat="39.527723" lon="2.434692">
        <ele>51.668</ele>
        <time>2012-09-20T07:03:27Z</time>
      </trkpt>
      <trkpt lat="39.527630" lon="2.434607">
        <ele>50.673</ele>
        <time>2012-09-20T07:03:42Z</time>
      </trkpt>
      <trkpt lat="39.527612" lon="2.434588">
        <ele>49.785</ele>
        <time>2012-09-20T07:03:52Z</time>
      </trkpt>
      <trkpt lat="39.527587" lon="2.434584">
        <ele>48.713</ele>
        <time>2012-09-20T07:04:06Z</time>
      </trkpt>
      <trkpt lat="39.527588" lon="2.434569">
        <ele>48.207</ele>
        <time>2012-09-20T07:04:22Z</time>
      </trkpt>
      <trkpt lat="39.527589" lon="2.434563">
        <ele>48.720</ele>
        <time>2012-09-20T07:04:46Z</time>
      </trkpt>
      <trkpt lat="39.527590" lon="2.434560">
        <ele>48.291</ele>
        <time>2012-09-20T07:05:13Z</time>
      </trkpt>
      <trkpt lat="39.527591" lon="2.434560">
        <ele>42.451</ele>
        <time>2012-09-20T07:05:18Z</time>
      </trkpt>
      <trkpt lat="39.527590" lon="2.434560">
        <ele>55.944</ele>
        <time>2012-09-20T07:05:19Z</time>
      </trkpt>
      <trkpt lat="39.527590" lon="2.434560">
        <ele>46.862</ele>
        <time>2012-09-20T07:05:20Z</time>
      </trkpt>
      <trkpt lat="39.527590" lon="2.434562">
        <ele>54.066</ele>
        <time>2012-09-20T07:05:21Z</time>
      </trkpt>
      <trkpt lat="39.527590" lon="2.434564">
        <ele>45.828</ele>
        <time>2012-09-20T07:05:22Z</time>
      </trkpt>
      <trkpt lat="39.527591" lon="2.434565">
        <ele>51.162</ele>
        <time>2012-09-20T07:05:23Z</time>
      </trkpt>
      <trkpt lat="39.527591" lon="2.434566">
        <ele>47.783</ele>
        <time>2012-09-20T07:05:24Z</time>
      </trkpt>
      <trkpt lat="39.527590" lon="2.434572">
        <ele>47.711</ele>
        <time>2012-09-20T07:05:45Z</time>
      </trkpt>
      <trkpt lat="39.527597" lon="2.434569">
        <ele>47.707</ele>
        <time>2012-09-20T07:06:08Z</time>
      </trkpt>
      <trkpt lat="39.527609" lon="2.434570">
        <ele>48.239</ele>
        <time>2012-09-20T07:06:10Z</time>
      </trkpt>
      <trkpt lat="39.527732" lon="2.434524">
        <ele>50.650</ele>
        <time>2012-09-20T07:06:26Z</time>
      </trkpt>
      <trkpt lat="39.527841" lon="2.434476">
        <ele>52.580</ele>
        <time>2012-09-20T07:06:43Z</time>
      </trkpt>
      <trkpt lat="39.527837" lon="2.434459">
        <ele>52.583</ele>
        <time>2012-09-20T07:06:44Z</time>
      </trkpt>
      <trkpt lat="39.527845" lon="2.434268">
        <ele>53.061</ele>
        <time>2012-09-20T07:07:00Z</time>
      </trkpt>
      <trkpt lat="39.527769" lon="2.434189">
        <ele>53.055</ele>
        <time>2012-09-20T07:07:15Z</time>
      </trkpt>
      <trkpt lat="39.527814" lon="2.434100">
        <ele>53.057</ele>
        <time>2012-09-20T07:07:26Z</time>
      </trkpt>
      <trkpt lat="39.527778" lon="2.433888">
        <ele>53.572</ele>
        <time>2012-09-20T07:07:41Z</time>
      </trkpt>
      <trkpt lat="39.527787" lon="2.433819">
        <ele>53.513</ele>
        <time>2012-09-20T07:07:47Z</time>
      </trkpt>
      <trkpt lat="39.527751" lon="2.433721">
        <ele>54.014</ele>
        <time>2012-09-20T07:07:58Z</time>
      </trkpt>
      <trkpt lat="39.527743" lon="2.433686">
        <ele>53.507</ele>
        <time>2012-09-20T07:08:01Z</time>
      </trkpt>
      <trkpt lat="39.527741" lon="2.433637">
        <ele>53.520</ele>
        <time>2012-09-20T07:08:04Z</time>
      </trkpt>
      <trkpt lat="39.527782" lon="2.433409">
        <ele>53.581</ele>
        <time>2012-09-20T07:08:21Z</time>
      </trkpt>
      <trkpt lat="39.527734" lon="2.433322">
        <ele>53.081</ele>
        <time>2012-09-20T07:08:35Z</time>
      </trkpt>
      <trkpt lat="39.527688" lon="2.433286">
        <ele>51.614</ele>
        <time>2012-09-20T07:08:48Z</time>
      </trkpt>
      <trkpt lat="39.527589" lon="2.433234">
        <ele>49.762</ele>
        <time>2012-09-20T07:09:02Z</time>
      </trkpt>
      <trkpt lat="39.527595" lon="2.433226">
        <ele>49.786</ele>
        <time>2012-09-20T07:09:19Z</time>
      </trkpt>
      <trkpt lat="39.527603" lon="2.433217">
        <ele>49.798</ele>
        <time>2012-09-20T07:09:45Z</time>
      </trkpt>
      <trkpt lat="39.527600" lon="2.433213">
        <ele>49.263</ele>
        <time>2012-09-20T07:10:11Z</time>
      </trkpt>
      <trkpt lat="39.527653" lon="2.433237">
        <ele>50.644</ele>
        <time>2012-09-20T07:10:25Z</time>
      </trkpt>
      <trkpt lat="39.527693" lon="2.433209">
        <ele>51.618</ele>
        <time>2012-09-20T07:10:30Z</time>
      </trkpt>
      <trkpt lat="39.527688" lon="2.433050">
        <ele>50.107</ele>
        <time>2012-09-20T07:10:44Z</time>
      </trkpt>
      <trkpt lat="39.527725" lon="2.433013">
        <ele>50.189</ele>
        <time>2012-09-20T07:10:58Z</time>
      </trkpt>
      <trkpt lat="39.527835" lon="2.433040">
        <ele>51.680</ele>
        <time>2012-09-20T07:11:13Z</time>
      </trkpt>
      <trkpt lat="39.527904" lon="2.432964">
        <ele>50.160</ele>
        <time>2012-09-20T07:11:28Z</time>
      </trkpt>
      <trkpt lat="39.527940" lon="2.432876">
        <ele>48.753</ele>
        <time>2012-09-20T07:11:41Z</time>
      </trkpt>
      <trkpt lat="39.527888" lon="2.432756">
        <ele>48.261</ele>
        <time>2012-09-20T07:11:55Z</time>
      </trkpt>
      <trkpt lat="39.527870" lon="2.432679">
        <ele>47.785</ele>
        <time>2012-09-20T07:12:11Z</time>
      </trkpt>
      <trkpt lat="39.527880" lon="2.432668">
        <ele>47.797</ele>
        <time>2012-09-20T07:12:30Z</time>
      </trkpt>
      <trkpt lat="39.527885" lon="2.432651">
        <ele>47.267</ele>
        <time>2012-09-20T07:12:52Z</time>
      </trkpt>
      <trkpt lat="39.527900" lon="2.432627">
        <ele>46.881</ele>
        <time>2012-09-20T07:13:22Z</time>
      </trkpt>
      <trkpt lat="39.527904" lon="2.432623">
        <ele>47.219</ele>
        <time>2012-09-20T07:13:55Z</time>
      </trkpt>
      <trkpt lat="39.527907" lon="2.432609">
        <ele>46.807</ele>
        <time>2012-09-20T07:14:22Z</time>
      </trkpt>
      <trkpt lat="39.527912" lon="2.432611">
        <ele>46.839</ele>
        <time>2012-09-20T07:14:53Z</time>
      </trkpt>
      <trkpt lat="39.527909" lon="2.432607">
        <ele>46.310</ele>
        <time>2012-09-20T07:15:10Z</time>
      </trkpt>
      <trkpt lat="39.527906" lon="2.432602">
        <ele>46.330</ele>
        <time>2012-09-20T07:15:34Z</time>
      </trkpt>
      <trkpt lat="39.527902" lon="2.432601">
        <ele>46.853</ele>
        <time>2012-09-20T07:15:55Z</time>
      </trkpt>
      <trkpt lat="39.527967" lon="2.432604">
        <ele>44.491</ele>
        <time>2012-09-20T07:16:07Z</time>
      </trkpt>
      <trkpt lat="39.528008" lon="2.432559">
        <ele>42.985</ele>
        <time>2012-09-20T07:16:19Z</time>
      </trkpt>
      <trkpt lat="39.528063" lon="2.432536">
        <ele>41.027</ele>
        <time>2012-09-20T07:16:32Z</time>
      </trkpt>
      <trkpt lat="39.528071" lon="2.432529">
        <ele>41.043</ele>
        <time>2012-09-20T07:16:33Z</time>
      </trkpt>
      <trkpt lat="39.528118" lon="2.432466">
        <ele>41.564</ele>
        <time>2012-09-20T07:16:43Z</time>
      </trkpt>
      <trkpt lat="39.528109" lon="2.432378">
        <ele>40.010</ele>
        <time>2012-09-20T07:16:49Z</time>
      </trkpt>
      <trkpt lat="39.528081" lon="2.432241">
        <ele>39.107</ele>
        <time>2012-09-20T07:17:02Z</time>
      </trkpt>
      <trkpt lat="39.528054" lon="2.432213">
        <ele>38.147</ele>
        <time>2012-09-20T07:17:18Z</time>
      </trkpt>
      <trkpt lat="39.528050" lon="2.432212">
        <ele>37.258</ele>
        <time>2012-09-20T07:17:36Z</time>
      </trkpt>
      <trkpt lat="39.528062" lon="2.432217">
        <ele>37.288</ele>
        <time>2012-09-20T07:18:08Z</time>
      </trkpt>
      <trkpt lat="39.528063" lon="2.432209">
        <ele>37.681</ele>
        <time>2012-09-20T07:18:37Z</time>
      </trkpt>
      <trkpt lat="39.528075" lon="2.432220">
        <ele>37.689</ele>
        <time>2012-09-20T07:18:58Z</time>
      </trkpt>
      <trkpt lat="39.528089" lon="2.432259">
        <ele>38.123</ele>
        <time>2012-09-20T07:19:03Z</time>
      </trkpt>
      <trkpt lat="39.528113" lon="2.432345">
        <ele>39.125</ele>
        <time>2012-09-20T07:19:13Z</time>
      </trkpt>
      <trkpt lat="39.528192" lon="2.432438">
        <ele>39.182</ele>
        <time>2012-09-20T07:19:24Z</time>
      </trkpt>
      <trkpt lat="39.528327" lon="2.432468">
        <ele>37.643</ele>
        <time>2012-09-20T07:19:39Z</time>
      </trkpt>
      <trkpt lat="39.528412" lon="2.432402">
        <ele>36.217</ele>
        <time>2012-09-20T07:19:54Z</time>
      </trkpt>
      <trkpt lat="39.528406" lon="2.432280">
        <ele>33.807</ele>
        <time>2012-09-20T07:20:09Z</time>
      </trkpt>
      <trkpt lat="39.528430" lon="2.432213">
        <ele>32.851</ele>
        <time>2012-09-20T07:20:18Z</time>
      </trkpt>
      <trkpt lat="39.528463" lon="2.432179">
        <ele>30.912</ele>
        <time>2012-09-20T07:20:31Z</time>
      </trkpt>
      <trkpt lat="39.528461" lon="2.432152">
        <ele>29.092</ele>
        <time>2012-09-20T07:20:44Z</time>
      </trkpt>
      <trkpt lat="39.528483" lon="2.432098">
        <ele>27.555</ele>
        <time>2012-09-20T07:20:58Z</time>
      </trkpt>
      <trkpt lat="39.528491" lon="2.432055">
        <ele>25.693</ele>
        <time>2012-09-20T07:21:14Z</time>
      </trkpt>
      <trkpt lat="39.528500" lon="2.432014">
        <ele>23.767</ele>
        <time>2012-09-20T07:21:28Z</time>
      </trkpt>
      <trkpt lat="39.528485" lon="2.431944">
        <ele>22.289</ele>
        <time>2012-09-20T07:21:43Z</time>
      </trkpt>
      <trkpt lat="39.528458" lon="2.431861">
        <ele>20.871</ele>
        <time>2012-09-20T07:21:54Z</time>
      </trkpt>
      <trkpt lat="39.528455" lon="2.431855">
        <ele>20.341</ele>
        <time>2012-09-20T07:21:55Z</time>
      </trkpt>
      <trkpt lat="39.528435" lon="2.431832">
        <ele>19.415</ele>
        <time>2012-09-20T07:22:09Z</time>
      </trkpt>
      <trkpt lat="39.528459" lon="2.431819">
        <ele>17.007</ele>
        <time>2012-09-20T07:22:23Z</time>
      </trkpt>
      <trkpt lat="39.528514" lon="2.431806">
        <ele>16.060</ele>
        <time>2012-09-20T07:22:37Z</time>
      </trkpt>
      <trkpt lat="39.528563" lon="2.431854">
        <ele>16.011</ele>
        <time>2012-09-20T07:22:51Z</time>
      </trkpt>
      <trkpt lat="39.528622" lon="2.431895">
        <ele>15.011</ele>
        <time>2012-09-20T07:23:04Z</time>
      </trkpt>
      <trkpt lat="39.528699" lon="2.431941">
        <ele>14.174</ele>
        <time>2012-09-20T07:23:15Z</time>
      </trkpt>
      <trkpt lat="39.528730" lon="2.431941">
        <ele>12.672</ele>
        <time>2012-09-20T07:23:26Z</time>
      </trkpt>
      <trkpt lat="39.528785" lon="2.431975">
        <ele>12.156</ele>
        <time>2012-09-20T07:23:38Z</time>
      </trkpt>
      <trkpt lat="39.528838" lon="2.432070">
        <ele>12.148</ele>
        <time>2012-09-20T07:23:50Z</time>
      </trkpt>
      <trkpt lat="39.528948" lon="2.432179">
        <ele>12.688</ele>
        <time>2012-09-20T07:24:05Z</time>
      </trkpt>
      <trkpt lat="39.529022" lon="2.432216">
        <ele>12.624</ele>
        <time>2012-09-20T07:24:19Z</time>
      </trkpt>
      <trkpt lat="39.529073" lon="2.432178">
        <ele>12.626</ele>
        <time>2012-09-20T07:24:31Z</time>
      </trkpt>
      <trkpt lat="39.529087" lon="2.432089">
        <ele>14.607</ele>
        <time>2012-09-20T07:24:44Z</time>
      </trkpt>
      <trkpt lat="39.529110" lon="2.431987">
        <ele>16.561</ele>
        <time>2012-09-20T07:24:56Z</time>
      </trkpt>
      <trkpt lat="39.529181" lon="2.431905">
        <ele>18.472</ele>
        <time>2012-09-20T07:25:09Z</time>
      </trkpt>
      <trkpt lat="39.529163" lon="2.431775">
        <ele>18.922</ele>
        <time>2012-09-20T07:25:20Z</time>
      </trkpt>
      <trkpt lat="39.529097" lon="2.431679">
        <ele>16.595</ele>
        <time>2012-09-20T07:25:33Z</time>
      </trkpt>
      <trkpt lat="39.529033" lon="2.431666">
        <ele>16.083</ele>
        <time>2012-09-20T07:25:46Z</time>
      </trkpt>
      <trkpt lat="39.529011" lon="2.431635">
        <ele>16.017</ele>
        <time>2012-09-20T07:26:07Z</time>
      </trkpt>
      <trkpt lat="39.529008" lon="2.431627">
        <ele>16.069</ele>
        <time>2012-09-20T07:26:32Z</time>
      </trkpt>
      <trkpt lat="39.529053" lon="2.431574">
        <ele>14.671</ele>
        <time>2012-09-20T07:26:46Z</time>
      </trkpt>
      <trkpt lat="39.529163" lon="2.431530">
        <ele>12.641</ele>
        <time>2012-09-20T07:26:59Z</time>
      </trkpt>
      <trkpt lat="39.529225" lon="2.431475">
        <ele>10.715</ele>
        <time>2012-09-20T07:27:12Z</time>
      </trkpt>
      <trkpt lat="39.529237" lon="2.431432">
        <ele>8.807</ele>
        <time>2012-09-20T07:27:22Z</time>
      </trkpt>
      <trkpt lat="39.529197" lon="2.431386">
        <ele>8.310</ele>
        <time>2012-09-20T07:27:34Z</time>
      </trkpt>
      <trkpt lat="39.529192" lon="2.431384">
        <ele>7.341</ele>
        <time>2012-09-20T07:27:56Z</time>
      </trkpt>
      <trkpt lat="39.529179" lon="2.431388">
        <ele>7.841</ele>
        <time>2012-09-20T07:28:01Z</time>
      </trkpt>
      <trkpt lat="39.529113" lon="2.431375">
        <ele>6.474</ele>
        <time>2012-09-20T07:28:08Z</time>
      </trkpt>
      <trkpt lat="39.529094" lon="2.431366">
        <ele>5.992</ele>
        <time>2012-09-20T07:28:23Z</time>
      </trkpt>
      <trkpt lat="39.529099" lon="2.431371">
        <ele>5.926</ele>
        <time>2012-09-20T07:28:42Z</time>
      </trkpt>
      <trkpt lat="39.529124" lon="2.431413">
        <ele>5.918</ele>
        <time>2012-09-20T07:28:56Z</time>
      </trkpt>
      <trkpt lat="39.529209" lon="2.431404">
        <ele>6.463</ele>
        <time>2012-09-20T07:29:11Z</time>
      </trkpt>
      <trkpt lat="39.529218" lon="2.431362">
        <ele>5.944</ele>
        <time>2012-09-20T07:29:16Z</time>
      </trkpt>
      <trkpt lat="39.529245" lon="2.431257">
        <ele>7.318</ele>
        <time>2012-09-20T07:29:28Z</time>
      </trkpt>
      <trkpt lat="39.529260" lon="2.431238">
        <ele>8.307</ele>
        <time>2012-09-20T07:29:39Z</time>
      </trkpt>
      <trkpt lat="39.529258" lon="2.431223">
        <ele>8.869</ele>
        <time>2012-09-20T07:29:54Z</time>
      </trkpt>
      <trkpt lat="39.529264" lon="2.431226">
        <ele>9.350</ele>
        <time>2012-09-20T07:30:13Z</time>
      </trkpt>
      <trkpt lat="39.529243" lon="2.431227">
        <ele>8.330</ele>
        <time>2012-09-20T07:30:29Z</time>
      </trkpt>
      <trkpt lat="39.529229" lon="2.431251">
        <ele>6.993</ele>
        <time>2012-09-20T07:30:45Z</time>
      </trkpt>
      <trkpt lat="39.529210" lon="2.431276">
        <ele>5.921</ele>
        <time>2012-09-20T07:30:50Z</time>
      </trkpt>
      <trkpt lat="39.529218" lon="2.431328">
        <ele>5.435</ele>
        <time>2012-09-20T07:30:54Z</time>
      </trkpt>
      <trkpt lat="39.529325" lon="2.431365">
        <ele>7.837</ele>
        <time>2012-09-20T07:31:06Z</time>
      </trkpt>
      <trkpt lat="39.529365" lon="2.431335">
        <ele>8.868</ele>
        <time>2012-09-20T07:31:18Z</time>
      </trkpt>
      <trkpt lat="39.529388" lon="2.431298">
        <ele>9.342</ele>
        <time>2012-09-20T07:31:22Z</time>
      </trkpt>
      <trkpt lat="39.529425" lon="2.431261">
        <ele>10.226</ele>
        <time>2012-09-20T07:31:37Z</time>
      </trkpt>
      <trkpt lat="39.529468" lon="2.431289">
        <ele>10.207</ele>
        <time>2012-09-20T07:31:53Z</time>
      </trkpt>
      <trkpt lat="39.529484" lon="2.431221">
        <ele>13.159</ele>
        <time>2012-09-20T07:32:05Z</time>
      </trkpt>
      <trkpt lat="39.529444" lon="2.431133">
        <ele>14.120</ele>
        <time>2012-09-20T07:32:15Z</time>
      </trkpt>
      <trkpt lat="39.529371" lon="2.431170">
        <ele>13.160</ele>
        <time>2012-09-20T07:32:29Z</time>
      </trkpt>
      <trkpt lat="39.529301" lon="2.431136">
        <ele>12.633</ele>
        <time>2012-09-20T07:32:43Z</time>
      </trkpt>
      <trkpt lat="39.529291" lon="2.431136">
        <ele>13.111</ele>
        <time>2012-09-20T07:33:03Z</time>
      </trkpt>
      <trkpt lat="39.529287" lon="2.431148">
        <ele>13.155</ele>
        <time>2012-09-20T07:33:24Z</time>
      </trkpt>
      <trkpt lat="39.529287" lon="2.431155">
        <ele>12.177</ele>
        <time>2012-09-20T07:33:35Z</time>
      </trkpt>
      <trkpt lat="39.529297" lon="2.431157">
        <ele>12.635</ele>
        <time>2012-09-20T07:34:08Z</time>
      </trkpt>
      <trkpt lat="39.529300" lon="2.431164">
        <ele>12.686</ele>
        <time>2012-09-20T07:34:24Z</time>
      </trkpt>
      <trkpt lat="39.529318" lon="2.431144">
        <ele>13.114</ele>
        <time>2012-09-20T07:34:50Z</time>
      </trkpt>
      <trkpt lat="39.529327" lon="2.431102">
        <ele>12.607</ele>
        <time>2012-09-20T07:34:54Z</time>
      </trkpt>
      <trkpt lat="39.529343" lon="2.430989">
        <ele>13.636</ele>
        <time>2012-09-20T07:35:02Z</time>
      </trkpt>
      <trkpt lat="39.529267" lon="2.430840">
        <ele>15.037</ele>
        <time>2012-09-20T07:35:15Z</time>
      </trkpt>
      <trkpt lat="39.529297" lon="2.430763">
        <ele>17.037</ele>
        <time>2012-09-20T07:35:28Z</time>
      </trkpt>
      <trkpt lat="39.529348" lon="2.430677">
        <ele>17.940</ele>
        <time>2012-09-20T07:35:38Z</time>
      </trkpt>
      <trkpt lat="39.529400" lon="2.430621">
        <ele>17.958</ele>
        <time>2012-09-20T07:35:45Z</time>
      </trkpt>
      <trkpt lat="39.529411" lon="2.430607">
        <ele>17.972</ele>
        <time>2012-09-20T07:35:47Z</time>
      </trkpt>
      <trkpt lat="39.529433" lon="2.430587">
        <ele>17.944</ele>
        <time>2012-09-20T07:35:50Z</time>
      </trkpt>
      <trkpt lat="39.529467" lon="2.430548">
        <ele>17.957</ele>
        <time>2012-09-20T07:35:56Z</time>
      </trkpt>
      <trkpt lat="39.529527" lon="2.430502">
        <ele>18.400</ele>
        <time>2012-09-20T07:36:05Z</time>
      </trkpt>
      <trkpt lat="39.529515" lon="2.430363">
        <ele>20.320</ele>
        <time>2012-09-20T07:36:16Z</time>
      </trkpt>
      <trkpt lat="39.529487" lon="2.430330">
        <ele>19.807</ele>
        <time>2012-09-20T07:36:19Z</time>
      </trkpt>
      <trkpt lat="39.529455" lon="2.430294">
        <ele>19.828</ele>
        <time>2012-09-20T07:36:23Z</time>
      </trkpt>
      <trkpt lat="39.529424" lon="2.430190">
        <ele>19.899</ele>
        <time>2012-09-20T07:36:35Z</time>
      </trkpt>
      <trkpt lat="39.529370" lon="2.430120">
        <ele>20.369</ele>
        <time>2012-09-20T07:36:42Z</time>
      </trkpt>
      <trkpt lat="39.529326" lon="2.430118">
        <ele>19.872</ele>
        <time>2012-09-20T07:36:47Z</time>
      </trkpt>
      <trkpt lat="39.529209" lon="2.430214">
        <ele>18.440</ele>
        <time>2012-09-20T07:37:00Z</time>
      </trkpt>
      <trkpt lat="39.529159" lon="2.430234">
        <ele>18.474</ele>
        <time>2012-09-20T07:37:06Z</time>
      </trkpt>
      <trkpt lat="39.529103" lon="2.430267">
        <ele>17.436</ele>
        <time>2012-09-20T07:37:19Z</time>
      </trkpt>
      <trkpt lat="39.529089" lon="2.430263">
        <ele>17.413</ele>
        <time>2012-09-20T07:37:22Z</time>
      </trkpt>
      <trkpt lat="39.529011" lon="2.430208">
        <ele>16.043</ele>
        <time>2012-09-20T07:37:34Z</time>
      </trkpt>
      <trkpt lat="39.528958" lon="2.430174">
        <ele>14.107</ele>
        <time>2012-09-20T07:37:45Z</time>
      </trkpt>
      <trkpt lat="39.528910" lon="2.430174">
        <ele>12.607</ele>
        <time>2012-09-20T07:37:57Z</time>
      </trkpt>
      <trkpt lat="39.528885" lon="2.430195">
        <ele>12.144</ele>
        <time>2012-09-20T07:38:21Z</time>
      </trkpt>
      <trkpt lat="39.528867" lon="2.430127">
        <ele>10.785</ele>
        <time>2012-09-20T07:38:34Z</time>
      </trkpt>
      <trkpt lat="39.528838" lon="2.430084">
        <ele>8.895</ele>
        <time>2012-09-20T07:38:50Z</time>
      </trkpt>
      <trkpt lat="39.528815" lon="2.430072">
        <ele>7.868</ele>
        <time>2012-09-20T07:39:09Z</time>
      </trkpt>
      <trkpt lat="39.528698" lon="2.430045">
        <ele>6.476</ele>
        <time>2012-09-20T07:39:22Z</time>
      </trkpt>
      <trkpt lat="39.528672" lon="2.430060">
        <ele>5.960</ele>
        <time>2012-09-20T07:39:24Z</time>
      </trkpt>
      <trkpt lat="39.528611" lon="2.430077">
        <ele>7.872</ele>
        <time>2012-09-20T07:39:39Z</time>
      </trkpt>
      <trkpt lat="39.528597" lon="2.430013">
        <ele>10.244</ele>
        <time>2012-09-20T07:39:53Z</time>
      </trkpt>
      <trkpt lat="39.528604" lon="2.430016">
        <ele>11.705</ele>
        <time>2012-09-20T07:40:08Z</time>
      </trkpt>
      <trkpt lat="39.528592" lon="2.430007">
        <ele>12.115</ele>
        <time>2012-09-20T07:40:25Z</time>
      </trkpt>
      <trkpt lat="39.528561" lon="2.429935">
        <ele>14.107</ele>
        <time>2012-09-20T07:40:36Z</time>
      </trkpt>
      <trkpt lat="39.528563" lon="2.429856">
        <ele>16.087</ele>
        <time>2012-09-20T07:40:49Z</time>
      </trkpt>
      <trkpt lat="39.528469" lon="2.429800">
        <ele>17.448</ele>
        <time>2012-09-20T07:41:03Z</time>
      </trkpt>
      <trkpt lat="39.528388" lon="2.429832">
        <ele>20.858</ele>
        <time>2012-09-20T07:41:20Z</time>
      </trkpt>
      <trkpt lat="39.528325" lon="2.429801">
        <ele>23.771</ele>
        <time>2012-09-20T07:41:36Z</time>
      </trkpt>
      <trkpt lat="39.528292" lon="2.429727">
        <ele>25.139</ele>
        <time>2012-09-20T07:41:50Z</time>
      </trkpt>
      <trkpt lat="39.528284" lon="2.429651">
        <ele>27.083</ele>
        <time>2012-09-20T07:42:05Z</time>
      </trkpt>
      <trkpt lat="39.528222" lon="2.429623">
        <ele>30.415</ele>
        <time>2012-09-20T07:42:20Z</time>
      </trkpt>
      <trkpt lat="39.528130" lon="2.429609">
        <ele>31.925</ele>
        <time>2012-09-20T07:42:34Z</time>
      </trkpt>
      <trkpt lat="39.528116" lon="2.429575">
        <ele>33.826</ele>
        <time>2012-09-20T07:42:48Z</time>
      </trkpt>
      <trkpt lat="39.528107" lon="2.429507">
        <ele>35.208</ele>
        <time>2012-09-20T07:43:00Z</time>
      </trkpt>
      <trkpt lat="39.528152" lon="2.429409">
        <ele>33.307</ele>
        <time>2012-09-20T07:43:13Z</time>
      </trkpt>
      <trkpt lat="39.528193" lon="2.429289">
        <ele>32.825</ele>
        <time>2012-09-20T07:43:27Z</time>
      </trkpt>
      <trkpt lat="39.528171" lon="2.429261">
        <ele>33.396</ele>
        <time>2012-09-20T07:43:42Z</time>
      </trkpt>
      <trkpt lat="39.528205" lon="2.429207">
        <ele>31.996</ele>
        <time>2012-09-20T07:43:55Z</time>
      </trkpt>
      <trkpt lat="39.528205" lon="2.429126">
        <ele>32.819</ele>
        <time>2012-09-20T07:44:09Z</time>
      </trkpt>
      <trkpt lat="39.528190" lon="2.429017">
        <ele>33.857</ele>
        <time>2012-09-20T07:44:24Z</time>
      </trkpt>
      <trkpt lat="39.528216" lon="2.428914">
        <ele>33.881</ele>
        <time>2012-09-20T07:44:35Z</time>
      </trkpt>
      <trkpt lat="39.528195" lon="2.428799">
        <ele>34.723</ele>
        <time>2012-09-20T07:44:48Z</time>
      </trkpt>
      <trkpt lat="39.528204" lon="2.428729">
        <ele>34.358</ele>
        <time>2012-09-20T07:44:59Z</time>
      </trkpt>
      <trkpt lat="39.528216" lon="2.428675">
        <ele>33.852</ele>
        <time>2012-09-20T07:45:11Z</time>
      </trkpt>
      <trkpt lat="39.528205" lon="2.428649">
        <ele>35.217</ele>
        <time>2012-09-20T07:45:17Z</time>
      </trkpt>
      <trkpt lat="39.528125" lon="2.428559">
        <ele>37.607</ele>
        <time>2012-09-20T07:45:30Z</time>
      </trkpt>
      <trkpt lat="39.528103" lon="2.428472">
        <ele>39.168</ele>
        <time>2012-09-20T07:45:43Z</time>
      </trkpt>
      <trkpt lat="39.528055" lon="2.428414">
        <ele>41.049</ele>
        <time>2012-09-20T07:45:57Z</time>
      </trkpt>
      <trkpt lat="39.527996" lon="2.428404">
        <ele>42.489</ele>
        <time>2012-09-20T07:46:12Z</time>
      </trkpt>
      <trkpt lat="39.528002" lon="2.428393">
        <ele>42.442</ele>
        <time>2012-09-20T07:46:20Z</time>
      </trkpt>
      <trkpt lat="39.528046" lon="2.428280">
        <ele>42.060</ele>
        <time>2012-09-20T07:46:32Z</time>
      </trkpt>
      <trkpt lat="39.528014" lon="2.428126">
        <ele>42.464</ele>
        <time>2012-09-20T07:46:46Z</time>
      </trkpt>
      <trkpt lat="39.528007" lon="2.428117">
        <ele>42.446</ele>
        <time>2012-09-20T07:47:04Z</time>
      </trkpt>
      <trkpt lat="39.527994" lon="2.428114">
        <ele>42.472</ele>
        <time>2012-09-20T07:47:34Z</time>
      </trkpt>
      <trkpt lat="39.527992" lon="2.428111">
        <ele>42.413</ele>
        <time>2012-09-20T07:48:01Z</time>
      </trkpt>
      <trkpt lat="39.528047" lon="2.428083">
        <ele>42.914</ele>
        <time>2012-09-20T07:48:11Z</time>
      </trkpt>
      <trkpt lat="39.528090" lon="2.427989">
        <ele>42.907</ele>
        <time>2012-09-20T07:48:21Z</time>
      </trkpt>
      <trkpt lat="39.528108" lon="2.427929">
        <ele>43.420</ele>
        <time>2012-09-20T07:48:26Z</time>
      </trkpt>
      <trkpt lat="39.528162" lon="2.427863">
        <ele>44.491</ele>
        <time>2012-09-20T07:48:39Z</time>
      </trkpt>
      <trkpt lat="39.528171" lon="2.427865">
        <ele>43.461</ele>
        <time>2012-09-20T07:48:41Z</time>
      </trkpt>
      <trkpt lat="39.528268" lon="2.427796">
        <ele>42.964</ele>
        <time>2012-09-20T07:48:55Z</time>
      </trkpt>
      <trkpt lat="39.528339" lon="2.427739">
        <ele>43.922</ele>
        <time>2012-09-20T07:49:09Z</time>
      </trkpt>
      <trkpt lat="39.528429" lon="2.427691">
        <ele>45.386</ele>
        <time>2012-09-20T07:49:22Z</time>
      </trkpt>
      <trkpt lat="39.528527" lon="2.427642">
        <ele>47.228</ele>
        <time>2012-09-20T07:49:37Z</time>
      </trkpt>
      <trkpt lat="39.528521" lon="2.427592">
        <ele>48.766</ele>
        <time>2012-09-20T07:49:50Z</time>
      </trkpt>
      <trkpt lat="39.528453" lon="2.427502">
        <ele>50.129</ele>
        <time>2012-09-20T07:50:04Z</time>
      </trkpt>
      <trkpt lat="39.528381" lon="2.427463">
        <ele>51.121</ele>
        <time>2012-09-20T07:50:19Z</time>
      </trkpt>
      <trkpt lat="39.528386" lon="2.427471">
        <ele>51.107</ele>
        <time>2012-09-20T07:50:20Z</time>
      </trkpt>
      <trkpt lat="39.528464" lon="2.427571">
        <ele>49.779</ele>
        <time>2012-09-20T07:50:35Z</time>
      </trkpt>
      <trkpt lat="39.528483" lon="2.427580">
        <ele>49.280</ele>
        <time>2012-09-20T07:50:47Z</time>
      </trkpt>
      <trkpt lat="39.528489" lon="2.427577">
        <ele>45.370</ele>
        <time>2012-09-20T07:50:50Z</time>
      </trkpt>
      <trkpt lat="39.528491" lon="2.427576">
        <ele>51.653</ele>
        <time>2012-09-20T07:50:51Z</time>
      </trkpt>
      <trkpt lat="39.528491" lon="2.427576">
        <ele>48.281</ele>
        <time>2012-09-20T07:50:52Z</time>
      </trkpt>
      <trkpt lat="39.528493" lon="2.427575">
        <ele>51.695</ele>
        <time>2012-09-20T07:50:54Z</time>
      </trkpt>
      <trkpt lat="39.528494" lon="2.427575">
        <ele>48.277</ele>
        <time>2012-09-20T07:50:56Z</time>
      </trkpt>
      <trkpt lat="39.528465" lon="2.427548">
        <ele>50.171</ele>
        <time>2012-09-20T07:51:07Z</time>
      </trkpt>
      <trkpt lat="39.528453" lon="2.427531">
        <ele>51.141</ele>
        <time>2012-09-20T07:51:09Z</time>
      </trkpt>
      <trkpt lat="39.528336" lon="2.427424">
        <ele>52.015</ele>
        <time>2012-09-20T07:51:25Z</time>
      </trkpt>
      <trkpt lat="39.528259" lon="2.427322">
        <ele>53.507</ele>
        <time>2012-09-20T07:51:38Z</time>
      </trkpt>
      <trkpt lat="39.528243" lon="2.427243">
        <ele>54.930</ele>
        <time>2012-09-20T07:51:51Z</time>
      </trkpt>
      <trkpt lat="39.528300" lon="2.427245">
        <ele>56.451</ele>
        <time>2012-09-20T07:52:03Z</time>
      </trkpt>
      <trkpt lat="39.528369" lon="2.427229">
        <ele>59.751</ele>
        <time>2012-09-20T07:52:17Z</time>
      </trkpt>
      <trkpt lat="39.528399" lon="2.427142">
        <ele>62.144</ele>
        <time>2012-09-20T07:52:30Z</time>
      </trkpt>
      <trkpt lat="39.528387" lon="2.426995">
        <ele>64.172</ele>
        <time>2012-09-20T07:52:43Z</time>
      </trkpt>
      <trkpt lat="39.528339" lon="2.426879">
        <ele>65.016</ele>
        <time>2012-09-20T07:52:55Z</time>
      </trkpt>
      <trkpt lat="39.528292" lon="2.426771">
        <ele>66.528</ele>
        <time>2012-09-20T07:53:08Z</time>
      </trkpt>
      <trkpt lat="39.528249" lon="2.426671">
        <ele>66.542</ele>
        <time>2012-09-20T07:53:19Z</time>
      </trkpt>
      <trkpt lat="39.528176" lon="2.426532">
        <ele>67.422</ele>
        <time>2012-09-20T07:53:32Z</time>
      </trkpt>
      <trkpt lat="39.528113" lon="2.426465">
        <ele>69.314</ele>
        <time>2012-09-20T07:53:44Z</time>
      </trkpt>
      <trkpt lat="39.528017" lon="2.426384">
        <ele>71.807</ele>
        <time>2012-09-20T07:53:58Z</time>
      </trkpt>
      <trkpt lat="39.527940" lon="2.426363">
        <ele>74.267</ele>
        <time>2012-09-20T07:54:12Z</time>
      </trkpt>
      <trkpt lat="39.527930" lon="2.426310">
        <ele>76.178</ele>
        <time>2012-09-20T07:54:24Z</time>
      </trkpt>
      <trkpt lat="39.527962" lon="2.426252">
        <ele>77.578</ele>
        <time>2012-09-20T07:54:38Z</time>
      </trkpt>
      <trkpt lat="39.527984" lon="2.426245">
        <ele>79.431</ele>
        <time>2012-09-20T07:54:45Z</time>
      </trkpt>
      <trkpt lat="39.528011" lon="2.426213">
        <ele>81.479</ele>
        <time>2012-09-20T07:54:59Z</time>
      </trkpt>
      <trkpt lat="39.528044" lon="2.426228">
        <ele>83.313</ele>
        <time>2012-09-20T07:55:10Z</time>
      </trkpt>
      <trkpt lat="39.528035" lon="2.426165">
        <ele>84.295</ele>
        <time>2012-09-20T07:55:23Z</time>
      </trkpt>
      <trkpt lat="39.528055" lon="2.426061">
        <ele>86.747</ele>
        <time>2012-09-20T07:55:37Z</time>
      </trkpt>
      <trkpt lat="39.528056" lon="2.426000">
        <ele>88.629</ele>
        <time>2012-09-20T07:55:51Z</time>
      </trkpt>
      <trkpt lat="39.528065" lon="2.425952">
        <ele>90.521</ele>
        <time>2012-09-20T07:56:03Z</time>
      </trkpt>
      <trkpt lat="39.528086" lon="2.425946">
        <ele>92.407</ele>
        <time>2012-09-20T07:56:15Z</time>
      </trkpt>
      <trkpt lat="39.528107" lon="2.425948">
        <ele>94.887</ele>
        <time>2012-09-20T07:56:27Z</time>
      </trkpt>
      <trkpt lat="39.528126" lon="2.425948">
        <ele>96.328</ele>
        <time>2012-09-20T07:56:42Z</time>
      </trkpt>
      <trkpt lat="39.528114" lon="2.425880">
        <ele>98.238</ele>
        <time>2012-09-20T07:56:59Z</time>
      </trkpt>
      <trkpt lat="39.528120" lon="2.425878">
        <ele>100.621</ele>
        <time>2012-09-20T07:57:10Z</time>
      </trkpt>
      <trkpt lat="39.528149" lon="2.425867">
        <ele>101.649</ele>
        <time>2012-09-20T07:57:23Z</time>
      </trkpt>
      <trkpt lat="39.528181" lon="2.425828">
        <ele>104.093</ele>
        <time>2012-09-20T07:57:36Z</time>
      </trkpt>
      <trkpt lat="39.528204" lon="2.425822">
        <ele>105.415</ele>
        <time>2012-09-20T07:57:48Z</time>
      </trkpt>
      <trkpt lat="39.528216" lon="2.425795">
        <ele>106.867</ele>
        <time>2012-09-20T07:58:02Z</time>
      </trkpt>
      <trkpt lat="39.528238" lon="2.425772">
        <ele>108.381</ele>
        <time>2012-09-20T07:58:15Z</time>
      </trkpt>
      <trkpt lat="39.528259" lon="2.425762">
        <ele>109.719</ele>
        <time>2012-09-20T07:58:31Z</time>
      </trkpt>
      <trkpt lat="39.528295" lon="2.425789">
        <ele>111.707</ele>
        <time>2012-09-20T07:58:43Z</time>
      </trkpt>
      <trkpt lat="39.528313" lon="2.425789">
        <ele>112.639</ele>
        <time>2012-09-20T07:58:58Z</time>
      </trkpt>
      <trkpt lat="39.528359" lon="2.425797">
        <ele>112.120</ele>
        <time>2012-09-20T07:59:12Z</time>
      </trkpt>
      <trkpt lat="39.528423" lon="2.425820">
        <ele>113.150</ele>
        <time>2012-09-20T07:59:24Z</time>
      </trkpt>
      <trkpt lat="39.528453" lon="2.425822">
        <ele>114.533</ele>
        <time>2012-09-20T07:59:37Z</time>
      </trkpt>
      <trkpt lat="39.528508" lon="2.425795">
        <ele>116.521</ele>
        <time>2012-09-20T07:59:52Z</time>
      </trkpt>
      <trkpt lat="39.528553" lon="2.425777">
        <ele>117.415</ele>
        <time>2012-09-20T08:00:04Z</time>
      </trkpt>
      <trkpt lat="39.528619" lon="2.425795">
        <ele>119.317</ele>
        <time>2012-09-20T08:00:16Z</time>
      </trkpt>
      <trkpt lat="39.528667" lon="2.425798">
        <ele>122.252</ele>
        <time>2012-09-20T08:00:28Z</time>
      </trkpt>
      <trkpt lat="39.528713" lon="2.425796">
        <ele>124.653</ele>
        <time>2012-09-20T08:00:41Z</time>
      </trkpt>
      <trkpt lat="39.528720" lon="2.425796">
        <ele>124.608</ele>
        <time>2012-09-20T08:00:42Z</time>
      </trkpt>
      <trkpt lat="39.528753" lon="2.425740">
        <ele>126.107</ele>
        <time>2012-09-20T08:00:54Z</time>
      </trkpt>
      <trkpt lat="39.528795" lon="2.425718">
        <ele>128.518</ele>
        <time>2012-09-20T08:01:06Z</time>
      </trkpt>
      <trkpt lat="39.528843" lon="2.425687">
        <ele>129.999</ele>
        <time>2012-09-20T08:01:20Z</time>
      </trkpt>
      <trkpt lat="39.528865" lon="2.425691">
        <ele>131.439</ele>
        <time>2012-09-20T08:01:33Z</time>
      </trkpt>
      <trkpt lat="39.528904" lon="2.425665">
        <ele>133.832</ele>
        <time>2012-09-20T08:01:47Z</time>
      </trkpt>
      <trkpt lat="39.528916" lon="2.425621">
        <ele>135.240</ele>
        <time>2012-09-20T08:02:01Z</time>
      </trkpt>
      <trkpt lat="39.528905" lon="2.425594">
        <ele>135.284</ele>
        <time>2012-09-20T08:02:16Z</time>
      </trkpt>
      <trkpt lat="39.528905" lon="2.425593">
        <ele>136.236</ele>
        <time>2012-09-20T08:02:21Z</time>
      </trkpt>
      <trkpt lat="39.528909" lon="2.425589">
        <ele>136.294</ele>
        <time>2012-09-20T08:02:49Z</time>
      </trkpt>
      <trkpt lat="39.528916" lon="2.425554">
        <ele>137.157</ele>
        <time>2012-09-20T08:03:04Z</time>
      </trkpt>
      <trkpt lat="39.528920" lon="2.425483">
        <ele>139.522</ele>
        <time>2012-09-20T08:03:15Z</time>
      </trkpt>
      <trkpt lat="39.528891" lon="2.425395">
        <ele>142.407</ele>
        <time>2012-09-20T08:03:29Z</time>
      </trkpt>
      <trkpt lat="39.528872" lon="2.425350">
        <ele>142.982</ele>
        <time>2012-09-20T08:03:42Z</time>
      </trkpt>
      <trkpt lat="39.528856" lon="2.425340">
        <ele>142.983</ele>
        <time>2012-09-20T08:04:05Z</time>
      </trkpt>
      <trkpt lat="39.528854" lon="2.425337">
        <ele>144.323</ele>
        <time>2012-09-20T08:04:23Z</time>
      </trkpt>
      <trkpt lat="39.528854" lon="2.425331">
        <ele>143.996</ele>
        <time>2012-09-20T08:04:28Z</time>
      </trkpt>
      <trkpt lat="39.528842" lon="2.425308">
        <ele>144.844</ele>
        <time>2012-09-20T08:04:30Z</time>
      </trkpt>
      <trkpt lat="39.528836" lon="2.425315">
        <ele>144.868</ele>
        <time>2012-09-20T08:04:42Z</time>
      </trkpt>
      <trkpt lat="39.528818" lon="2.425279">
        <ele>144.320</ele>
        <time>2012-09-20T08:04:55Z</time>
      </trkpt>
      <trkpt lat="39.528814" lon="2.425270">
        <ele>143.998</ele>
        <time>2012-09-20T08:05:29Z</time>
      </trkpt>
      <trkpt lat="39.528815" lon="2.425270">
        <ele>143.915</ele>
        <time>2012-09-20T08:05:33Z</time>
      </trkpt>
      <trkpt lat="39.528827" lon="2.425278">
        <ele>144.826</ele>
        <time>2012-09-20T08:05:47Z</time>
      </trkpt>
      <trkpt lat="39.528824" lon="2.425275">
        <ele>144.807</ele>
        <time>2012-09-20T08:06:01Z</time>
      </trkpt>
      <trkpt lat="39.528819" lon="2.425283">
        <ele>144.822</ele>
        <time>2012-09-20T08:06:23Z</time>
      </trkpt>
      <trkpt lat="39.528809" lon="2.425274">
        <ele>144.873</ele>
        <time>2012-09-20T08:06:39Z</time>
      </trkpt>
      <trkpt lat="39.528789" lon="2.425257">
        <ele>145.873</ele>
        <time>2012-09-20T08:06:43Z</time>
      </trkpt>
      <trkpt lat="39.528761" lon="2.425232">
        <ele>146.346</ele>
        <time>2012-09-20T08:06:47Z</time>
      </trkpt>
      <trkpt lat="39.528732" lon="2.425199">
        <ele>146.784</ele>
        <time>2012-09-20T08:06:52Z</time>
      </trkpt>
      <trkpt lat="39.528651" lon="2.425126">
        <ele>148.228</ele>
        <time>2012-09-20T08:07:04Z</time>
      </trkpt>
      <trkpt lat="39.528580" lon="2.425057">
        <ele>149.650</ele>
        <time>2012-09-20T08:07:16Z</time>
      </trkpt>
      <trkpt lat="39.528519" lon="2.425004">
        <ele>151.117</ele>
        <time>2012-09-20T08:07:28Z</time>
      </trkpt>
      <trkpt lat="39.528474" lon="2.424947">
        <ele>151.587</ele>
        <time>2012-09-20T08:07:40Z</time>
      </trkpt>
      <trkpt lat="39.528425" lon="2.424863">
        <ele>153.015</ele>
        <time>2012-09-20T08:07:50Z</time>
      </trkpt>
      <trkpt lat="39.528360" lon="2.424807">
        <ele>153.507</ele>
        <time>2012-09-20T08:08:03Z</time>
      </trkpt>
      <trkpt lat="39.528344" lon="2.424738">
        <ele>154.424</ele>
        <time>2012-09-20T08:08:15Z</time>
      </trkpt>
      <trkpt lat="39.528394" lon="2.424689">
        <ele>154.415</ele>
        <time>2012-09-20T08:08:29Z</time>
      </trkpt>
      <trkpt lat="39.528481" lon="2.424679">
        <ele>153.935</ele>
        <time>2012-09-20T08:08:41Z</time>
      </trkpt>
      <trkpt lat="39.528553" lon="2.424676">
        <ele>153.968</ele>
        <time>2012-09-20T08:08:53Z</time>
      </trkpt>
      <trkpt lat="39.528567" lon="2.424683">
        <ele>153.936</ele>
        <time>2012-09-20T08:08:55Z</time>
      </trkpt>
      <trkpt lat="39.528641" lon="2.424694">
        <ele>153.580</ele>
        <time>2012-09-20T08:09:06Z</time>
      </trkpt>
      <trkpt lat="39.528744" lon="2.424662">
        <ele>154.492</ele>
        <time>2012-09-20T08:09:18Z</time>
      </trkpt>
      <trkpt lat="39.528795" lon="2.424691">
        <ele>154.477</ele>
        <time>2012-09-20T08:09:25Z</time>
      </trkpt>
      <trkpt lat="39.528835" lon="2.424735">
        <ele>154.461</ele>
        <time>2012-09-20T08:09:31Z</time>
      </trkpt>
      <trkpt lat="39.528906" lon="2.424794">
        <ele>154.427</ele>
        <time>2012-09-20T08:09:43Z</time>
      </trkpt>
      <trkpt lat="39.528966" lon="2.424821">
        <ele>154.407</ele>
        <time>2012-09-20T08:09:57Z</time>
      </trkpt>
      <trkpt lat="39.528973" lon="2.424766">
        <ele>153.990</ele>
        <time>2012-09-20T08:10:09Z</time>
      </trkpt>
      <trkpt lat="39.528973" lon="2.424747">
        <ele>153.981</ele>
        <time>2012-09-20T08:10:11Z</time>
      </trkpt>
      <trkpt lat="39.528978" lon="2.424722">
        <ele>153.911</ele>
        <time>2012-09-20T08:10:24Z</time>
      </trkpt>
      <trkpt lat="39.528984" lon="2.424717">
        <ele>153.564</ele>
        <time>2012-09-20T08:10:43Z</time>
      </trkpt>
      <trkpt lat="39.528985" lon="2.424717">
        <ele>154.432</ele>
        <time>2012-09-20T08:10:46Z</time>
      </trkpt>
      <trkpt lat="39.528985" lon="2.424716">
        <ele>153.976</ele>
        <time>2012-09-20T08:11:07Z</time>
      </trkpt>
      <trkpt lat="39.528976" lon="2.424706">
        <ele>153.938</ele>
        <time>2012-09-20T08:11:21Z</time>
      </trkpt>
      <trkpt lat="39.528968" lon="2.424696">
        <ele>154.454</ele>
        <time>2012-09-20T08:11:38Z</time>
      </trkpt>
      <trkpt lat="39.528964" lon="2.424693">
        <ele>154.456</ele>
        <time>2012-09-20T08:12:06Z</time>
      </trkpt>
      <trkpt lat="39.528979" lon="2.424700">
        <ele>154.411</ele>
        <time>2012-09-20T08:12:28Z</time>
      </trkpt>
      <trkpt lat="39.528989" lon="2.424703">
        <ele>153.907</ele>
        <time>2012-09-20T08:12:44Z</time>
      </trkpt>
      <trkpt lat="39.528993" lon="2.424706">
        <ele>154.928</ele>
        <time>2012-09-20T08:13:02Z</time>
      </trkpt>
      <trkpt lat="39.528998" lon="2.424710">
        <ele>154.469</ele>
        <time>2012-09-20T08:13:18Z</time>
      </trkpt>
      <trkpt lat="39.529000" lon="2.424710">
        <ele>154.949</ele>
        <time>2012-09-20T08:13:49Z</time>
      </trkpt>
      <trkpt lat="39.529014" lon="2.424700">
        <ele>153.932</ele>
        <time>2012-09-20T08:14:01Z</time>
      </trkpt>
      <trkpt lat="39.529046" lon="2.424702">
        <ele>153.560</ele>
        <time>2012-09-20T08:14:15Z</time>
      </trkpt>
      <trkpt lat="39.529062" lon="2.424712">
        <ele>153.034</ele>
        <time>2012-09-20T08:14:49Z</time>
      </trkpt>
      <trkpt lat="39.529060" lon="2.424688">
        <ele>153.576</ele>
        <time>2012-09-20T08:15:06Z</time>
      </trkpt>
      <trkpt lat="39.529060" lon="2.424684">
        <ele>153.028</ele>
        <time>2012-09-20T08:15:27Z</time>
      </trkpt>
      <trkpt lat="39.529058" lon="2.424695">
        <ele>153.589</ele>
        <time>2012-09-20T08:15:49Z</time>
      </trkpt>
      <trkpt lat="39.529061" lon="2.424700">
        <ele>153.017</ele>
        <time>2012-09-20T08:16:11Z</time>
      </trkpt>
      <trkpt lat="39.529067" lon="2.424710">
        <ele>153.007</ele>
        <time>2012-09-20T08:16:26Z</time>
      </trkpt>
      <trkpt lat="39.529068" lon="2.424738">
        <ele>153.565</ele>
        <time>2012-09-20T08:16:32Z</time>
      </trkpt>
      <trkpt lat="39.529042" lon="2.424793">
        <ele>153.996</ele>
        <time>2012-09-20T08:16:45Z</time>
      </trkpt>
      <trkpt lat="39.529018" lon="2.424745">
        <ele>153.986</ele>
        <time>2012-09-20T08:16:55Z</time>
      </trkpt>
      <trkpt lat="39.528980" lon="2.424725">
        <ele>154.489</ele>
        <time>2012-09-20T08:17:05Z</time>
      </trkpt>
      <trkpt lat="39.529006" lon="2.424770">
        <ele>153.927</ele>
        <time>2012-09-20T08:17:14Z</time>
      </trkpt>
      <trkpt lat="39.529040" lon="2.424804">
        <ele>153.981</ele>
        <time>2012-09-20T08:17:18Z</time>
      </trkpt>
      <trkpt lat="39.529059" lon="2.424857">
        <ele>153.983</ele>
        <time>2012-09-20T08:17:29Z</time>
      </trkpt>
      <trkpt lat="39.529082" lon="2.424900">
        <ele>153.523</ele>
        <time>2012-09-20T08:17:40Z</time>
      </trkpt>
      <trkpt lat="39.529088" lon="2.424914">
        <ele>152.583</ele>
        <time>2012-09-20T08:17:49Z</time>
      </trkpt>
      <trkpt lat="39.529116" lon="2.424931">
        <ele>152.511</ele>
        <time>2012-09-20T08:17:53Z</time>
      </trkpt>
      <trkpt lat="39.529153" lon="2.424948">
        <ele>151.507</ele>
        <time>2012-09-20T08:18:01Z</time>
      </trkpt>
      <trkpt lat="39.529205" lon="2.425046">
        <ele>150.675</ele>
        <time>2012-09-20T08:18:12Z</time>
      </trkpt>
      <trkpt lat="39.529199" lon="2.425100">
        <ele>150.656</ele>
        <time>2012-09-20T08:18:24Z</time>
      </trkpt>
      <trkpt lat="39.529208" lon="2.425118">
        <ele>150.196</ele>
        <time>2012-09-20T08:18:35Z</time>
      </trkpt>
      <trkpt lat="39.529226" lon="2.425126">
        <ele>149.639</ele>
        <time>2012-09-20T08:18:48Z</time>
      </trkpt>
      <trkpt lat="39.529228" lon="2.425137">
        <ele>148.227</ele>
        <time>2012-09-20T08:19:03Z</time>
      </trkpt>
      <trkpt lat="39.529203" lon="2.425116">
        <ele>149.181</ele>
        <time>2012-09-20T08:19:21Z</time>
      </trkpt>
      <trkpt lat="39.529202" lon="2.425110">
        <ele>149.193</ele>
        <time>2012-09-20T08:19:39Z</time>
      </trkpt>
      <trkpt lat="39.529194" lon="2.425071">
        <ele>149.655</ele>
        <time>2012-09-20T08:19:58Z</time>
      </trkpt>
      <trkpt lat="39.529202" lon="2.425071">
        <ele>149.607</ele>
        <time>2012-09-20T08:20:28Z</time>
      </trkpt>
      <trkpt lat="39.529204" lon="2.425070">
        <ele>149.617</ele>
        <time>2012-09-20T08:20:59Z</time>
      </trkpt>
      <trkpt lat="39.529186" lon="2.425079">
        <ele>149.107</ele>
        <time>2012-09-20T08:21:16Z</time>
      </trkpt>
      <trkpt lat="39.529184" lon="2.425075">
        <ele>149.118</ele>
        <time>2012-09-20T08:21:36Z</time>
      </trkpt>
      <trkpt lat="39.529181" lon="2.425082">
        <ele>149.169</ele>
        <time>2012-09-20T08:22:03Z</time>
      </trkpt>
      <trkpt lat="39.529177" lon="2.425089">
        <ele>148.779</ele>
        <time>2012-09-20T08:22:27Z</time>
      </trkpt>
      <trkpt lat="39.529174" lon="2.425085">
        <ele>149.142</ele>
        <time>2012-09-20T08:22:48Z</time>
      </trkpt>
      <trkpt lat="39.529175" lon="2.425089">
        <ele>149.140</ele>
        <time>2012-09-20T08:23:07Z</time>
      </trkpt>
      <trkpt lat="39.529177" lon="2.425091">
        <ele>149.644</ele>
        <time>2012-09-20T08:23:28Z</time>
      </trkpt>
      <trkpt lat="39.529179" lon="2.425094">
        <ele>149.686</ele>
        <time>2012-09-20T08:23:52Z</time>
      </trkpt>
      <trkpt lat="39.529181" lon="2.425088">
        <ele>149.139</ele>
        <time>2012-09-20T08:24:19Z</time>
      </trkpt>
      <trkpt lat="39.529183" lon="2.425085">
        <ele>148.701</ele>
        <time>2012-09-20T08:24:40Z</time>
      </trkpt>
      <trkpt lat="39.529187" lon="2.425078">
        <ele>149.121</ele>
        <time>2012-09-20T08:25:07Z</time>
      </trkpt>
      <trkpt lat="39.529190" lon="2.425081">
        <ele>149.107</ele>
        <time>2012-09-20T08:25:30Z</time>
      </trkpt>
      <trkpt lat="39.529191" lon="2.425085">
        <ele>148.786</ele>
        <time>2012-09-20T08:25:53Z</time>
      </trkpt>
      <trkpt lat="39.529215" lon="2.425154">
        <ele>148.237</ele>
        <time>2012-09-20T08:26:11Z</time>
      </trkpt>
      <trkpt lat="39.529264" lon="2.425212">
        <ele>146.717</ele>
        <time>2012-09-20T08:26:23Z</time>
      </trkpt>
      <trkpt lat="39.529299" lon="2.425230">
        <ele>146.340</ele>
        <time>2012-09-20T08:26:33Z</time>
      </trkpt>
      <trkpt lat="39.529335" lon="2.425253">
        <ele>145.388</ele>
        <time>2012-09-20T08:26:38Z</time>
      </trkpt>
      <trkpt lat="39.529408" lon="2.425284">
        <ele>143.992</ele>
        <time>2012-09-20T08:26:51Z</time>
      </trkpt>
      <trkpt lat="39.529457" lon="2.425330">
        <ele>142.474</ele>
        <time>2012-09-20T08:27:03Z</time>
      </trkpt>
      <trkpt lat="39.529460" lon="2.425348">
        <ele>141.942</ele>
        <time>2012-09-20T08:27:07Z</time>
      </trkpt>
      <trkpt lat="39.529442" lon="2.425448">
        <ele>141.422</ele>
        <time>2012-09-20T08:27:18Z</time>
      </trkpt>
      <trkpt lat="39.529447" lon="2.425527">
        <ele>139.514</ele>
        <time>2012-09-20T08:27:30Z</time>
      </trkpt>
      <trkpt lat="39.529509" lon="2.425569">
        <ele>137.607</ele>
        <time>2012-09-20T08:27:42Z</time>
      </trkpt>
      <trkpt lat="39.529551" lon="2.425585">
        <ele>136.667</ele>
        <time>2012-09-20T08:27:55Z</time>
      </trkpt>
      <trkpt lat="39.529566" lon="2.425576">
        <ele>136.258</ele>
        <time>2012-09-20T08:28:15Z</time>
      </trkpt>
      <trkpt lat="39.529611" lon="2.425545">
        <ele>135.268</ele>
        <time>2012-09-20T08:28:20Z</time>
      </trkpt>
      <trkpt lat="39.529648" lon="2.425512">
        <ele>135.231</ele>
        <time>2012-09-20T08:28:25Z</time>
      </trkpt>
      <trkpt lat="39.529715" lon="2.425430">
        <ele>133.869</ele>
        <time>2012-09-20T08:28:38Z</time>
      </trkpt>
      <trkpt lat="39.529754" lon="2.425329">
        <ele>133.343</ele>
        <time>2012-09-20T08:28:51Z</time>
      </trkpt>
      <trkpt lat="39.529744" lon="2.425314">
        <ele>133.345</ele>
        <time>2012-09-20T08:29:17Z</time>
      </trkpt>
      <trkpt lat="39.529805" lon="2.425226">
        <ele>131.819</ele>
        <time>2012-09-20T08:29:31Z</time>
      </trkpt>
      <trkpt lat="39.529823" lon="2.425301">
        <ele>131.809</ele>
        <time>2012-09-20T08:29:44Z</time>
      </trkpt>
      <trkpt lat="39.529832" lon="2.425288">
        <ele>131.419</ele>
        <time>2012-09-20T08:29:58Z</time>
      </trkpt>
      <trkpt lat="39.529832" lon="2.425282">
        <ele>130.907</ele>
        <time>2012-09-20T08:30:26Z</time>
      </trkpt>
      <trkpt lat="39.529824" lon="2.425295">
        <ele>131.884</ele>
        <time>2012-09-20T08:30:44Z</time>
      </trkpt>
      <trkpt lat="39.529836" lon="2.425304">
        <ele>130.995</ele>
        <time>2012-09-20T08:31:09Z</time>
      </trkpt>
      <trkpt lat="39.529901" lon="2.425345">
        <ele>128.095</ele>
        <time>2012-09-20T08:31:21Z</time>
      </trkpt>
      <trkpt lat="39.529940" lon="2.425338">
        <ele>127.538</ele>
        <time>2012-09-20T08:31:25Z</time>
      </trkpt>
      <trkpt lat="39.529959" lon="2.425243">
        <ele>127.016</ele>
        <time>2012-09-20T08:31:32Z</time>
      </trkpt>
      <trkpt lat="39.530021" lon="2.425221">
        <ele>124.680</ele>
        <time>2012-09-20T08:31:41Z</time>
      </trkpt>
      <trkpt lat="39.530046" lon="2.425300">
        <ele>124.662</ele>
        <time>2012-09-20T08:31:56Z</time>
      </trkpt>
      <trkpt lat="39.530056" lon="2.425409">
        <ele>123.719</ele>
        <time>2012-09-20T08:32:08Z</time>
      </trkpt>
      <trkpt lat="39.530069" lon="2.425503">
        <ele>122.709</ele>
        <time>2012-09-20T08:32:17Z</time>
      </trkpt>
      <trkpt lat="39.530092" lon="2.425633">
        <ele>120.819</ele>
        <time>2012-09-20T08:32:29Z</time>
      </trkpt>
      <trkpt lat="39.530124" lon="2.425735">
        <ele>118.407</ele>
        <time>2012-09-20T08:32:42Z</time>
      </trkpt>
      <trkpt lat="39.530187" lon="2.425722">
        <ele>117.944</ele>
        <time>2012-09-20T08:32:56Z</time>
      </trkpt>
      <trkpt lat="39.530269" lon="2.425675">
        <ele>116.515</ele>
        <time>2012-09-20T08:33:08Z</time>
      </trkpt>
      <trkpt lat="39.530294" lon="2.425659">
        <ele>116.045</ele>
        <time>2012-09-20T08:33:11Z</time>
      </trkpt>
      <trkpt lat="39.530317" lon="2.425634">
        <ele>115.578</ele>
        <time>2012-09-20T08:33:14Z</time>
      </trkpt>
      <trkpt lat="39.530420" lon="2.425535">
        <ele>113.636</ele>
        <time>2012-09-20T08:33:29Z</time>
      </trkpt>
      <trkpt lat="39.530483" lon="2.425613">
        <ele>111.250</ele>
        <time>2012-09-20T08:33:42Z</time>
      </trkpt>
      <trkpt lat="39.530497" lon="2.425625">
        <ele>110.262</ele>
        <time>2012-09-20T08:33:59Z</time>
      </trkpt>
      <trkpt lat="39.530581" lon="2.425702">
        <ele>107.846</ele>
        <time>2012-09-20T08:34:13Z</time>
      </trkpt>
      <trkpt lat="39.530626" lon="2.425744">
        <ele>106.488</ele>
        <time>2012-09-20T08:34:27Z</time>
      </trkpt>
      <trkpt lat="39.530674" lon="2.425783">
        <ele>105.416</ele>
        <time>2012-09-20T08:34:41Z</time>
      </trkpt>
      <trkpt lat="39.530745" lon="2.425784">
        <ele>104.407</ele>
        <time>2012-09-20T08:34:53Z</time>
      </trkpt>
      <trkpt lat="39.530881" lon="2.425821">
        <ele>103.067</ele>
        <time>2012-09-20T08:35:06Z</time>
      </trkpt>
      <trkpt lat="39.531011" lon="2.425845">
        <ele>103.078</ele>
        <time>2012-09-20T08:35:17Z</time>
      </trkpt>
      <trkpt lat="39.531058" lon="2.425839">
        <ele>103.558</ele>
        <time>2012-09-20T08:35:22Z</time>
      </trkpt>
      <trkpt lat="39.531212" lon="2.425766">
        <ele>103.091</ele>
        <time>2012-09-20T08:35:37Z</time>
      </trkpt>
      <trkpt lat="39.531208" lon="2.425646">
        <ele>102.599</ele>
        <time>2012-09-20T08:35:50Z</time>
      </trkpt>
      <trkpt lat="39.531197" lon="2.425629">
        <ele>101.623</ele>
        <time>2012-09-20T08:36:02Z</time>
      </trkpt>
      <trkpt lat="39.531202" lon="2.425623">
        <ele>101.695</ele>
        <time>2012-09-20T08:36:23Z</time>
      </trkpt>
      <trkpt lat="39.531202" lon="2.425617">
        <ele>101.611</ele>
        <time>2012-09-20T08:36:47Z</time>
      </trkpt>
      <trkpt lat="39.531202" lon="2.425613">
        <ele>101.621</ele>
        <time>2012-09-20T08:37:12Z</time>
      </trkpt>
      <trkpt lat="39.531204" lon="2.425657">
        <ele>101.603</ele>
        <time>2012-09-20T08:37:27Z</time>
      </trkpt>
      <trkpt lat="39.531206" lon="2.425670">
        <ele>102.007</ele>
        <time>2012-09-20T08:37:28Z</time>
      </trkpt>
      <trkpt lat="39.531213" lon="2.425716">
        <ele>102.574</ele>
        <time>2012-09-20T08:37:32Z</time>
      </trkpt>
      <trkpt lat="39.531198" lon="2.425771">
        <ele>103.045</ele>
        <time>2012-09-20T08:37:37Z</time>
      </trkpt>
      <trkpt lat="39.531233" lon="2.425821">
        <ele>104.465</ele>
        <time>2012-09-20T08:37:43Z</time>
      </trkpt>
      <trkpt lat="39.531332" lon="2.426001">
        <ele>103.538</ele>
        <time>2012-09-20T08:37:58Z</time>
      </trkpt>
      <trkpt lat="39.531354" lon="2.426024">
        <ele>104.076</ele>
        <time>2012-09-20T08:38:01Z</time>
      </trkpt>
      <trkpt lat="39.531373" lon="2.426057">
        <ele>103.550</ele>
        <time>2012-09-20T08:38:04Z</time>
      </trkpt>
      <trkpt lat="39.531473" lon="2.426227">
        <ele>102.082</ele>
        <time>2012-09-20T08:38:19Z</time>
      </trkpt>
      <trkpt lat="39.531552" lon="2.426271">
        <ele>100.157</ele>
        <time>2012-09-20T08:38:32Z</time>
      </trkpt>
      <trkpt lat="39.531651" lon="2.426313">
        <ele>97.200</ele>
        <time>2012-09-20T08:38:42Z</time>
      </trkpt>
      <trkpt lat="39.531701" lon="2.426324">
        <ele>96.820</ele>
        <time>2012-09-20T08:38:47Z</time>
      </trkpt>
      <trkpt lat="39.531845" lon="2.426331">
        <ele>93.907</ele>
        <time>2012-09-20T08:39:04Z</time>
      </trkpt>
      <trkpt lat="39.531980" lon="2.426393">
        <ele>91.018</ele>
        <time>2012-09-20T08:39:20Z</time>
      </trkpt>
      <trkpt lat="39.531980" lon="2.426395">
        <ele>91.099</ele>
        <time>2012-09-20T08:39:21Z</time>
      </trkpt>
      <trkpt lat="39.532047" lon="2.426471">
        <ele>89.549</ele>
        <time>2012-09-20T08:39:30Z</time>
      </trkpt>
      <trkpt lat="39.532208" lon="2.426507">
        <ele>88.132</ele>
        <time>2012-09-20T08:39:45Z</time>
      </trkpt>
      <trkpt lat="39.532241" lon="2.426505">
        <ele>87.160</ele>
        <time>2012-09-20T08:39:48Z</time>
      </trkpt>
      <trkpt lat="39.532285" lon="2.426471">
        <ele>87.184</ele>
        <time>2012-09-20T08:39:53Z</time>
      </trkpt>
      <trkpt lat="39.532263" lon="2.426414">
        <ele>86.786</ele>
        <time>2012-09-20T08:40:06Z</time>
      </trkpt>
      <trkpt lat="39.532271" lon="2.426281">
        <ele>85.281</ele>
        <time>2012-09-20T08:40:20Z</time>
      </trkpt>
      <trkpt lat="39.532361" lon="2.426223">
        <ele>83.861</ele>
        <time>2012-09-20T08:40:33Z</time>
      </trkpt>
      <trkpt lat="39.532370" lon="2.426117">
        <ele>80.917</ele>
        <time>2012-09-20T08:40:44Z</time>
      </trkpt>
      <trkpt lat="39.532383" lon="2.426038">
        <ele>79.907</ele>
        <time>2012-09-20T08:40:51Z</time>
      </trkpt>
      <trkpt lat="39.532433" lon="2.425921">
        <ele>76.631</ele>
        <time>2012-09-20T08:41:05Z</time>
      </trkpt>
      <trkpt lat="39.532461" lon="2.425856">
        <ele>74.652</ele>
        <time>2012-09-20T08:41:19Z</time>
      </trkpt>
      <trkpt lat="39.532469" lon="2.425767">
        <ele>71.892</ele>
        <time>2012-09-20T08:41:32Z</time>
      </trkpt>
      <trkpt lat="39.532470" lon="2.425728">
        <ele>70.345</ele>
        <time>2012-09-20T08:41:43Z</time>
      </trkpt>
      <trkpt lat="39.532529" lon="2.425707">
        <ele>66.993</ele>
        <time>2012-09-20T08:41:59Z</time>
      </trkpt>
      <trkpt lat="39.532566" lon="2.425601">
        <ele>65.587</ele>
        <time>2012-09-20T08:42:11Z</time>
      </trkpt>
      <trkpt lat="39.532670" lon="2.425508">
        <ele>62.699</ele>
        <time>2012-09-20T08:42:23Z</time>
      </trkpt>
      <trkpt lat="39.532714" lon="2.425451">
        <ele>61.235</ele>
        <time>2012-09-20T08:42:31Z</time>
      </trkpt>
      <trkpt lat="39.532736" lon="2.425427">
        <ele>61.286</ele>
        <time>2012-09-20T08:42:47Z</time>
      </trkpt>
      <trkpt lat="39.532745" lon="2.425429">
        <ele>61.214</ele>
        <time>2012-09-20T08:43:02Z</time>
      </trkpt>
      <trkpt lat="39.532741" lon="2.425429">
        <ele>62.607</ele>
        <time>2012-09-20T08:43:21Z</time>
      </trkpt>
      <trkpt lat="39.532737" lon="2.425427">
        <ele>58.326</ele>
        <time>2012-09-20T08:43:26Z</time>
      </trkpt>
      <trkpt lat="39.532736" lon="2.425427">
        <ele>64.137</ele>
        <time>2012-09-20T08:43:27Z</time>
      </trkpt>
      <trkpt lat="39.532735" lon="2.425426">
        <ele>64.187</ele>
        <time>2012-09-20T08:43:28Z</time>
      </trkpt>
      <trkpt lat="39.532735" lon="2.425424">
        <ele>56.470</ele>
        <time>2012-09-20T08:43:30Z</time>
      </trkpt>
      <trkpt lat="39.532735" lon="2.425424">
        <ele>65.588</ele>
        <time>2012-09-20T08:43:31Z</time>
      </trkpt>
      <trkpt lat="39.532734" lon="2.425421">
        <ele>62.132</ele>
        <time>2012-09-20T08:43:33Z</time>
      </trkpt>
      <trkpt lat="39.532738" lon="2.425419">
        <ele>58.864</ele>
        <time>2012-09-20T08:43:35Z</time>
      </trkpt>
      <trkpt lat="39.532740" lon="2.425418">
        <ele>63.665</ele>
        <time>2012-09-20T08:43:36Z</time>
      </trkpt>
      <trkpt lat="39.532741" lon="2.425417">
        <ele>60.268</ele>
        <time>2012-09-20T08:43:37Z</time>
      </trkpt>
      <trkpt lat="39.532736" lon="2.425414">
        <ele>62.614</ele>
        <time>2012-09-20T08:43:54Z</time>
      </trkpt>
      <trkpt lat="39.532742" lon="2.425390">
        <ele>60.207</ele>
        <time>2012-09-20T08:43:58Z</time>
      </trkpt>
      <trkpt lat="39.532866" lon="2.425255">
        <ele>61.259</ele>
        <time>2012-09-20T08:44:13Z</time>
      </trkpt>
      <trkpt lat="39.532971" lon="2.425152">
        <ele>60.210</ele>
        <time>2012-09-20T08:44:27Z</time>
      </trkpt>
      <trkpt lat="39.533059" lon="2.425074">
        <ele>59.380</ele>
        <time>2012-09-20T08:44:36Z</time>
      </trkpt>
      <trkpt lat="39.533167" lon="2.424961">
        <ele>58.333</ele>
        <time>2012-09-20T08:44:49Z</time>
      </trkpt>
      <trkpt lat="39.533226" lon="2.424849">
        <ele>56.931</ele>
        <time>2012-09-20T08:45:00Z</time>
      </trkpt>
      <trkpt lat="39.533282" lon="2.424711">
        <ele>53.545</ele>
        <time>2012-09-20T08:45:12Z</time>
      </trkpt>
      <trkpt lat="39.533310" lon="2.424673">
        <ele>52.537</ele>
        <time>2012-09-20T08:45:16Z</time>
      </trkpt>
      <trkpt lat="39.533342" lon="2.424596">
        <ele>50.667</ele>
        <time>2012-09-20T08:45:23Z</time>
      </trkpt>
      <trkpt lat="39.533408" lon="2.424461">
        <ele>47.281</ele>
        <time>2012-09-20T08:45:37Z</time>
      </trkpt>
      <trkpt lat="39.533444" lon="2.424422">
        <ele>46.319</ele>
        <time>2012-09-20T08:45:54Z</time>
      </trkpt>
      <trkpt lat="39.533517" lon="2.424334">
        <ele>45.307</ele>
        <time>2012-09-20T08:46:08Z</time>
      </trkpt>
      <trkpt lat="39.533525" lon="2.424303">
        <ele>44.879</ele>
        <time>2012-09-20T08:46:20Z</time>
      </trkpt>
      <trkpt lat="39.533559" lon="2.424257">
        <ele>44.870</ele>
        <time>2012-09-20T08:46:35Z</time>
      </trkpt>
      <trkpt lat="39.533587" lon="2.424214">
        <ele>44.450</ele>
        <time>2012-09-20T08:46:40Z</time>
      </trkpt>
      <trkpt lat="39.533609" lon="2.424178">
        <ele>44.483</ele>
        <time>2012-09-20T08:46:43Z</time>
      </trkpt>
      <trkpt lat="39.533675" lon="2.424144">
        <ele>44.821</ele>
        <time>2012-09-20T08:46:50Z</time>
      </trkpt>
      <trkpt lat="39.533725" lon="2.424093">
        <ele>44.475</ele>
        <time>2012-09-20T08:46:57Z</time>
      </trkpt>
      <trkpt lat="39.533764" lon="2.424066">
        <ele>44.837</ele>
        <time>2012-09-20T08:47:02Z</time>
      </trkpt>
      <trkpt lat="39.533871" lon="2.424004">
        <ele>44.471</ele>
        <time>2012-09-20T08:47:14Z</time>
      </trkpt>
      <trkpt lat="39.533920" lon="2.423979">
        <ele>44.441</ele>
        <time>2012-09-20T08:47:19Z</time>
      </trkpt>
      <trkpt lat="39.533936" lon="2.423955">
        <ele>44.415</ele>
        <time>2012-09-20T08:47:22Z</time>
      </trkpt>
      <trkpt lat="39.533962" lon="2.423933">
        <ele>44.807</ele>
        <time>2012-09-20T08:47:25Z</time>
      </trkpt>
      <trkpt lat="39.534065" lon="2.423859">
        <ele>45.310</ele>
        <time>2012-09-20T08:47:40Z</time>
      </trkpt>
      <trkpt lat="39.534198" lon="2.423773">
        <ele>47.211</ele>
        <time>2012-09-20T08:47:55Z</time>
      </trkpt>
      <trkpt lat="39.534344" lon="2.423730">
        <ele>50.631</ele>
        <time>2012-09-20T08:48:12Z</time>
      </trkpt>
      <trkpt lat="39.534420" lon="2.423699">
        <ele>50.634</ele>
        <time>2012-09-20T08:48:25Z</time>
      </trkpt>
      <trkpt lat="39.534392" lon="2.423687">
        <ele>50.652</ele>
        <time>2012-09-20T08:48:28Z</time>
      </trkpt>
      <trkpt lat="39.534363" lon="2.423680">
        <ele>50.196</ele>
        <time>2012-09-20T08:48:31Z</time>
      </trkpt>
      <trkpt lat="39.534333" lon="2.423679">
        <ele>49.718</ele>
        <time>2012-09-20T08:48:34Z</time>
      </trkpt>
      <trkpt lat="39.534160" lon="2.423735">
        <ele>47.277</ele>
        <time>2012-09-20T08:48:49Z</time>
      </trkpt>
      <trkpt lat="39.534059" lon="2.423785">
        <ele>44.861</ele>
        <time>2012-09-20T08:49:04Z</time>
      </trkpt>
      <trkpt lat="39.534018" lon="2.423811">
        <ele>44.427</ele>
        <time>2012-09-20T08:49:09Z</time>
      </trkpt>
      <trkpt lat="39.533997" lon="2.423823">
        <ele>44.407</ele>
        <time>2012-09-20T08:49:17Z</time>
      </trkpt>
      <trkpt lat="39.533857" lon="2.423930">
        <ele>43.960</ele>
        <time>2012-09-20T08:49:27Z</time>
      </trkpt>
      <trkpt lat="39.533810" lon="2.423959">
        <ele>43.911</ele>
        <time>2012-09-20T08:49:31Z</time>
      </trkpt>
      <trkpt lat="39.533665" lon="2.424049">
        <ele>43.941</ele>
        <time>2012-09-20T08:49:44Z</time>
      </trkpt>
      <trkpt lat="39.533590" lon="2.424125">
        <ele>44.434</ele>
        <time>2012-09-20T08:49:58Z</time>
      </trkpt>
      <trkpt lat="39.533557" lon="2.424170">
        <ele>43.992</ele>
        <time>2012-09-20T08:50:03Z</time>
      </trkpt>
      <trkpt lat="39.533532" lon="2.424216">
        <ele>44.416</ele>
        <time>2012-09-20T08:50:17Z</time>
      </trkpt>
      <trkpt lat="39.533544" lon="2.424216">
        <ele>44.458</ele>
        <time>2012-09-20T08:50:44Z</time>
      </trkpt>
      <trkpt lat="39.533526" lon="2.424151">
        <ele>42.959</ele>
        <time>2012-09-20T08:50:58Z</time>
      </trkpt>
      <trkpt lat="39.533480" lon="2.424055">
        <ele>40.503</ele>
        <time>2012-09-20T08:51:11Z</time>
      </trkpt>
      <trkpt lat="39.533426" lon="2.423985">
        <ele>40.023</ele>
        <time>2012-09-20T08:51:25Z</time>
      </trkpt>
      <trkpt lat="39.533433" lon="2.423997">
        <ele>39.107</ele>
        <time>2012-09-20T08:51:42Z</time>
      </trkpt>
      <trkpt lat="39.533444" lon="2.423983">
        <ele>38.678</ele>
        <time>2012-09-20T08:51:59Z</time>
      </trkpt>
      <trkpt lat="39.533461" lon="2.423980">
        <ele>37.689</ele>
        <time>2012-09-20T08:52:12Z</time>
      </trkpt>
      <trkpt lat="39.533473" lon="2.423942">
        <ele>37.229</ele>
        <time>2012-09-20T08:52:20Z</time>
      </trkpt>
      <trkpt lat="39.533475" lon="2.423906">
        <ele>36.712</ele>
        <time>2012-09-20T08:52:22Z</time>
      </trkpt>
      <trkpt lat="39.533492" lon="2.423791">
        <ele>35.790</ele>
        <time>2012-09-20T08:52:34Z</time>
      </trkpt>
      <trkpt lat="39.533614" lon="2.423707">
        <ele>35.794</ele>
        <time>2012-09-20T08:52:51Z</time>
      </trkpt>
      <trkpt lat="39.533707" lon="2.423639">
        <ele>35.786</ele>
        <time>2012-09-20T08:53:06Z</time>
      </trkpt>
      <trkpt lat="39.533665" lon="2.423645">
        <ele>35.295</ele>
        <time>2012-09-20T08:53:21Z</time>
      </trkpt>
      <trkpt lat="39.533556" lon="2.423722">
        <ele>35.749</ele>
        <time>2012-09-20T08:53:37Z</time>
      </trkpt>
      <trkpt lat="39.533516" lon="2.423733">
        <ele>35.223</ele>
        <time>2012-09-20T08:53:42Z</time>
      </trkpt>
      <trkpt lat="39.533463" lon="2.423769">
        <ele>36.207</ele>
        <time>2012-09-20T08:53:50Z</time>
      </trkpt>
      <trkpt lat="39.533461" lon="2.423839">
        <ele>36.212</ele>
        <time>2012-09-20T08:54:04Z</time>
      </trkpt>
      <trkpt lat="39.533485" lon="2.423898">
        <ele>37.283</ele>
        <time>2012-09-20T08:54:20Z</time>
      </trkpt>
      <trkpt lat="39.533497" lon="2.423974">
        <ele>38.183</ele>
        <time>2012-09-20T08:54:36Z</time>
      </trkpt>
      <trkpt lat="39.533532" lon="2.424018">
        <ele>40.096</ele>
        <time>2012-09-20T08:54:45Z</time>
      </trkpt>
      <trkpt lat="39.533574" lon="2.424125">
        <ele>43.474</ele>
        <time>2012-09-20T08:54:56Z</time>
      </trkpt>
      <trkpt lat="39.533601" lon="2.424156">
        <ele>44.418</ele>
        <time>2012-09-20T08:55:01Z</time>
      </trkpt>
      <trkpt lat="39.533603" lon="2.424184">
        <ele>44.440</ele>
        <time>2012-09-20T08:55:04Z</time>
      </trkpt>
      <trkpt lat="39.533582" lon="2.424191">
        <ele>44.439</ele>
        <time>2012-09-20T08:55:17Z</time>
      </trkpt>
      <trkpt lat="39.533569" lon="2.424209">
        <ele>44.401</ele>
        <time>2012-09-20T08:55:19Z</time>
      </trkpt>
      <trkpt lat="39.533510" lon="2.424321">
        <ele>44.821</ele>
        <time>2012-09-20T08:55:33Z</time>
      </trkpt>
      <trkpt lat="39.533507" lon="2.424333">
        <ele>44.807</ele>
        <time>2012-09-20T08:55:34Z</time>
      </trkpt>
      <trkpt lat="39.533457" lon="2.424406">
        <ele>46.336</ele>
        <time>2012-09-20T08:55:42Z</time>
      </trkpt>
      <trkpt lat="39.533355" lon="2.424554">
        <ele>49.277</ele>
        <time>2012-09-20T08:55:57Z</time>
      </trkpt>
      <trkpt lat="39.533304" lon="2.424634">
        <ele>51.617</ele>
        <time>2012-09-20T08:56:11Z</time>
      </trkpt>
      <trkpt lat="39.533284" lon="2.424671">
        <ele>52.530</ele>
        <time>2012-09-20T08:56:15Z</time>
      </trkpt>
      <trkpt lat="39.533220" lon="2.424826">
        <ele>55.998</ele>
        <time>2012-09-20T08:56:29Z</time>
      </trkpt>
      <trkpt lat="39.533144" lon="2.424903">
        <ele>57.382</ele>
        <time>2012-09-20T08:56:41Z</time>
      </trkpt>
      <trkpt lat="39.533061" lon="2.425008">
        <ele>58.864</ele>
        <time>2012-09-20T08:56:53Z</time>
      </trkpt>
      <trkpt lat="39.533036" lon="2.425026">
        <ele>58.887</ele>
        <time>2012-09-20T08:56:56Z</time>
      </trkpt>
      <trkpt lat="39.532918" lon="2.425146">
        <ele>59.742</ele>
        <time>2012-09-20T08:57:10Z</time>
      </trkpt>
      <trkpt lat="39.532806" lon="2.425247">
        <ele>60.726</ele>
        <time>2012-09-20T08:57:23Z</time>
      </trkpt>
      <trkpt lat="39.532718" lon="2.425321">
        <ele>60.707</ele>
        <time>2012-09-20T08:57:35Z</time>
      </trkpt>
      <trkpt lat="39.532695" lon="2.425334">
        <ele>61.231</ele>
        <time>2012-09-20T08:57:48Z</time>
      </trkpt>
      <trkpt lat="39.532658" lon="2.425347">
        <ele>61.272</ele>
        <time>2012-09-20T08:57:56Z</time>
      </trkpt>
      <trkpt lat="39.532512" lon="2.425313">
        <ele>62.132</ele>
        <time>2012-09-20T08:58:11Z</time>
      </trkpt>
      <trkpt lat="39.532485" lon="2.425306">
        <ele>62.165</ele>
        <time>2012-09-20T08:58:21Z</time>
      </trkpt>
      <trkpt lat="39.532469" lon="2.425298">
        <ele>61.723</ele>
        <time>2012-09-20T08:58:23Z</time>
      </trkpt>
      <trkpt lat="39.532427" lon="2.425278">
        <ele>62.127</ele>
        <time>2012-09-20T08:58:27Z</time>
      </trkpt>
      <trkpt lat="39.532362" lon="2.425254">
        <ele>62.659</ele>
        <time>2012-09-20T08:58:34Z</time>
      </trkpt>
      <trkpt lat="39.532334" lon="2.425238">
        <ele>62.638</ele>
        <time>2012-09-20T08:58:37Z</time>
      </trkpt>
      <trkpt lat="39.532285" lon="2.425203">
        <ele>62.670</ele>
        <time>2012-09-20T08:58:41Z</time>
      </trkpt>
      <trkpt lat="39.532246" lon="2.425181">
        <ele>63.117</ele>
        <time>2012-09-20T08:58:47Z</time>
      </trkpt>
      <trkpt lat="39.532181" lon="2.425239">
        <ele>63.607</ele>
        <time>2012-09-20T08:58:54Z</time>
      </trkpt>
      <trkpt lat="39.532080" lon="2.425389">
        <ele>62.626</ele>
        <time>2012-09-20T08:59:07Z</time>
      </trkpt>
      <trkpt lat="39.532064" lon="2.425419">
        <ele>61.757</ele>
        <time>2012-09-20T08:59:10Z</time>
      </trkpt>
      <trkpt lat="39.532036" lon="2.425437">
        <ele>62.127</ele>
        <time>2012-09-20T08:59:13Z</time>
      </trkpt>
      <trkpt lat="39.531980" lon="2.425467">
        <ele>61.210</ele>
        <time>2012-09-20T08:59:19Z</time>
      </trkpt>
      <trkpt lat="39.531929" lon="2.425477">
        <ele>60.258</ele>
        <time>2012-09-20T08:59:24Z</time>
      </trkpt>
      <trkpt lat="39.531896" lon="2.425492">
        <ele>60.232</ele>
        <time>2012-09-20T08:59:27Z</time>
      </trkpt>
      <trkpt lat="39.531870" lon="2.425481">
        <ele>59.794</ele>
        <time>2012-09-20T08:59:29Z</time>
      </trkpt>
      <trkpt lat="39.531820" lon="2.425441">
        <ele>59.373</ele>
        <time>2012-09-20T08:59:34Z</time>
      </trkpt>
      <trkpt lat="39.531802" lon="2.425388">
        <ele>58.385</ele>
        <time>2012-09-20T08:59:39Z</time>
      </trkpt>
      <trkpt lat="39.531835" lon="2.425260">
        <ele>56.413</ele>
        <time>2012-09-20T08:59:50Z</time>
      </trkpt>
      <trkpt lat="39.531890" lon="2.425185">
        <ele>54.507</ele>
        <time>2012-09-20T08:59:58Z</time>
      </trkpt>
      <trkpt lat="39.531920" lon="2.425146">
        <ele>54.590</ele>
        <time>2012-09-20T09:00:02Z</time>
      </trkpt>
      <trkpt lat="39.532002" lon="2.425006">
        <ele>53.041</ele>
        <time>2012-09-20T09:00:14Z</time>
      </trkpt>
      <trkpt lat="39.532032" lon="2.424957">
        <ele>52.581</ele>
        <time>2012-09-20T09:00:18Z</time>
      </trkpt>
      <trkpt lat="39.532144" lon="2.424805">
        <ele>49.734</ele>
        <time>2012-09-20T09:00:35Z</time>
      </trkpt>
      <trkpt lat="39.532294" lon="2.424718">
        <ele>47.732</ele>
        <time>2012-09-20T09:00:49Z</time>
      </trkpt>
      <trkpt lat="39.532412" lon="2.424674">
        <ele>45.376</ele>
        <time>2012-09-20T09:01:02Z</time>
      </trkpt>
      <trkpt lat="39.532525" lon="2.424597">
        <ele>42.918</ele>
        <time>2012-09-20T09:01:15Z</time>
      </trkpt>
      <trkpt lat="39.532661" lon="2.424499">
        <ele>40.521</ele>
        <time>2012-09-20T09:01:31Z</time>
      </trkpt>
      <trkpt lat="39.532673" lon="2.424484">
        <ele>40.041</ele>
        <time>2012-09-20T09:01:33Z</time>
      </trkpt>
      <trkpt lat="39.532694" lon="2.424450">
        <ele>39.505</ele>
        <time>2012-09-20T09:01:36Z</time>
      </trkpt>
      <trkpt lat="39.532790" lon="2.424312">
        <ele>37.207</ele>
        <time>2012-09-20T09:01:50Z</time>
      </trkpt>
      <trkpt lat="39.532803" lon="2.424276">
        <ele>36.255</ele>
        <time>2012-09-20T09:01:54Z</time>
      </trkpt>
      <trkpt lat="39.532858" lon="2.424181">
        <ele>34.336</ele>
        <time>2012-09-20T09:02:04Z</time>
      </trkpt>
      <trkpt lat="39.532934" lon="2.424075">
        <ele>31.976</ele>
        <time>2012-09-20T09:02:17Z</time>
      </trkpt>
      <trkpt lat="39.532951" lon="2.424030">
        <ele>30.979</ele>
        <time>2012-09-20T09:02:21Z</time>
      </trkpt>
      <trkpt lat="39.533009" lon="2.423932">
        <ele>29.047</ele>
        <time>2012-09-20T09:02:34Z</time>
      </trkpt>
      <trkpt lat="39.533027" lon="2.423907">
        <ele>29.041</ele>
        <time>2012-09-20T09:02:48Z</time>
      </trkpt>
      <trkpt lat="39.533042" lon="2.423848">
        <ele>28.053</ele>
        <time>2012-09-20T09:02:53Z</time>
      </trkpt>
      <trkpt lat="39.533118" lon="2.423689">
        <ele>26.616</ele>
        <time>2012-09-20T09:03:06Z</time>
      </trkpt>
      <trkpt lat="39.533137" lon="2.423653">
        <ele>25.676</ele>
        <time>2012-09-20T09:03:09Z</time>
      </trkpt>
      <trkpt lat="39.533175" lon="2.423600">
        <ele>25.113</ele>
        <time>2012-09-20T09:03:14Z</time>
      </trkpt>
      <trkpt lat="39.533192" lon="2.423582">
        <ele>24.607</ele>
        <time>2012-09-20T09:03:16Z</time>
      </trkpt>
      <trkpt lat="39.533242" lon="2.423531">
        <ele>24.234</ele>
        <time>2012-09-20T09:03:22Z</time>
      </trkpt>
      <trkpt lat="39.533299" lon="2.423516">
        <ele>23.285</ele>
        <time>2012-09-20T09:03:27Z</time>
      </trkpt>
      <trkpt lat="39.533371" lon="2.423460">
        <ele>23.795</ele>
        <time>2012-09-20T09:03:35Z</time>
      </trkpt>
      <trkpt lat="39.533465" lon="2.423393">
        <ele>23.218</ele>
        <time>2012-09-20T09:03:44Z</time>
      </trkpt>
      <trkpt lat="39.533587" lon="2.423285">
        <ele>23.226</ele>
        <time>2012-09-20T09:03:57Z</time>
      </trkpt>
      <trkpt lat="39.533740" lon="2.423177">
        <ele>23.750</ele>
        <time>2012-09-20T09:04:12Z</time>
      </trkpt>
      <trkpt lat="39.533800" lon="2.423132">
        <ele>23.782</ele>
        <time>2012-09-20T09:04:19Z</time>
      </trkpt>
      <trkpt lat="39.533845" lon="2.423102">
        <ele>23.744</ele>
        <time>2012-09-20T09:04:23Z</time>
      </trkpt>
      <trkpt lat="39.533997" lon="2.423031">
        <ele>23.705</ele>
        <time>2012-09-20T09:04:37Z</time>
      </trkpt>
      <trkpt lat="39.534111" lon="2.422990">
        <ele>23.715</ele>
        <time>2012-09-20T09:04:48Z</time>
      </trkpt>
      <trkpt lat="39.534216" lon="2.422934">
        <ele>24.207</ele>
        <time>2012-09-20T09:04:59Z</time>
      </trkpt>
      <trkpt lat="39.534377" lon="2.422882">
        <ele>24.677</ele>
        <time>2012-09-20T09:05:14Z</time>
      </trkpt>
      <trkpt lat="39.534517" lon="2.422815">
        <ele>24.668</ele>
        <time>2012-09-20T09:05:27Z</time>
      </trkpt>
      <trkpt lat="39.534578" lon="2.422789">
        <ele>25.138</ele>
        <time>2012-09-20T09:05:33Z</time>
      </trkpt>
      <trkpt lat="39.534601" lon="2.422776">
        <ele>24.671</ele>
        <time>2012-09-20T09:05:35Z</time>
      </trkpt>
      <trkpt lat="39.534735" lon="2.422774">
        <ele>24.669</ele>
        <time>2012-09-20T09:05:48Z</time>
      </trkpt>
      <trkpt lat="39.534862" lon="2.422861">
        <ele>25.143</ele>
        <time>2012-09-20T09:06:02Z</time>
      </trkpt>
      <trkpt lat="39.534872" lon="2.422867">
        <ele>25.125</ele>
        <time>2012-09-20T09:06:03Z</time>
      </trkpt>
      <trkpt lat="39.534956" lon="2.422960">
        <ele>25.144</ele>
        <time>2012-09-20T09:06:12Z</time>
      </trkpt>
      <trkpt lat="39.535037" lon="2.423122">
        <ele>25.105</ele>
        <time>2012-09-20T09:06:26Z</time>
      </trkpt>
      <trkpt lat="39.535048" lon="2.423154">
        <ele>25.115</ele>
        <time>2012-09-20T09:06:28Z</time>
      </trkpt>
      <trkpt lat="39.535130" lon="2.423318">
        <ele>25.107</ele>
        <time>2012-09-20T09:06:41Z</time>
      </trkpt>
      <trkpt lat="39.535184" lon="2.423479">
        <ele>25.637</ele>
        <time>2012-09-20T09:06:54Z</time>
      </trkpt>
      <trkpt lat="39.535187" lon="2.423530">
        <ele>25.168</ele>
        <time>2012-09-20T09:06:57Z</time>
      </trkpt>
      <trkpt lat="39.535281" lon="2.423711">
        <ele>25.138</ele>
        <time>2012-09-20T09:07:11Z</time>
      </trkpt>
      <trkpt lat="39.535374" lon="2.423839">
        <ele>25.671</ele>
        <time>2012-09-20T09:07:22Z</time>
      </trkpt>
      <trkpt lat="39.535391" lon="2.423910">
        <ele>25.689</ele>
        <time>2012-09-20T09:07:28Z</time>
      </trkpt>
      <trkpt lat="39.535423" lon="2.423983">
        <ele>25.663</ele>
        <time>2012-09-20T09:07:34Z</time>
      </trkpt>
      <trkpt lat="39.535421" lon="2.424026">
        <ele>26.115</ele>
        <time>2012-09-20T09:07:37Z</time>
      </trkpt>
      <trkpt lat="39.535467" lon="2.424157">
        <ele>26.199</ele>
        <time>2012-09-20T09:07:47Z</time>
      </trkpt>
      <trkpt lat="39.535641" lon="2.424275">
        <ele>26.607</ele>
        <time>2012-09-20T09:08:02Z</time>
      </trkpt>
      <trkpt lat="39.535716" lon="2.424314">
        <ele>26.127</ele>
        <time>2012-09-20T09:08:09Z</time>
      </trkpt>
      <trkpt lat="39.535738" lon="2.424319">
        <ele>26.607</ele>
        <time>2012-09-20T09:08:11Z</time>
      </trkpt>
      <trkpt lat="39.535858" lon="2.424403">
        <ele>27.022</ele>
        <time>2012-09-20T09:08:25Z</time>
      </trkpt>
      <trkpt lat="39.536004" lon="2.424426">
        <ele>28.573</ele>
        <time>2012-09-20T09:08:40Z</time>
      </trkpt>
      <trkpt lat="39.536131" lon="2.424441">
        <ele>29.533</ele>
        <time>2012-09-20T09:08:53Z</time>
      </trkpt>
      <trkpt lat="39.536180" lon="2.424442">
        <ele>30.456</ele>
        <time>2012-09-20T09:08:59Z</time>
      </trkpt>
      <trkpt lat="39.536305" lon="2.424465">
        <ele>31.424</ele>
        <time>2012-09-20T09:09:11Z</time>
      </trkpt>
      <trkpt lat="39.536324" lon="2.424474">
        <ele>31.428</ele>
        <time>2012-09-20T09:09:13Z</time>
      </trkpt>
      <trkpt lat="39.536431" lon="2.424604">
        <ele>30.940</ele>
        <time>2012-09-20T09:09:26Z</time>
      </trkpt>
      <trkpt lat="39.536520" lon="2.424732">
        <ele>29.596</ele>
        <time>2012-09-20T09:09:39Z</time>
      </trkpt>
      <trkpt lat="39.536531" lon="2.424761">
        <ele>29.031</ele>
        <time>2012-09-20T09:09:42Z</time>
      </trkpt>
      <trkpt lat="39.536542" lon="2.424783">
        <ele>29.024</ele>
        <time>2012-09-20T09:09:44Z</time>
      </trkpt>
      <trkpt lat="39.536599" lon="2.424917">
        <ele>28.007</ele>
        <time>2012-09-20T09:09:56Z</time>
      </trkpt>
      <trkpt lat="39.536614" lon="2.424957">
        <ele>28.022</ele>
        <time>2012-09-20T09:09:59Z</time>
      </trkpt>
      <trkpt lat="39.536699" lon="2.425073">
        <ele>26.663</ele>
        <time>2012-09-20T09:10:11Z</time>
      </trkpt>
      <trkpt lat="39.536737" lon="2.425174">
        <ele>26.623</ele>
        <time>2012-09-20T09:10:19Z</time>
      </trkpt>
      <trkpt lat="39.536752" lon="2.425193">
        <ele>25.666</ele>
        <time>2012-09-20T09:10:21Z</time>
      </trkpt>
      <trkpt lat="39.536773" lon="2.425281">
        <ele>25.144</ele>
        <time>2012-09-20T09:10:28Z</time>
      </trkpt>
      <trkpt lat="39.536870" lon="2.425384">
        <ele>24.618</ele>
        <time>2012-09-20T09:10:40Z</time>
      </trkpt>
      <trkpt lat="39.536919" lon="2.425550">
        <ele>23.250</ele>
        <time>2012-09-20T09:10:53Z</time>
      </trkpt>
      <trkpt lat="39.536995" lon="2.425538">
        <ele>23.237</ele>
        <time>2012-09-20T09:10:59Z</time>
      </trkpt>
      <trkpt lat="39.537033" lon="2.425536">
        <ele>23.249</ele>
        <time>2012-09-20T09:11:02Z</time>
      </trkpt>
      <trkpt lat="39.537116" lon="2.425505">
        <ele>22.213</ele>
        <time>2012-09-20T09:11:09Z</time>
      </trkpt>
      <trkpt lat="39.537221" lon="2.425420">
        <ele>19.807</ele>
        <time>2012-09-20T09:11:22Z</time>
      </trkpt>
      <trkpt lat="39.537339" lon="2.425311">
        <ele>17.456</ele>
        <time>2012-09-20T09:11:36Z</time>
      </trkpt>
      <trkpt lat="39.537355" lon="2.425297">
        <ele>17.447</ele>
        <time>2012-09-20T09:11:38Z</time>
      </trkpt>
      <trkpt lat="39.537401" lon="2.425264">
        <ele>16.517</ele>
        <time>2012-09-20T09:11:45Z</time>
      </trkpt>
      <trkpt lat="39.537408" lon="2.425092">
        <ele>14.630</ele>
        <time>2012-09-20T09:11:58Z</time>
      </trkpt>
      <trkpt lat="39.537383" lon="2.424945">
        <ele>13.168</ele>
        <time>2012-09-20T09:12:10Z</time>
      </trkpt>
      <trkpt lat="39.537388" lon="2.424853">
        <ele>12.162</ele>
        <time>2012-09-20T09:12:16Z</time>
      </trkpt>
      <trkpt lat="39.537386" lon="2.424676">
        <ele>12.144</ele>
        <time>2012-09-20T09:12:29Z</time>
      </trkpt>
      <trkpt lat="39.537388" lon="2.424577">
        <ele>11.278</ele>
        <time>2012-09-20T09:12:37Z</time>
      </trkpt>
      <trkpt lat="39.537390" lon="2.424548">
        <ele>10.733</ele>
        <time>2012-09-20T09:12:39Z</time>
      </trkpt>
      <trkpt lat="39.537380" lon="2.424454">
        <ele>9.326</ele>
        <time>2012-09-20T09:12:47Z</time>
      </trkpt>
      <trkpt lat="39.537379" lon="2.424314">
        <ele>7.807</ele>
        <time>2012-09-20T09:13:01Z</time>
      </trkpt>
      <trkpt lat="39.537378" lon="2.424220">
        <ele>5.920</ele>
        <time>2012-09-20T09:13:13Z</time>
      </trkpt>
      <trkpt lat="39.537332" lon="2.424129">
        <ele>10.221</ele>
        <time>2012-09-20T09:13:26Z</time>
      </trkpt>
      <trkpt lat="39.537322" lon="2.424124">
        <ele>4.521</ele>
        <time>2012-09-20T09:13:27Z</time>
      </trkpt>
      <trkpt lat="39.537309" lon="2.424112">
        <ele>8.874</ele>
        <time>2012-09-20T09:13:29Z</time>
      </trkpt>
      <trkpt lat="39.537305" lon="2.424108">
        <ele>3.552</ele>
        <time>2012-09-20T09:13:30Z</time>
      </trkpt>
      <trkpt lat="39.537305" lon="2.424101">
        <ele>6.916</ele>
        <time>2012-09-20T09:13:31Z</time>
      </trkpt>
      <trkpt lat="39.537303" lon="2.424097">
        <ele>6.478</ele>
        <time>2012-09-20T09:13:35Z</time>
      </trkpt>
      <trkpt lat="39.537305" lon="2.424092">
        <ele>5.975</ele>
        <time>2012-09-20T09:13:40Z</time>
      </trkpt>
      <trkpt lat="39.537306" lon="2.424091">
        <ele>4.028</ele>
        <time>2012-09-20T09:13:42Z</time>
      </trkpt>
      <trkpt lat="39.537302" lon="2.424087">
        <ele>7.320</ele>
        <time>2012-09-20T09:13:43Z</time>
      </trkpt>
      <trkpt lat="39.537295" lon="2.424070">
        <ele>4.907</ele>
        <time>2012-09-20T09:14:02Z</time>
      </trkpt>
      <trkpt lat="39.537290" lon="2.424072">
        <ele>4.950</ele>
        <time>2012-09-20T09:14:26Z</time>
      </trkpt>
      <trkpt lat="39.537289" lon="2.424067">
        <ele>5.481</ele>
        <time>2012-09-20T09:14:51Z</time>
      </trkpt>
      <trkpt lat="39.537290" lon="2.424069">
        <ele>4.991</ele>
        <time>2012-09-20T09:15:16Z</time>
      </trkpt>
      <trkpt lat="39.537304" lon="2.424052">
        <ele>4.934</ele>
        <time>2012-09-20T09:15:48Z</time>
      </trkpt>
      <trkpt lat="39.537303" lon="2.424051">
        <ele>4.582</ele>
        <time>2012-09-20T09:16:05Z</time>
      </trkpt>
      <trkpt lat="39.537301" lon="2.424048">
        <ele>4.966</ele>
        <time>2012-09-20T09:16:30Z</time>
      </trkpt>
      <trkpt lat="39.537300" lon="2.424041">
        <ele>4.978</ele>
        <time>2012-09-20T09:17:00Z</time>
      </trkpt>
      <trkpt lat="39.537302" lon="2.424043">
        <ele>4.944</ele>
        <time>2012-09-20T09:17:27Z</time>
      </trkpt>
      <trkpt lat="39.537303" lon="2.424044">
        <ele>5.405</ele>
        <time>2012-09-20T09:17:48Z</time>
      </trkpt>
      <trkpt lat="39.537301" lon="2.424042">
        <ele>5.915</ele>
        <time>2012-09-20T09:18:10Z</time>
      </trkpt>
      <trkpt lat="39.537302" lon="2.424043">
        <ele>4.907</ele>
        <time>2012-09-20T09:18:30Z</time>
      </trkpt>
      <trkpt lat="39.537319" lon="2.424099">
        <ele>4.987</ele>
        <time>2012-09-20T09:18:42Z</time>
      </trkpt>
      <trkpt lat="39.537338" lon="2.424256">
        <ele>5.918</ele>
        <time>2012-09-20T09:18:56Z</time>
      </trkpt>
      <trkpt lat="39.537334" lon="2.424349">
        <ele>8.378</ele>
        <time>2012-09-20T09:19:10Z</time>
      </trkpt>
      <trkpt lat="39.537334" lon="2.424397">
        <ele>9.311</ele>
        <time>2012-09-20T09:19:24Z</time>
      </trkpt>
      <trkpt lat="39.537366" lon="2.424526">
        <ele>10.749</ele>
        <time>2012-09-20T09:19:36Z</time>
      </trkpt>
      <trkpt lat="39.537367" lon="2.424536">
        <ele>10.223</ele>
        <time>2012-09-20T09:19:37Z</time>
      </trkpt>
      <trkpt lat="39.537375" lon="2.424647">
        <ele>11.255</ele>
        <time>2012-09-20T09:19:46Z</time>
      </trkpt>
      <trkpt lat="39.537369" lon="2.424706">
        <ele>11.763</ele>
        <time>2012-09-20T09:19:50Z</time>
      </trkpt>
      <trkpt lat="39.537371" lon="2.424782">
        <ele>12.644</ele>
        <time>2012-09-20T09:19:57Z</time>
      </trkpt>
      <trkpt lat="39.537377" lon="2.424847">
        <ele>12.618</ele>
        <time>2012-09-20T09:20:03Z</time>
      </trkpt>
      <trkpt lat="39.537366" lon="2.424940">
        <ele>13.607</ele>
        <time>2012-09-20T09:20:18Z</time>
      </trkpt>
      <trkpt lat="39.537369" lon="2.425068">
        <ele>14.619</ele>
        <time>2012-09-20T09:20:29Z</time>
      </trkpt>
      <trkpt lat="39.537359" lon="2.425169">
        <ele>15.040</ele>
        <time>2012-09-20T09:20:37Z</time>
      </trkpt>
      <trkpt lat="39.537337" lon="2.425284">
        <ele>17.080</ele>
        <time>2012-09-20T09:20:50Z</time>
      </trkpt>
      <trkpt lat="39.537270" lon="2.425328">
        <ele>17.933</ele>
        <time>2012-09-20T09:20:59Z</time>
      </trkpt>
      <trkpt lat="39.537172" lon="2.425395">
        <ele>20.381</ele>
        <time>2012-09-20T09:21:13Z</time>
      </trkpt>
      <trkpt lat="39.537074" lon="2.425478">
        <ele>22.245</ele>
        <time>2012-09-20T09:21:26Z</time>
      </trkpt>
      <trkpt lat="39.536943" lon="2.425491">
        <ele>23.787</ele>
        <time>2012-09-20T09:21:40Z</time>
      </trkpt>
      <trkpt lat="39.536885" lon="2.425435">
        <ele>24.297</ele>
        <time>2012-09-20T09:21:47Z</time>
      </trkpt>
      <trkpt lat="39.536821" lon="2.425362">
        <ele>24.623</ele>
        <time>2012-09-20T09:21:56Z</time>
      </trkpt>
      <trkpt lat="39.536745" lon="2.425254">
        <ele>26.125</ele>
        <time>2012-09-20T09:22:09Z</time>
      </trkpt>
      <trkpt lat="39.536732" lon="2.425238">
        <ele>25.607</ele>
        <time>2012-09-20T09:22:11Z</time>
      </trkpt>
      <trkpt lat="39.536678" lon="2.425119">
        <ele>26.612</ele>
        <time>2012-09-20T09:22:23Z</time>
      </trkpt>
      <trkpt lat="39.536626" lon="2.425010">
        <ele>27.063</ele>
        <time>2012-09-20T09:22:34Z</time>
      </trkpt>
      <trkpt lat="39.536576" lon="2.424865">
        <ele>28.073</ele>
        <time>2012-09-20T09:22:47Z</time>
      </trkpt>
      <trkpt lat="39.536554" lon="2.424825">
        <ele>29.016</ele>
        <time>2012-09-20T09:22:51Z</time>
      </trkpt>
      <trkpt lat="39.536477" lon="2.424708">
        <ele>29.934</ele>
        <time>2012-09-20T09:23:04Z</time>
      </trkpt>
      <trkpt lat="39.536388" lon="2.424608">
        <ele>30.928</ele>
        <time>2012-09-20T09:23:16Z</time>
      </trkpt>
      <trkpt lat="39.536322" lon="2.424530">
        <ele>31.920</ele>
        <time>2012-09-20T09:23:26Z</time>
      </trkpt>
      <trkpt lat="39.536215" lon="2.424494">
        <ele>31.486</ele>
        <time>2012-09-20T09:23:39Z</time>
      </trkpt>
      <trkpt lat="39.536088" lon="2.424468">
        <ele>29.060</ele>
        <time>2012-09-20T09:23:53Z</time>
      </trkpt>
      <trkpt lat="39.535987" lon="2.424436">
        <ele>29.026</ele>
        <time>2012-09-20T09:24:04Z</time>
      </trkpt>
      <trkpt lat="39.535822" lon="2.424385">
        <ele>28.007</ele>
        <time>2012-09-20T09:24:21Z</time>
      </trkpt>
      <trkpt lat="39.535730" lon="2.424316">
        <ele>27.581</ele>
        <time>2012-09-20T09:24:32Z</time>
      </trkpt>
      <trkpt lat="39.535687" lon="2.424279">
        <ele>27.082</ele>
        <time>2012-09-20T09:24:37Z</time>
      </trkpt>
      <trkpt lat="39.535648" lon="2.424242">
        <ele>27.092</ele>
        <time>2012-09-20T09:24:43Z</time>
      </trkpt>
      <trkpt lat="39.535618" lon="2.424206">
        <ele>26.665</ele>
        <time>2012-09-20T09:24:48Z</time>
      </trkpt>
      <trkpt lat="39.535586" lon="2.424189">
        <ele>27.083</ele>
        <time>2012-09-20T09:24:51Z</time>
      </trkpt>
      <trkpt lat="39.535554" lon="2.424149">
        <ele>26.637</ele>
        <time>2012-09-20T09:24:55Z</time>
      </trkpt>
      <trkpt lat="39.535540" lon="2.424118">
        <ele>27.019</ele>
        <time>2012-09-20T09:24:58Z</time>
      </trkpt>
      <trkpt lat="39.535510" lon="2.424090">
        <ele>26.671</ele>
        <time>2012-09-20T09:25:02Z</time>
      </trkpt>
      <trkpt lat="39.535492" lon="2.424081">
        <ele>26.641</ele>
        <time>2012-09-20T09:25:03Z</time>
      </trkpt>
      <trkpt lat="39.535472" lon="2.424042">
        <ele>26.615</ele>
        <time>2012-09-20T09:25:06Z</time>
      </trkpt>
      <trkpt lat="39.535372" lon="2.423944">
        <ele>26.107</ele>
        <time>2012-09-20T09:25:20Z</time>
      </trkpt>
      <trkpt lat="39.535345" lon="2.423874">
        <ele>26.120</ele>
        <time>2012-09-20T09:25:26Z</time>
      </trkpt>
      <trkpt lat="39.535281" lon="2.423720">
        <ele>25.681</ele>
        <time>2012-09-20T09:25:39Z</time>
      </trkpt>
      <trkpt lat="39.535232" lon="2.423651">
        <ele>25.641</ele>
        <time>2012-09-20T09:25:46Z</time>
      </trkpt>
      <trkpt lat="39.535187" lon="2.423623">
        <ele>26.134</ele>
        <time>2012-09-20T09:25:50Z</time>
      </trkpt>
      <trkpt lat="39.535173" lon="2.423517">
        <ele>25.612</ele>
        <time>2012-09-20T09:25:58Z</time>
      </trkpt>
      <trkpt lat="39.535177" lon="2.423502">
        <ele>26.116</ele>
        <time>2012-09-20T09:25:59Z</time>
      </trkpt>
      <trkpt lat="39.535158" lon="2.423327">
        <ele>26.158</ele>
        <time>2012-09-20T09:26:11Z</time>
      </trkpt>
      <trkpt lat="39.535142" lon="2.423280">
        <ele>26.195</ele>
        <time>2012-09-20T09:26:14Z</time>
      </trkpt>
      <trkpt lat="39.535056" lon="2.423120">
        <ele>25.649</ele>
        <time>2012-09-20T09:26:28Z</time>
      </trkpt>
      <trkpt lat="39.534965" lon="2.422988">
        <ele>25.623</ele>
        <time>2012-09-20T09:26:42Z</time>
      </trkpt>
      <trkpt lat="39.534958" lon="2.422981">
        <ele>26.107</ele>
        <time>2012-09-20T09:26:43Z</time>
      </trkpt>
      <trkpt lat="39.534920" lon="2.422943">
        <ele>25.642</ele>
        <time>2012-09-20T09:26:47Z</time>
      </trkpt>
      <trkpt lat="39.534803" lon="2.422795">
        <ele>25.653</ele>
        <time>2012-09-20T09:27:01Z</time>
      </trkpt>
      <trkpt lat="39.534678" lon="2.422706">
        <ele>26.123</ele>
        <time>2012-09-20T09:27:15Z</time>
      </trkpt>
      <trkpt lat="39.534593" lon="2.422729">
        <ele>25.186</ele>
        <time>2012-09-20T09:27:24Z</time>
      </trkpt>
      <trkpt lat="39.534563" lon="2.422746">
        <ele>25.194</ele>
        <time>2012-09-20T09:27:27Z</time>
      </trkpt>
      <trkpt lat="39.534424" lon="2.422822">
        <ele>25.188</ele>
        <time>2012-09-20T09:27:39Z</time>
      </trkpt>
      <trkpt lat="39.534278" lon="2.422881">
        <ele>25.180</ele>
        <time>2012-09-20T09:27:50Z</time>
      </trkpt>
      <trkpt lat="39.534201" lon="2.422916">
        <ele>25.157</ele>
        <time>2012-09-20T09:27:59Z</time>
      </trkpt>
      <trkpt lat="39.534075" lon="2.422943">
        <ele>25.100</ele>
        <time>2012-09-20T09:28:11Z</time>
      </trkpt>
      <trkpt lat="39.533937" lon="2.422996">
        <ele>24.620</ele>
        <time>2012-09-20T09:28:24Z</time>
      </trkpt>
      <trkpt lat="39.533879" lon="2.423016">
        <ele>24.607</ele>
        <time>2012-09-20T09:28:30Z</time>
      </trkpt>
      <trkpt lat="39.533740" lon="2.423116">
        <ele>24.648</ele>
        <time>2012-09-20T09:28:43Z</time>
      </trkpt>
      <trkpt lat="39.533629" lon="2.423214">
        <ele>24.219</ele>
        <time>2012-09-20T09:28:55Z</time>
      </trkpt>
      <trkpt lat="39.533526" lon="2.423296">
        <ele>24.619</ele>
        <time>2012-09-20T09:29:06Z</time>
      </trkpt>
      <trkpt lat="39.533425" lon="2.423380">
        <ele>24.282</ele>
        <time>2012-09-20T09:29:16Z</time>
      </trkpt>
      <trkpt lat="39.533326" lon="2.423457">
        <ele>23.750</ele>
        <time>2012-09-20T09:29:26Z</time>
      </trkpt>
      <trkpt lat="39.533210" lon="2.423580">
        <ele>25.124</ele>
        <time>2012-09-20T09:29:42Z</time>
      </trkpt>
      <trkpt lat="39.533109" lon="2.423704">
        <ele>27.586</ele>
        <time>2012-09-20T09:29:57Z</time>
      </trkpt>
      <trkpt lat="39.533037" lon="2.423870">
        <ele>29.043</ele>
        <time>2012-09-20T09:30:12Z</time>
      </trkpt>
      <trkpt lat="39.533031" lon="2.423885">
        <ele>29.564</ele>
        <time>2012-09-20T09:30:15Z</time>
      </trkpt>
      <trkpt lat="39.533029" lon="2.423983">
        <ele>31.910</ele>
        <time>2012-09-20T09:30:29Z</time>
      </trkpt>
      <trkpt lat="39.533084" lon="2.424051">
        <ele>32.807</ele>
        <time>2012-09-20T09:30:41Z</time>
      </trkpt>
      <trkpt lat="39.533126" lon="2.424084">
        <ele>35.247</ele>
        <time>2012-09-20T09:30:54Z</time>
      </trkpt>
      <trkpt lat="39.533191" lon="2.424103">
        <ele>36.718</ele>
        <time>2012-09-20T09:31:07Z</time>
      </trkpt>
      <trkpt lat="39.533211" lon="2.424127">
        <ele>38.668</ele>
        <time>2012-09-20T09:31:18Z</time>
      </trkpt>
      <trkpt lat="39.533233" lon="2.424167">
        <ele>40.591</ele>
        <time>2012-09-20T09:31:32Z</time>
      </trkpt>
      <trkpt lat="39.533275" lon="2.424273">
        <ele>42.039</ele>
        <time>2012-09-20T09:31:45Z</time>
      </trkpt>
      <trkpt lat="39.533327" lon="2.424292">
        <ele>43.423</ele>
        <time>2012-09-20T09:31:56Z</time>
      </trkpt>
      <trkpt lat="39.533356" lon="2.424344">
        <ele>45.385</ele>
        <time>2012-09-20T09:32:08Z</time>
      </trkpt>
      <trkpt lat="39.533396" lon="2.424409">
        <ele>46.839</ele>
        <time>2012-09-20T09:32:22Z</time>
      </trkpt>
      <trkpt lat="39.533372" lon="2.424455">
        <ele>48.701</ele>
        <time>2012-09-20T09:32:34Z</time>
      </trkpt>
      <trkpt lat="39.533378" lon="2.424441">
        <ele>43.921</ele>
        <time>2012-09-20T09:32:46Z</time>
      </trkpt>
      <trkpt lat="39.533379" lon="2.424440">
        <ele>52.007</ele>
        <time>2012-09-20T09:32:47Z</time>
      </trkpt>
      <trkpt lat="39.533380" lon="2.424438">
        <ele>48.236</ele>
        <time>2012-09-20T09:32:48Z</time>
      </trkpt>
      <trkpt lat="39.533387" lon="2.424428">
        <ele>47.737</ele>
        <time>2012-09-20T09:33:00Z</time>
      </trkpt>
      <trkpt lat="39.533386" lon="2.424429">
        <ele>48.797</ele>
        <time>2012-09-20T09:33:16Z</time>
      </trkpt>
      <trkpt lat="39.533377" lon="2.424444">
        <ele>50.150</ele>
        <time>2012-09-20T09:33:21Z</time>
      </trkpt>
      <trkpt lat="39.533378" lon="2.424444">
        <ele>48.768</ele>
        <time>2012-09-20T09:33:23Z</time>
      </trkpt>
      <trkpt lat="39.533365" lon="2.424499">
        <ele>49.732</ele>
        <time>2012-09-20T09:33:32Z</time>
      </trkpt>
      <trkpt lat="39.533354" lon="2.424525">
        <ele>50.164</ele>
        <time>2012-09-20T09:33:34Z</time>
      </trkpt>
      <trkpt lat="39.533260" lon="2.424697">
        <ele>53.094</ele>
        <time>2012-09-20T09:33:49Z</time>
      </trkpt>
      <trkpt lat="39.533218" lon="2.424821">
        <ele>55.957</ele>
        <time>2012-09-20T09:34:05Z</time>
      </trkpt>
      <trkpt lat="39.533211" lon="2.424843">
        <ele>56.422</ele>
        <time>2012-09-20T09:34:08Z</time>
      </trkpt>
      <trkpt lat="39.533135" lon="2.424973">
        <ele>58.807</ele>
        <time>2012-09-20T09:34:24Z</time>
      </trkpt>
      <trkpt lat="39.533117" lon="2.424988">
        <ele>58.832</ele>
        <time>2012-09-20T09:34:26Z</time>
      </trkpt>
      <trkpt lat="39.532998" lon="2.425131">
        <ele>60.273</ele>
        <time>2012-09-20T09:34:44Z</time>
      </trkpt>
      <trkpt lat="39.532878" lon="2.425248">
        <ele>60.273</ele>
        <time>2012-09-20T09:35:00Z</time>
      </trkpt>
      <trkpt lat="39.532757" lon="2.425399">
        <ele>61.276</ele>
        <time>2012-09-20T09:35:16Z</time>
      </trkpt>
      <trkpt lat="39.532671" lon="2.425492">
        <ele>61.714</ele>
        <time>2012-09-20T09:35:31Z</time>
      </trkpt>
      <trkpt lat="39.532605" lon="2.425554">
        <ele>65.028</ele>
        <time>2012-09-20T09:35:44Z</time>
      </trkpt>
      <trkpt lat="39.532538" lon="2.425674">
        <ele>66.520</ele>
        <time>2012-09-20T09:35:57Z</time>
      </trkpt>
      <trkpt lat="39.532469" lon="2.425708">
        <ele>69.874</ele>
        <time>2012-09-20T09:36:09Z</time>
      </trkpt>
      <trkpt lat="39.532442" lon="2.425747">
        <ele>71.356</ele>
        <time>2012-09-20T09:36:22Z</time>
      </trkpt>
      <trkpt lat="39.532432" lon="2.425832">
        <ele>73.721</ele>
        <time>2012-09-20T09:36:35Z</time>
      </trkpt>
      <trkpt lat="39.532375" lon="2.425924">
        <ele>76.607</ele>
        <time>2012-09-20T09:36:51Z</time>
      </trkpt>
      <trkpt lat="39.532368" lon="2.426011">
        <ele>79.010</ele>
        <time>2012-09-20T09:37:03Z</time>
      </trkpt>
      <trkpt lat="39.532324" lon="2.426152">
        <ele>81.881</ele>
        <time>2012-09-20T09:37:17Z</time>
      </trkpt>
      <trkpt lat="39.532315" lon="2.426230">
        <ele>83.871</ele>
        <time>2012-09-20T09:37:29Z</time>
      </trkpt>
      <trkpt lat="39.532251" lon="2.426275">
        <ele>85.794</ele>
        <time>2012-09-20T09:37:43Z</time>
      </trkpt>
      <trkpt lat="39.532237" lon="2.426366">
        <ele>87.172</ele>
        <time>2012-09-20T09:37:53Z</time>
      </trkpt>
      <trkpt lat="39.532245" lon="2.426460">
        <ele>86.766</ele>
        <time>2012-09-20T09:37:59Z</time>
      </trkpt>
      <trkpt lat="39.532258" lon="2.426617">
        <ele>86.788</ele>
        <time>2012-09-20T09:38:12Z</time>
      </trkpt>
      <trkpt lat="39.532261" lon="2.426750">
        <ele>85.744</ele>
        <time>2012-09-20T09:38:24Z</time>
      </trkpt>
      <trkpt lat="39.532241" lon="2.426815">
        <ele>85.205</ele>
        <time>2012-09-20T09:38:29Z</time>
      </trkpt>
      <trkpt lat="39.532194" lon="2.426974">
        <ele>83.315</ele>
        <time>2012-09-20T09:38:42Z</time>
      </trkpt>
      <trkpt lat="39.532136" lon="2.427115">
        <ele>82.307</ele>
        <time>2012-09-20T09:38:55Z</time>
      </trkpt>
      <trkpt lat="39.532081" lon="2.427220">
        <ele>80.487</ele>
        <time>2012-09-20T09:39:05Z</time>
      </trkpt>
      <trkpt lat="39.532074" lon="2.427251">
        <ele>80.998</ele>
        <time>2012-09-20T09:39:08Z</time>
      </trkpt>
      <trkpt lat="39.532073" lon="2.427353">
        <ele>79.098</ele>
        <time>2012-09-20T09:39:20Z</time>
      </trkpt>
      <trkpt lat="39.532145" lon="2.427373">
        <ele>76.611</ele>
        <time>2012-09-20T09:39:33Z</time>
      </trkpt>
      <trkpt lat="39.532204" lon="2.427445">
        <ele>74.649</ele>
        <time>2012-09-20T09:39:46Z</time>
      </trkpt>
      <trkpt lat="39.532198" lon="2.427517">
        <ele>72.753</ele>
        <time>2012-09-20T09:39:55Z</time>
      </trkpt>
      <trkpt lat="39.532189" lon="2.427623">
        <ele>70.875</ele>
        <time>2012-09-20T09:40:08Z</time>
      </trkpt>
      <trkpt lat="39.532225" lon="2.427694">
        <ele>68.982</ele>
        <time>2012-09-20T09:40:20Z</time>
      </trkpt>
      <trkpt lat="39.532222" lon="2.427779">
        <ele>66.943</ele>
        <time>2012-09-20T09:40:33Z</time>
      </trkpt>
      <trkpt lat="39.532195" lon="2.427871">
        <ele>65.517</ele>
        <time>2012-09-20T09:40:47Z</time>
      </trkpt>
      <trkpt lat="39.532154" lon="2.428012">
        <ele>62.607</ele>
        <time>2012-09-20T09:40:59Z</time>
      </trkpt>
      <trkpt lat="39.532109" lon="2.428138">
        <ele>61.281</ele>
        <time>2012-09-20T09:41:10Z</time>
      </trkpt>
      <trkpt lat="39.532073" lon="2.428237">
        <ele>59.372</ele>
        <time>2012-09-20T09:41:22Z</time>
      </trkpt>
      <trkpt lat="39.532033" lon="2.428348">
        <ele>56.972</ele>
        <time>2012-09-20T09:41:33Z</time>
      </trkpt>
      <trkpt lat="39.532049" lon="2.428471">
        <ele>55.485</ele>
        <time>2012-09-20T09:41:43Z</time>
      </trkpt>
      <trkpt lat="39.532059" lon="2.428537">
        <ele>54.063</ele>
        <time>2012-09-20T09:41:53Z</time>
      </trkpt>
      <trkpt lat="39.532065" lon="2.428566">
        <ele>54.077</ele>
        <time>2012-09-20T09:42:17Z</time>
      </trkpt>
      <trkpt lat="39.532079" lon="2.428695">
        <ele>52.579</ele>
        <time>2012-09-20T09:42:26Z</time>
      </trkpt>
      <trkpt lat="39.532101" lon="2.428748">
        <ele>52.091</ele>
        <time>2012-09-20T09:42:29Z</time>
      </trkpt>
      <trkpt lat="39.532066" lon="2.428913">
        <ele>50.181</ele>
        <time>2012-09-20T09:42:43Z</time>
      </trkpt>
      <trkpt lat="39.532069" lon="2.428921">
        <ele>49.719</ele>
        <time>2012-09-20T09:42:44Z</time>
      </trkpt>
      <trkpt lat="39.532055" lon="2.428996">
        <ele>48.707</ele>
        <time>2012-09-20T09:42:49Z</time>
      </trkpt>
      <trkpt lat="39.532024" lon="2.429057">
        <ele>48.272</ele>
        <time>2012-09-20T09:42:53Z</time>
      </trkpt>
      <trkpt lat="39.532028" lon="2.429108">
        <ele>47.763</ele>
        <time>2012-09-20T09:42:58Z</time>
      </trkpt>
      <trkpt lat="39.532038" lon="2.429166">
        <ele>47.793</ele>
        <time>2012-09-20T09:43:02Z</time>
      </trkpt>
      <trkpt lat="39.532042" lon="2.429197">
        <ele>47.766</ele>
        <time>2012-09-20T09:43:15Z</time>
      </trkpt>
      <trkpt lat="39.532035" lon="2.429178">
        <ele>47.794</ele>
        <time>2012-09-20T09:43:24Z</time>
      </trkpt>
      <trkpt lat="39.531991" lon="2.429209">
        <ele>46.378</ele>
        <time>2012-09-20T09:43:31Z</time>
      </trkpt>
      <trkpt lat="39.531971" lon="2.429252">
        <ele>45.380</ele>
        <time>2012-09-20T09:43:35Z</time>
      </trkpt>
      <trkpt lat="39.531964" lon="2.429291">
        <ele>44.493</ele>
        <time>2012-09-20T09:43:38Z</time>
      </trkpt>
      <trkpt lat="39.531937" lon="2.429470">
        <ele>43.465</ele>
        <time>2012-09-20T09:43:51Z</time>
      </trkpt>
      <trkpt lat="39.531901" lon="2.429624">
        <ele>43.421</ele>
        <time>2012-09-20T09:44:03Z</time>
      </trkpt>
      <trkpt lat="39.531887" lon="2.429711">
        <ele>43.407</ele>
        <time>2012-09-20T09:44:11Z</time>
      </trkpt>
      <trkpt lat="39.531881" lon="2.429752">
        <ele>42.962</ele>
        <time>2012-09-20T09:44:14Z</time>
      </trkpt>
      <trkpt lat="39.531815" lon="2.429906">
        <ele>41.093</ele>
        <time>2012-09-20T09:44:26Z</time>
      </trkpt>
      <trkpt lat="39.531782" lon="2.429984">
        <ele>39.543</ele>
        <time>2012-09-20T09:44:33Z</time>
      </trkpt>
      <trkpt lat="39.531730" lon="2.430077">
        <ele>38.166</ele>
        <time>2012-09-20T09:44:42Z</time>
      </trkpt>
      <trkpt lat="39.531716" lon="2.430109">
        <ele>37.664</ele>
        <time>2012-09-20T09:44:44Z</time>
      </trkpt>
      <trkpt lat="39.531659" lon="2.430267">
        <ele>36.248</ele>
        <time>2012-09-20T09:44:58Z</time>
      </trkpt>
      <trkpt lat="39.531650" lon="2.430296">
        <ele>35.230</ele>
        <time>2012-09-20T09:45:01Z</time>
      </trkpt>
      <trkpt lat="39.531647" lon="2.430353">
        <ele>34.728</ele>
        <time>2012-09-20T09:45:05Z</time>
      </trkpt>
      <trkpt lat="39.531642" lon="2.430387">
        <ele>34.389</ele>
        <time>2012-09-20T09:45:07Z</time>
      </trkpt>
      <trkpt lat="39.531615" lon="2.430493">
        <ele>32.817</ele>
        <time>2012-09-20T09:45:20Z</time>
      </trkpt>
      <trkpt lat="39.531602" lon="2.430539">
        <ele>31.907</ele>
        <time>2012-09-20T09:45:39Z</time>
      </trkpt>
      <trkpt lat="39.531584" lon="2.430575">
        <ele>28.045</ele>
        <time>2012-09-20T09:45:57Z</time>
      </trkpt>
      <trkpt lat="39.531584" lon="2.430576">
        <ele>34.316</ele>
        <time>2012-09-20T09:45:58Z</time>
      </trkpt>
      <trkpt lat="39.531584" lon="2.430577">
        <ele>29.976</ele>
        <time>2012-09-20T09:45:59Z</time>
      </trkpt>
      <trkpt lat="39.531579" lon="2.430595">
        <ele>30.989</ele>
        <time>2012-09-20T09:46:16Z</time>
      </trkpt>
      <trkpt lat="39.531629" lon="2.430708">
        <ele>30.457</ele>
        <time>2012-09-20T09:46:29Z</time>
      </trkpt>
      <trkpt lat="39.531629" lon="2.430754">
        <ele>31.431</ele>
        <time>2012-09-20T09:46:46Z</time>
      </trkpt>
      <trkpt lat="39.531676" lon="2.430811">
        <ele>31.443</ele>
        <time>2012-09-20T09:46:54Z</time>
      </trkpt>
      <trkpt lat="39.531696" lon="2.430851">
        <ele>31.933</ele>
        <time>2012-09-20T09:46:57Z</time>
      </trkpt>
      <trkpt lat="39.531814" lon="2.430928">
        <ele>32.823</ele>
        <time>2012-09-20T09:47:11Z</time>
      </trkpt>
      <trkpt lat="39.531839" lon="2.430940">
        <ele>33.315</ele>
        <time>2012-09-20T09:47:17Z</time>
      </trkpt>
      <trkpt lat="39.531867" lon="2.430949">
        <ele>33.307</ele>
        <time>2012-09-20T09:47:20Z</time>
      </trkpt>
      <trkpt lat="39.531945" lon="2.431024">
        <ele>33.896</ele>
        <time>2012-09-20T09:47:29Z</time>
      </trkpt>
      <trkpt lat="39.531953" lon="2.431052">
        <ele>33.327</ele>
        <time>2012-09-20T09:47:31Z</time>
      </trkpt>
      <trkpt lat="39.531992" lon="2.431093">
        <ele>33.897</ele>
        <time>2012-09-20T09:47:35Z</time>
      </trkpt>
      <trkpt lat="39.532072" lon="2.431178">
        <ele>33.890</ele>
        <time>2012-09-20T09:47:46Z</time>
      </trkpt>
      <trkpt lat="39.532110" lon="2.431232">
        <ele>34.758</ele>
        <time>2012-09-20T09:47:55Z</time>
      </trkpt>
      <trkpt lat="39.532175" lon="2.431278">
        <ele>35.232</ele>
        <time>2012-09-20T09:48:02Z</time>
      </trkpt>
      <trkpt lat="39.532280" lon="2.431377">
        <ele>36.224</ele>
        <time>2012-09-20T09:48:15Z</time>
      </trkpt>
      <trkpt lat="39.532381" lon="2.431462">
        <ele>37.229</ele>
        <time>2012-09-20T09:48:29Z</time>
      </trkpt>
      <trkpt lat="39.532476" lon="2.431502">
        <ele>38.100</ele>
        <time>2012-09-20T09:48:39Z</time>
      </trkpt>
      <trkpt lat="39.532508" lon="2.431522">
        <ele>38.620</ele>
        <time>2012-09-20T09:48:42Z</time>
      </trkpt>
      <trkpt lat="39.532566" lon="2.431536">
        <ele>39.107</ele>
        <time>2012-09-20T09:48:46Z</time>
      </trkpt>
      <trkpt lat="39.532633" lon="2.431584">
        <ele>35.725</ele>
        <time>2012-09-20T09:49:00Z</time>
      </trkpt>
      <trkpt lat="39.532633" lon="2.431583">
        <ele>39.166</ele>
        <time>2012-09-20T09:49:01Z</time>
      </trkpt>
      <trkpt lat="39.532632" lon="2.431583">
        <ele>41.036</ele>
        <time>2012-09-20T09:49:03Z</time>
      </trkpt>
      <trkpt lat="39.532632" lon="2.431583">
        <ele>39.149</ele>
        <time>2012-09-20T09:49:04Z</time>
      </trkpt>
      <trkpt lat="39.532660" lon="2.431623">
        <ele>39.177</ele>
        <time>2012-09-20T09:49:08Z</time>
      </trkpt>
      <trkpt lat="39.532692" lon="2.431657">
        <ele>39.191</ele>
        <time>2012-09-20T09:49:11Z</time>
      </trkpt>
      <trkpt lat="39.532848" lon="2.431799">
        <ele>39.553</ele>
        <time>2012-09-20T09:49:26Z</time>
      </trkpt>
      <trkpt lat="39.532931" lon="2.431855">
        <ele>39.541</ele>
        <time>2012-09-20T09:49:34Z</time>
      </trkpt>
      <trkpt lat="39.533065" lon="2.431911">
        <ele>39.181</ele>
        <time>2012-09-20T09:49:45Z</time>
      </trkpt>
      <trkpt lat="39.533203" lon="2.431980">
        <ele>37.609</ele>
        <time>2012-09-20T09:49:58Z</time>
      </trkpt>
      <trkpt lat="39.533211" lon="2.431986">
        <ele>37.607</ele>
        <time>2012-09-20T09:49:59Z</time>
      </trkpt>
      <trkpt lat="39.533264" lon="2.432042">
        <ele>36.777</ele>
        <time>2012-09-20T09:50:05Z</time>
      </trkpt>
      <trkpt lat="39.533425" lon="2.432082">
        <ele>35.748</ele>
        <time>2012-09-20T09:50:19Z</time>
      </trkpt>
      <trkpt lat="39.533459" lon="2.432099">
        <ele>35.238</ele>
        <time>2012-09-20T09:50:23Z</time>
      </trkpt>
      <trkpt lat="39.533485" lon="2.432162">
        <ele>34.361</ele>
        <time>2012-09-20T09:50:29Z</time>
      </trkpt>
      <trkpt lat="39.533476" lon="2.432208">
        <ele>30.499</ele>
        <time>2012-09-20T09:50:35Z</time>
      </trkpt>
      <trkpt lat="39.533477" lon="2.432208">
        <ele>32.353</ele>
        <time>2012-09-20T09:50:36Z</time>
      </trkpt>
      <trkpt lat="39.533477" lon="2.432208">
        <ele>37.275</ele>
        <time>2012-09-20T09:50:37Z</time>
      </trkpt>
      <trkpt lat="39.533477" lon="2.432208">
        <ele>33.393</ele>
        <time>2012-09-20T09:50:38Z</time>
      </trkpt>
      <trkpt lat="39.533479" lon="2.432210">
        <ele>33.365</ele>
        <time>2012-09-20T09:50:50Z</time>
      </trkpt>
      <trkpt lat="39.533481" lon="2.432239">
        <ele>33.821</ele>
        <time>2012-09-20T09:50:56Z</time>
      </trkpt>
      <trkpt lat="39.533523" lon="2.432374">
        <ele>32.807</ele>
        <time>2012-09-20T09:51:11Z</time>
      </trkpt>
      <trkpt lat="39.533528" lon="2.432403">
        <ele>32.872</ele>
        <time>2012-09-20T09:51:17Z</time>
      </trkpt>
      <trkpt lat="39.533544" lon="2.432474">
        <ele>32.323</ele>
        <time>2012-09-20T09:51:21Z</time>
      </trkpt>
      <trkpt lat="39.533561" lon="2.432487">
        <ele>31.993</ele>
        <time>2012-09-20T09:51:23Z</time>
      </trkpt>
      <trkpt lat="39.533604" lon="2.432589">
        <ele>31.466</ele>
        <time>2012-09-20T09:51:31Z</time>
      </trkpt>
      <trkpt lat="39.533624" lon="2.432665">
        <ele>30.424</ele>
        <time>2012-09-20T09:51:37Z</time>
      </trkpt>
      <trkpt lat="39.533644" lon="2.432712">
        <ele>30.938</ele>
        <time>2012-09-20T09:51:41Z</time>
      </trkpt>
      <trkpt lat="39.533663" lon="2.432771">
        <ele>30.480</ele>
        <time>2012-09-20T09:51:45Z</time>
      </trkpt>
      <trkpt lat="39.533658" lon="2.432817">
        <ele>29.984</ele>
        <time>2012-09-20T09:51:48Z</time>
      </trkpt>
      <trkpt lat="39.533645" lon="2.432875">
        <ele>29.507</ele>
        <time>2012-09-20T09:51:52Z</time>
      </trkpt>
      <trkpt lat="39.533659" lon="2.433028">
        <ele>28.517</ele>
        <time>2012-09-20T09:52:01Z</time>
      </trkpt>
      <trkpt lat="39.533669" lon="2.433152">
        <ele>28.007</ele>
        <time>2012-09-20T09:52:09Z</time>
      </trkpt>
      <trkpt lat="39.533694" lon="2.433188">
        <ele>27.511</ele>
        <time>2012-09-20T09:52:12Z</time>
      </trkpt>
      <trkpt lat="39.533727" lon="2.433250">
        <ele>27.092</ele>
        <time>2012-09-20T09:52:17Z</time>
      </trkpt>
      <trkpt lat="39.533723" lon="2.433378">
        <ele>26.692</ele>
        <time>2012-09-20T09:52:25Z</time>
      </trkpt>
      <trkpt lat="39.533716" lon="2.433421">
        <ele>26.195</ele>
        <time>2012-09-20T09:52:28Z</time>
      </trkpt>
      <trkpt lat="39.533698" lon="2.433474">
        <ele>25.673</ele>
        <time>2012-09-20T09:52:33Z</time>
      </trkpt>
      <trkpt lat="39.533692" lon="2.433493">
        <ele>26.147</ele>
        <time>2012-09-20T09:52:35Z</time>
      </trkpt>
      <trkpt lat="39.533681" lon="2.433544">
        <ele>25.629</ele>
        <time>2012-09-20T09:52:40Z</time>
      </trkpt>
      <trkpt lat="39.533672" lon="2.433600">
        <ele>25.641</ele>
        <time>2012-09-20T09:52:44Z</time>
      </trkpt>
      <trkpt lat="39.533675" lon="2.433639">
        <ele>25.181</ele>
        <time>2012-09-20T09:53:02Z</time>
      </trkpt>
      <trkpt lat="39.533684" lon="2.433672">
        <ele>25.109</ele>
        <time>2012-09-20T09:53:05Z</time>
      </trkpt>
      <trkpt lat="39.533711" lon="2.433679">
        <ele>25.107</ele>
        <time>2012-09-20T09:53:23Z</time>
      </trkpt>
      <trkpt lat="39.533713" lon="2.433682">
        <ele>25.187</ele>
        <time>2012-09-20T09:53:49Z</time>
      </trkpt>
      <trkpt lat="39.533694" lon="2.433680">
        <ele>25.188</ele>
        <time>2012-09-20T09:53:56Z</time>
      </trkpt>
      <trkpt lat="39.533654" lon="2.433719">
        <ele>25.618</ele>
        <time>2012-09-20T09:54:01Z</time>
      </trkpt>
      <trkpt lat="39.533660" lon="2.433841">
        <ele>24.681</ele>
        <time>2012-09-20T09:54:14Z</time>
      </trkpt>
      <trkpt lat="39.533649" lon="2.433851">
        <ele>25.199</ele>
        <time>2012-09-20T09:54:26Z</time>
      </trkpt>
      <trkpt lat="39.533650" lon="2.433883">
        <ele>24.683</ele>
        <time>2012-09-20T09:54:40Z</time>
      </trkpt>
      <trkpt lat="39.533653" lon="2.433925">
        <ele>24.215</ele>
        <time>2012-09-20T09:54:44Z</time>
      </trkpt>
      <trkpt lat="39.533655" lon="2.433911">
        <ele>24.674</ele>
        <time>2012-09-20T09:54:46Z</time>
      </trkpt>
      <trkpt lat="39.533648" lon="2.433856">
        <ele>24.256</ele>
        <time>2012-09-20T09:54:50Z</time>
      </trkpt>
      <trkpt lat="39.533645" lon="2.433810">
        <ele>24.621</ele>
        <time>2012-09-20T09:54:53Z</time>
      </trkpt>
      <trkpt lat="39.533634" lon="2.433776">
        <ele>24.607</ele>
        <time>2012-09-20T09:54:56Z</time>
      </trkpt>
      <trkpt lat="39.533554" lon="2.433679">
        <ele>26.610</ele>
        <time>2012-09-20T09:55:07Z</time>
      </trkpt>
      <trkpt lat="39.533481" lon="2.433628">
        <ele>27.051</ele>
        <time>2012-09-20T09:55:15Z</time>
      </trkpt>
      <trkpt lat="39.533433" lon="2.433636">
        <ele>27.551</ele>
        <time>2012-09-20T09:55:32Z</time>
      </trkpt>
      <trkpt lat="39.533351" lon="2.433607">
        <ele>29.084</ele>
        <time>2012-09-20T09:55:46Z</time>
      </trkpt>
      <trkpt lat="39.533259" lon="2.433583">
        <ele>29.522</ele>
        <time>2012-09-20T09:55:54Z</time>
      </trkpt>
      <trkpt lat="39.533143" lon="2.433606">
        <ele>30.966</ele>
        <time>2012-09-20T09:56:06Z</time>
      </trkpt>
      <trkpt lat="39.533135" lon="2.433609">
        <ele>30.948</ele>
        <time>2012-09-20T09:56:07Z</time>
      </trkpt>
      <trkpt lat="39.533073" lon="2.433619">
        <ele>32.398</ele>
        <time>2012-09-20T09:56:12Z</time>
      </trkpt>
      <trkpt lat="39.532972" lon="2.433669">
        <ele>33.315</ele>
        <time>2012-09-20T09:56:21Z</time>
      </trkpt>
      <trkpt lat="39.532909" lon="2.433661">
        <ele>33.826</ele>
        <time>2012-09-20T09:56:27Z</time>
      </trkpt>
      <trkpt lat="39.532758" lon="2.433574">
        <ele>35.707</ele>
        <time>2012-09-20T09:56:43Z</time>
      </trkpt>
      <trkpt lat="39.532730" lon="2.433544">
        <ele>36.292</ele>
        <time>2012-09-20T09:56:55Z</time>
      </trkpt>
      <trkpt lat="39.532732" lon="2.433544">
        <ele>31.943</ele>
        <time>2012-09-20T09:57:01Z</time>
      </trkpt>
      <trkpt lat="39.532732" lon="2.433544">
        <ele>40.053</ele>
        <time>2012-09-20T09:57:02Z</time>
      </trkpt>
      <trkpt lat="39.532732" lon="2.433544">
        <ele>36.716</ele>
        <time>2012-09-20T09:57:03Z</time>
      </trkpt>
      <trkpt lat="39.532682" lon="2.433513">
        <ele>36.754</ele>
        <time>2012-09-20T09:57:20Z</time>
      </trkpt>
      <trkpt lat="39.532660" lon="2.433487">
        <ele>37.648</ele>
        <time>2012-09-20T09:57:22Z</time>
      </trkpt>
      <trkpt lat="39.532575" lon="2.433400">
        <ele>38.190</ele>
        <time>2012-09-20T09:57:31Z</time>
      </trkpt>
      <trkpt lat="39.532559" lon="2.433378">
        <ele>39.168</ele>
        <time>2012-09-20T09:57:33Z</time>
      </trkpt>
      <trkpt lat="39.532436" lon="2.433256">
        <ele>41.042</ele>
        <time>2012-09-20T09:57:47Z</time>
      </trkpt>
      <trkpt lat="39.532359" lon="2.433258">
        <ele>40.526</ele>
        <time>2012-09-20T09:57:59Z</time>
      </trkpt>
      <trkpt lat="39.532363" lon="2.433263">
        <ele>41.007</ele>
        <time>2012-09-20T09:58:06Z</time>
      </trkpt>
      <trkpt lat="39.532373" lon="2.433239">
        <ele>41.089</ele>
        <time>2012-09-20T09:58:09Z</time>
      </trkpt>
      <trkpt lat="39.532325" lon="2.433180">
        <ele>40.550</ele>
        <time>2012-09-20T09:58:15Z</time>
      </trkpt>
      <trkpt lat="39.532255" lon="2.433143">
        <ele>39.510</ele>
        <time>2012-09-20T09:58:23Z</time>
      </trkpt>
      <trkpt lat="39.532170" lon="2.433078">
        <ele>38.143</ele>
        <time>2012-09-20T09:58:32Z</time>
      </trkpt>
      <trkpt lat="39.532064" lon="2.432961">
        <ele>36.241</ele>
        <time>2012-09-20T09:58:44Z</time>
      </trkpt>
      <trkpt lat="39.531953" lon="2.432891">
        <ele>34.395</ele>
        <time>2012-09-20T09:58:57Z</time>
      </trkpt>
      <trkpt lat="39.531888" lon="2.432861">
        <ele>32.827</ele>
        <time>2012-09-20T09:59:04Z</time>
      </trkpt>
      <trkpt lat="39.531743" lon="2.432836">
        <ele>31.964</ele>
        <time>2012-09-20T09:59:16Z</time>
      </trkpt>
      <trkpt lat="39.531686" lon="2.432831">
        <ele>30.906</ele>
        <time>2012-09-20T09:59:22Z</time>
      </trkpt>
      <trkpt lat="39.531517" lon="2.432886">
        <ele>30.916</ele>
        <time>2012-09-20T09:59:38Z</time>
      </trkpt>
      <trkpt lat="39.531488" lon="2.432897">
        <ele>29.907</ele>
        <time>2012-09-20T09:59:52Z</time>
      </trkpt>
      <trkpt lat="39.531468" lon="2.432932">
        <ele>30.939</ele>
        <time>2012-09-20T10:00:12Z</time>
      </trkpt>
      <trkpt lat="39.531445" lon="2.433034">
        <ele>30.960</ele>
        <time>2012-09-20T10:00:20Z</time>
      </trkpt>
      <trkpt lat="39.531407" lon="2.433167">
        <ele>29.930</ele>
        <time>2012-09-20T10:00:35Z</time>
      </trkpt>
      <trkpt lat="39.531340" lon="2.433407">
        <ele>29.553</ele>
        <time>2012-09-20T10:00:50Z</time>
      </trkpt>
      <trkpt lat="39.531323" lon="2.433460">
        <ele>29.561</ele>
        <time>2012-09-20T10:00:54Z</time>
      </trkpt>
      <trkpt lat="39.531284" lon="2.433544">
        <ele>29.075</ele>
        <time>2012-09-20T10:01:00Z</time>
      </trkpt>
      <trkpt lat="39.531259" lon="2.433626">
        <ele>29.027</ele>
        <time>2012-09-20T10:01:05Z</time>
      </trkpt>
      <trkpt lat="39.531225" lon="2.433721">
        <ele>28.065</ele>
        <time>2012-09-20T10:01:12Z</time>
      </trkpt>
      <trkpt lat="39.531180" lon="2.433995">
        <ele>27.568</ele>
        <time>2012-09-20T10:01:28Z</time>
      </trkpt>
      <trkpt lat="39.531161" lon="2.434198">
        <ele>27.014</ele>
        <time>2012-09-20T10:01:41Z</time>
      </trkpt>
      <trkpt lat="39.531155" lon="2.434367">
        <ele>25.607</ele>
        <time>2012-09-20T10:01:53Z</time>
      </trkpt>
      <trkpt lat="39.531142" lon="2.434476">
        <ele>25.129</ele>
        <time>2012-09-20T10:02:00Z</time>
      </trkpt>
      <trkpt lat="39.531127" lon="2.434670">
        <ele>24.670</ele>
        <time>2012-09-20T10:02:10Z</time>
      </trkpt>
      <trkpt lat="39.531129" lon="2.434681">
        <ele>24.690</ele>
        <time>2012-09-20T10:02:11Z</time>
      </trkpt>
      <trkpt lat="39.531113" lon="2.434889">
        <ele>23.743</ele>
        <time>2012-09-20T10:02:25Z</time>
      </trkpt>
      <trkpt lat="39.531109" lon="2.434929">
        <ele>23.771</ele>
        <time>2012-09-20T10:02:27Z</time>
      </trkpt>
      <trkpt lat="39.531128" lon="2.435064">
        <ele>23.215</ele>
        <time>2012-09-20T10:02:36Z</time>
      </trkpt>
      <trkpt lat="39.531078" lon="2.435172">
        <ele>22.737</ele>
        <time>2012-09-20T10:02:51Z</time>
      </trkpt>
      <trkpt lat="39.531078" lon="2.435166">
        <ele>23.217</ele>
        <time>2012-09-20T10:03:10Z</time>
      </trkpt>
      <trkpt lat="39.531083" lon="2.435152">
        <ele>22.287</ele>
        <time>2012-09-20T10:03:36Z</time>
      </trkpt>
      <trkpt lat="39.531084" lon="2.435143">
        <ele>22.715</ele>
        <time>2012-09-20T10:03:59Z</time>
      </trkpt>
      <trkpt lat="39.531103" lon="2.435134">
        <ele>22.207</ele>
        <time>2012-09-20T10:04:30Z</time>
      </trkpt>
      <trkpt lat="39.531096" lon="2.435133">
        <ele>22.734</ele>
        <time>2012-09-20T10:04:59Z</time>
      </trkpt>
      <trkpt lat="39.531094" lon="2.435160">
        <ele>22.785</ele>
        <time>2012-09-20T10:05:05Z</time>
      </trkpt>
      <trkpt lat="39.531103" lon="2.435218">
        <ele>22.235</ele>
        <time>2012-09-20T10:05:09Z</time>
      </trkpt>
      <trkpt lat="39.531134" lon="2.435286">
        <ele>21.838</ele>
        <time>2012-09-20T10:05:15Z</time>
      </trkpt>
      <trkpt lat="39.531130" lon="2.435338">
        <ele>21.896</ele>
        <time>2012-09-20T10:05:20Z</time>
      </trkpt>
      <trkpt lat="39.531125" lon="2.435414">
        <ele>20.860</ele>
        <time>2012-09-20T10:05:25Z</time>
      </trkpt>
      <trkpt lat="39.531127" lon="2.435565">
        <ele>19.442</ele>
        <time>2012-09-20T10:05:37Z</time>
      </trkpt>
      <trkpt lat="39.531128" lon="2.435708">
        <ele>18.473</ele>
        <time>2012-09-20T10:05:49Z</time>
      </trkpt>
      <trkpt lat="39.531122" lon="2.435759">
        <ele>17.985</ele>
        <time>2012-09-20T10:05:52Z</time>
      </trkpt>
      <trkpt lat="39.531110" lon="2.435893">
        <ele>17.013</ele>
        <time>2012-09-20T10:06:02Z</time>
      </trkpt>
      <trkpt lat="39.531104" lon="2.435954">
        <ele>16.507</ele>
        <time>2012-09-20T10:06:07Z</time>
      </trkpt>
      <trkpt lat="39.531096" lon="2.436083">
        <ele>15.590</ele>
        <time>2012-09-20T10:06:18Z</time>
      </trkpt>
      <trkpt lat="39.531090" lon="2.436129">
        <ele>15.061</ele>
        <time>2012-09-20T10:06:21Z</time>
      </trkpt>
      <trkpt lat="39.531086" lon="2.436184">
        <ele>14.691</ele>
        <time>2012-09-20T10:06:25Z</time>
      </trkpt>
      <trkpt lat="39.531082" lon="2.436231">
        <ele>15.084</ele>
        <time>2012-09-20T10:06:29Z</time>
      </trkpt>
      <trkpt lat="39.531063" lon="2.436406">
        <ele>13.122</ele>
        <time>2012-09-20T10:06:43Z</time>
      </trkpt>
      <trkpt lat="39.531055" lon="2.436446">
        <ele>12.626</ele>
        <time>2012-09-20T10:06:45Z</time>
      </trkpt>
      <trkpt lat="39.531032" lon="2.436539">
        <ele>12.188</ele>
        <time>2012-09-20T10:06:52Z</time>
      </trkpt>
      <trkpt lat="39.531033" lon="2.436589">
        <ele>11.781</ele>
        <time>2012-09-20T10:06:55Z</time>
      </trkpt>
      <trkpt lat="39.531033" lon="2.436663">
        <ele>10.761</ele>
        <time>2012-09-20T10:07:01Z</time>
      </trkpt>
      <trkpt lat="39.531016" lon="2.436724">
        <ele>10.717</ele>
        <time>2012-09-20T10:07:05Z</time>
      </trkpt>
      <trkpt lat="39.531036" lon="2.436810">
        <ele>9.807</ele>
        <time>2012-09-20T10:07:12Z</time>
      </trkpt>
      <trkpt lat="39.531039" lon="2.436837">
        <ele>9.821</ele>
        <time>2012-09-20T10:07:14Z</time>
      </trkpt>
      <trkpt lat="39.531050" lon="2.436949">
        <ele>8.862</ele>
        <time>2012-09-20T10:07:24Z</time>
      </trkpt>
      <trkpt lat="39.531048" lon="2.437047">
        <ele>7.862</ele>
        <time>2012-09-20T10:07:34Z</time>
      </trkpt>
      <trkpt lat="39.531052" lon="2.437098">
        <ele>7.345</ele>
        <time>2012-09-20T10:07:37Z</time>
      </trkpt>
      <trkpt lat="39.531054" lon="2.437166">
        <ele>7.383</ele>
        <time>2012-09-20T10:07:42Z</time>
      </trkpt>
      <trkpt lat="39.531049" lon="2.437210">
        <ele>6.947</ele>
        <time>2012-09-20T10:07:45Z</time>
      </trkpt>
      <trkpt lat="39.531037" lon="2.437260">
        <ele>6.959</ele>
        <time>2012-09-20T10:07:48Z</time>
      </trkpt>
      <trkpt lat="39.531045" lon="2.437410">
        <ele>4.587</ele>
        <time>2012-09-20T10:08:02Z</time>
      </trkpt>
      <trkpt lat="39.531048" lon="2.437448">
        <ele>5.442</ele>
        <time>2012-09-20T10:08:06Z</time>
      </trkpt>
      <trkpt lat="39.531051" lon="2.437548">
        <ele>3.526</ele>
        <time>2012-09-20T10:08:25Z</time>
      </trkpt>
      <trkpt lat="39.531062" lon="2.437628">
        <ele>3.007</ele>
        <time>2012-09-20T10:08:34Z</time>
      </trkpt>
      <trkpt lat="39.531087" lon="2.437638">
        <ele>3.091</ele>
        <time>2012-09-20T10:08:51Z</time>
      </trkpt>
      <trkpt lat="39.531085" lon="2.437637">
        <ele>2.522</ele>
        <time>2012-09-20T10:09:18Z</time>
      </trkpt>
      <trkpt lat="39.531086" lon="2.437642">
        <ele>2.562</ele>
        <time>2012-09-20T10:09:38Z</time>
      </trkpt>
      <trkpt lat="39.531093" lon="2.437646">
        <ele>2.595</ele>
        <time>2012-09-20T10:10:01Z</time>
      </trkpt>
      <trkpt lat="39.531094" lon="2.437639">
        <ele>3.043</ele>
        <time>2012-09-20T10:10:32Z</time>
      </trkpt>
      <trkpt lat="39.531099" lon="2.437635">
        <ele>3.057</ele>
        <time>2012-09-20T10:11:00Z</time>
      </trkpt>
      <trkpt lat="39.531097" lon="2.437636">
        <ele>-0.379</ele>
        <time>2012-09-20T10:11:18Z</time>
      </trkpt>
      <trkpt lat="39.531096" lon="2.437636">
        <ele>5.923</ele>
        <time>2012-09-20T10:11:19Z</time>
      </trkpt>
      <trkpt lat="39.531094" lon="2.437636">
        <ele>1.183</ele>
        <time>2012-09-20T10:11:21Z</time>
      </trkpt>
      <trkpt lat="39.531326" lon="2.437920">
        <ele>-20.541</ele>
        <time>2013-05-19T06:23:28Z</time>
      </trkpt>
      <trkpt lat="39.531357" lon="2.437934">
        <ele>-20.081</ele>
        <time>2013-05-19T06:23:42Z</time>
      </trkpt>
      <trkpt lat="39.531358" lon="2.437924">
        <ele>-16.209</ele>
        <time>2013-05-19T06:23:45Z</time>
      </trkpt>
      <trkpt lat="39.531356" lon="2.437912">
        <ele>-12.807</ele>
        <time>2013-05-19T06:23:49Z</time>
      </trkpt>
      <trkpt lat="39.531353" lon="2.437906">
        <ele>-9.028</ele>
        <time>2013-05-19T06:23:53Z</time>
      </trkpt>
      <trkpt lat="39.531350" lon="2.437900">
        <ele>-6.159</ele>
        <time>2013-05-19T06:23:56Z</time>
      </trkpt>
      <trkpt lat="39.531342" lon="2.437898">
        <ele>-5.185</ele>
        <time>2013-05-19T06:23:58Z</time>
      </trkpt>
      <trkpt lat="39.531323" lon="2.437880">
        <ele>-1.858</ele>
        <time>2013-05-19T06:24:03Z</time>
      </trkpt>
      <trkpt lat="39.531327" lon="2.437878">
        <ele>-0.822</ele>
        <time>2013-05-19T06:24:05Z</time>
      </trkpt>
      <trkpt lat="39.531332" lon="2.437868">
        <ele>2.589</ele>
        <time>2013-05-19T06:24:14Z</time>
      </trkpt>
      <trkpt lat="39.531332" lon="2.437867">
        <ele>8.894</ele>
        <time>2013-05-19T06:24:18Z</time>
      </trkpt>
      <trkpt lat="39.531331" lon="2.437867">
        <ele>3.576</ele>
        <time>2013-05-19T06:24:19Z</time>
      </trkpt>
      <trkpt lat="39.531345" lon="2.437880">
        <ele>3.590</ele>
        <time>2013-05-19T06:24:33Z</time>
      </trkpt>
      <trkpt lat="39.531368" lon="2.437857">
        <ele>3.019</ele>
        <time>2013-05-19T06:24:43Z</time>
      </trkpt>
      <trkpt lat="39.531368" lon="2.437857">
        <ele>5.907</ele>
        <time>2013-05-19T06:24:45Z</time>
      </trkpt>
      <trkpt lat="39.531368" lon="2.437857">
        <ele>3.071</ele>
        <time>2013-05-19T06:24:46Z</time>
      </trkpt>
      <trkpt lat="39.531368" lon="2.437857">
        <ele>4.042</ele>
        <time>2013-05-19T06:25:03Z</time>
      </trkpt>
      <trkpt lat="39.531368" lon="2.437857">
        <ele>3.588</ele>
        <time>2013-05-19T06:25:18Z</time>
      </trkpt>
      <trkpt lat="39.531365" lon="2.437853">
        <ele>3.571</ele>
        <time>2013-05-19T06:25:33Z</time>
      </trkpt>
      <trkpt lat="39.531364" lon="2.437853">
        <ele>4.095</ele>
        <time>2013-05-19T06:25:42Z</time>
      </trkpt>
      <trkpt lat="39.531364" lon="2.437853">
        <ele>3.582</ele>
        <time>2013-05-19T06:25:56Z</time>
      </trkpt>
      <trkpt lat="39.531364" lon="2.437853">
        <ele>4.027</ele>
        <time>2013-05-19T06:26:08Z</time>
      </trkpt>
      <trkpt lat="39.531364" lon="2.437853">
        <ele>4.059</ele>
        <time>2013-05-19T06:26:18Z</time>
      </trkpt>
      <trkpt lat="39.531364" lon="2.437853">
        <ele>4.003</ele>
        <time>2013-05-19T06:26:30Z</time>
      </trkpt>
      <trkpt lat="39.531364" lon="2.437853">
        <ele>4.023</ele>
        <time>2013-05-19T06:26:43Z</time>
      </trkpt>
      <trkpt lat="39.531332" lon="2.437794">
        <ele>4.907</ele>
        <time>2013-05-19T06:26:53Z</time>
      </trkpt>
      <trkpt lat="39.531306" lon="2.437784">
        <ele>2.139</ele>
        <time>2013-05-19T06:26:56Z</time>
      </trkpt>
      <trkpt lat="39.531262" lon="2.437780">
        <ele>2.110</ele>
        <time>2013-05-19T06:27:00Z</time>
      </trkpt>
      <trkpt lat="39.531247" lon="2.437770">
        <ele>6.446</ele>
        <time>2013-05-19T06:27:02Z</time>
      </trkpt>
      <trkpt lat="39.531238" lon="2.437770">
        <ele>2.179</ele>
        <time>2013-05-19T06:27:03Z</time>
      </trkpt>
      <trkpt lat="39.531170" lon="2.437734">
        <ele>4.553</ele>
        <time>2013-05-19T06:27:11Z</time>
      </trkpt>
      <trkpt lat="39.531114" lon="2.437700">
        <ele>5.430</ele>
        <time>2013-05-19T06:27:19Z</time>
      </trkpt>
      <trkpt lat="39.531080" lon="2.437628">
        <ele>6.465</ele>
        <time>2013-05-19T06:27:28Z</time>
      </trkpt>
      <trkpt lat="39.531077" lon="2.437618">
        <ele>3.553</ele>
        <time>2013-05-19T06:27:30Z</time>
      </trkpt>
      <trkpt lat="39.531077" lon="2.437603">
        <ele>6.404</ele>
        <time>2013-05-19T06:27:33Z</time>
      </trkpt>
      <trkpt lat="39.531033" lon="2.437520">
        <ele>6.414</ele>
        <time>2013-05-19T06:27:40Z</time>
      </trkpt>
      <trkpt lat="39.531017" lon="2.437444">
        <ele>6.907</ele>
        <time>2013-05-19T06:27:44Z</time>
      </trkpt>
      <trkpt lat="39.531020" lon="2.437305">
        <ele>7.859</ele>
        <time>2013-05-19T06:27:51Z</time>
      </trkpt>
      <trkpt lat="39.531020" lon="2.437293">
        <ele>7.810</ele>
        <time>2013-05-19T06:27:53Z</time>
      </trkpt>
      <trkpt lat="39.531034" lon="2.437206">
        <ele>9.326</ele>
        <time>2013-05-19T06:28:00Z</time>
      </trkpt>
      <trkpt lat="39.531033" lon="2.437139">
        <ele>9.859</ele>
        <time>2013-05-19T06:28:06Z</time>
      </trkpt>
      <trkpt lat="39.531033" lon="2.437122">
        <ele>9.383</ele>
        <time>2013-05-19T06:28:07Z</time>
      </trkpt>
      <trkpt lat="39.531027" lon="2.437039">
        <ele>11.240</ele>
        <time>2013-05-19T06:28:14Z</time>
      </trkpt>
      <trkpt lat="39.531025" lon="2.436971">
        <ele>11.775</ele>
        <time>2013-05-19T06:28:19Z</time>
      </trkpt>
      <trkpt lat="39.531023" lon="2.436930">
        <ele>12.258</ele>
        <time>2013-05-19T06:28:22Z</time>
      </trkpt>
      <trkpt lat="39.531031" lon="2.436864">
        <ele>12.252</ele>
        <time>2013-05-19T06:28:28Z</time>
      </trkpt>
      <trkpt lat="39.531031" lon="2.436818">
        <ele>12.617</ele>
        <time>2013-05-19T06:28:33Z</time>
      </trkpt>
      <trkpt lat="39.531030" lon="2.436750">
        <ele>13.607</ele>
        <time>2013-05-19T06:28:38Z</time>
      </trkpt>
      <trkpt lat="39.531016" lon="2.436658">
        <ele>14.179</ele>
        <time>2013-05-19T06:28:45Z</time>
      </trkpt>
      <trkpt lat="39.531015" lon="2.436647">
        <ele>14.150</ele>
        <time>2013-05-19T06:28:46Z</time>
      </trkpt>
      <trkpt lat="39.531016" lon="2.436604">
        <ele>15.036</ele>
        <time>2013-05-19T06:28:51Z</time>
      </trkpt>
      <trkpt lat="39.531022" lon="2.436540">
        <ele>16.039</ele>
        <time>2013-05-19T06:28:57Z</time>
      </trkpt>
      <trkpt lat="39.531025" lon="2.436527">
        <ele>16.083</ele>
        <time>2013-05-19T06:28:58Z</time>
      </trkpt>
      <trkpt lat="39.531038" lon="2.436454">
        <ele>16.510</ele>
        <time>2013-05-19T06:29:04Z</time>
      </trkpt>
      <trkpt lat="39.531027" lon="2.436382">
        <ele>17.085</ele>
        <time>2013-05-19T06:29:06Z</time>
      </trkpt>
      <trkpt lat="39.531028" lon="2.436265">
        <ele>17.443</ele>
        <time>2013-05-19T06:29:12Z</time>
      </trkpt>
      <trkpt lat="39.531035" lon="2.436174">
        <ele>17.464</ele>
        <time>2013-05-19T06:29:18Z</time>
      </trkpt>
      <trkpt lat="39.531048" lon="2.436096">
        <ele>17.910</ele>
        <time>2013-05-19T06:29:23Z</time>
      </trkpt>
      <trkpt lat="39.531059" lon="2.436000">
        <ele>18.407</ele>
        <time>2013-05-19T06:29:30Z</time>
      </trkpt>
      <trkpt lat="39.531056" lon="2.435934">
        <ele>19.488</ele>
        <time>2013-05-19T06:29:36Z</time>
      </trkpt>
      <trkpt lat="39.531060" lon="2.435838">
        <ele>19.849</ele>
        <time>2013-05-19T06:29:42Z</time>
      </trkpt>
      <trkpt lat="39.531076" lon="2.435779">
        <ele>20.385</ele>
        <time>2013-05-19T06:29:46Z</time>
      </trkpt>
      <trkpt lat="39.531091" lon="2.435767">
        <ele>20.838</ele>
        <time>2013-05-19T06:29:48Z</time>
      </trkpt>
      <trkpt lat="39.531099" lon="2.435660">
        <ele>21.362</ele>
        <time>2013-05-19T06:29:55Z</time>
      </trkpt>
      <trkpt lat="39.531103" lon="2.435580">
        <ele>22.769</ele>
        <time>2013-05-19T06:30:02Z</time>
      </trkpt>
      <trkpt lat="39.531106" lon="2.435561">
        <ele>23.244</ele>
        <time>2013-05-19T06:30:04Z</time>
      </trkpt>
      <trkpt lat="39.531114" lon="2.435498">
        <ele>23.257</ele>
        <time>2013-05-19T06:30:09Z</time>
      </trkpt>
      <trkpt lat="39.531114" lon="2.435417">
        <ele>24.200</ele>
        <time>2013-05-19T06:30:15Z</time>
      </trkpt>
      <trkpt lat="39.531116" lon="2.435409">
        <ele>24.220</ele>
        <time>2013-05-19T06:30:18Z</time>
      </trkpt>
      <trkpt lat="39.531100" lon="2.435291">
        <ele>25.107</ele>
        <time>2013-05-19T06:30:25Z</time>
      </trkpt>
      <trkpt lat="39.531082" lon="2.435194">
        <ele>25.119</ele>
        <time>2013-05-19T06:30:31Z</time>
      </trkpt>
      <trkpt lat="39.531070" lon="2.435122">
        <ele>25.160</ele>
        <time>2013-05-19T06:30:37Z</time>
      </trkpt>
      <trkpt lat="39.531069" lon="2.435108">
        <ele>26.146</ele>
        <time>2013-05-19T06:30:45Z</time>
      </trkpt>
      <trkpt lat="39.531069" lon="2.435108">
        <ele>26.139</ele>
        <time>2013-05-19T06:30:57Z</time>
      </trkpt>
      <trkpt lat="39.531047" lon="2.435154">
        <ele>25.663</ele>
        <time>2013-05-19T06:31:06Z</time>
      </trkpt>
      <trkpt lat="39.531039" lon="2.435168">
        <ele>25.630</ele>
        <time>2013-05-19T06:31:07Z</time>
      </trkpt>
      <trkpt lat="39.531013" lon="2.435185">
        <ele>25.145</ele>
        <time>2013-05-19T06:31:10Z</time>
      </trkpt>
      <trkpt lat="39.530969" lon="2.435199">
        <ele>25.194</ele>
        <time>2013-05-19T06:31:14Z</time>
      </trkpt>
      <trkpt lat="39.530906" lon="2.435211">
        <ele>25.657</ele>
        <time>2013-05-19T06:31:20Z</time>
      </trkpt>
      <trkpt lat="39.530882" lon="2.435218">
        <ele>25.622</ele>
        <time>2013-05-19T06:31:27Z</time>
      </trkpt>
      <trkpt lat="39.530879" lon="2.435228">
        <ele>25.607</ele>
        <time>2013-05-19T06:31:38Z</time>
      </trkpt>
      <trkpt lat="39.530879" lon="2.435228">
        <ele>24.753</ele>
        <time>2013-05-19T06:31:45Z</time>
      </trkpt>
      <trkpt lat="39.530855" lon="2.435246">
        <ele>25.124</ele>
        <time>2013-05-19T06:31:58Z</time>
      </trkpt>
      <trkpt lat="39.530853" lon="2.435261">
        <ele>24.240</ele>
        <time>2013-05-19T06:31:59Z</time>
      </trkpt>
      <trkpt lat="39.530811" lon="2.435358">
        <ele>25.123</ele>
        <time>2013-05-19T06:32:07Z</time>
      </trkpt>
      <trkpt lat="39.530756" lon="2.435422">
        <ele>24.777</ele>
        <time>2013-05-19T06:32:15Z</time>
      </trkpt>
      <trkpt lat="39.530709" lon="2.435503">
        <ele>25.154</ele>
        <time>2013-05-19T06:32:23Z</time>
      </trkpt>
      <trkpt lat="39.530620" lon="2.435589">
        <ele>24.759</ele>
        <time>2013-05-19T06:32:32Z</time>
      </trkpt>
      <trkpt lat="39.530540" lon="2.435698">
        <ele>24.794</ele>
        <time>2013-05-19T06:32:41Z</time>
      </trkpt>
      <trkpt lat="39.530459" lon="2.435806">
        <ele>25.157</ele>
        <time>2013-05-19T06:32:50Z</time>
      </trkpt>
      <trkpt lat="39.530419" lon="2.435840">
        <ele>25.122</ele>
        <time>2013-05-19T06:32:57Z</time>
      </trkpt>
      <trkpt lat="39.530398" lon="2.435822">
        <ele>25.107</ele>
        <time>2013-05-19T06:33:04Z</time>
      </trkpt>
      <trkpt lat="39.530352" lon="2.435788">
        <ele>25.163</ele>
        <time>2013-05-19T06:33:11Z</time>
      </trkpt>
      <trkpt lat="39.530273" lon="2.435744">
        <ele>24.214</ele>
        <time>2013-05-19T06:33:17Z</time>
      </trkpt>
      <trkpt lat="39.530260" lon="2.435734">
        <ele>24.250</ele>
        <time>2013-05-19T06:33:18Z</time>
      </trkpt>
      <trkpt lat="39.530136" lon="2.435683">
        <ele>24.233</ele>
        <time>2013-05-19T06:33:27Z</time>
      </trkpt>
      <trkpt lat="39.530023" lon="2.435680">
        <ele>25.627</ele>
        <time>2013-05-19T06:33:35Z</time>
      </trkpt>
      <trkpt lat="39.529923" lon="2.435660">
        <ele>25.624</ele>
        <time>2013-05-19T06:33:44Z</time>
      </trkpt>
      <trkpt lat="39.529853" lon="2.435662">
        <ele>26.659</ele>
        <time>2013-05-19T06:33:51Z</time>
      </trkpt>
      <trkpt lat="39.529795" lon="2.435670">
        <ele>26.668</ele>
        <time>2013-05-19T06:33:56Z</time>
      </trkpt>
      <trkpt lat="39.529739" lon="2.435676">
        <ele>25.142</ele>
        <time>2013-05-19T06:34:01Z</time>
      </trkpt>
      <trkpt lat="39.529620" lon="2.435677">
        <ele>27.126</ele>
        <time>2013-05-19T06:34:11Z</time>
      </trkpt>
      <trkpt lat="39.529582" lon="2.435686">
        <ele>27.507</ele>
        <time>2013-05-19T06:34:14Z</time>
      </trkpt>
      <trkpt lat="39.529467" lon="2.435738">
        <ele>28.040</ele>
        <time>2013-05-19T06:34:23Z</time>
      </trkpt>
      <trkpt lat="39.529419" lon="2.435749">
        <ele>28.031</ele>
        <time>2013-05-19T06:34:27Z</time>
      </trkpt>
      <trkpt lat="39.529383" lon="2.435751">
        <ele>28.097</ele>
        <time>2013-05-19T06:34:30Z</time>
      </trkpt>
      <trkpt lat="39.529304" lon="2.435765">
        <ele>28.090</ele>
        <time>2013-05-19T06:34:37Z</time>
      </trkpt>
      <trkpt lat="39.529265" lon="2.435761">
        <ele>28.584</ele>
        <time>2013-05-19T06:34:40Z</time>
      </trkpt>
      <trkpt lat="39.529229" lon="2.435747">
        <ele>29.091</ele>
        <time>2013-05-19T06:34:43Z</time>
      </trkpt>
      <trkpt lat="39.529195" lon="2.435730">
        <ele>29.066</ele>
        <time>2013-05-19T06:34:46Z</time>
      </trkpt>
      <trkpt lat="39.529134" lon="2.435683">
        <ele>29.578</ele>
        <time>2013-05-19T06:34:52Z</time>
      </trkpt>
      <trkpt lat="39.529116" lon="2.435663">
        <ele>29.933</ele>
        <time>2013-05-19T06:34:54Z</time>
      </trkpt>
      <trkpt lat="39.529070" lon="2.435595">
        <ele>30.426</ele>
        <time>2013-05-19T06:35:00Z</time>
      </trkpt>
      <trkpt lat="39.529040" lon="2.435536">
        <ele>30.907</ele>
        <time>2013-05-19T06:35:05Z</time>
      </trkpt>
      <trkpt lat="39.528967" lon="2.435445">
        <ele>30.991</ele>
        <time>2013-05-19T06:35:14Z</time>
      </trkpt>
      <trkpt lat="39.528874" lon="2.435368">
        <ele>30.482</ele>
        <time>2013-05-19T06:35:22Z</time>
      </trkpt>
      <trkpt lat="39.528796" lon="2.435325">
        <ele>30.918</ele>
        <time>2013-05-19T06:35:29Z</time>
      </trkpt>
      <trkpt lat="39.528762" lon="2.435298">
        <ele>30.981</ele>
        <time>2013-05-19T06:35:32Z</time>
      </trkpt>
      <trkpt lat="39.528699" lon="2.435266">
        <ele>30.455</ele>
        <time>2013-05-19T06:35:39Z</time>
      </trkpt>
      <trkpt lat="39.528665" lon="2.435370">
        <ele>32.872</ele>
        <time>2013-05-19T06:35:49Z</time>
      </trkpt>
      <trkpt lat="39.528631" lon="2.435478">
        <ele>34.717</ele>
        <time>2013-05-19T06:35:59Z</time>
      </trkpt>
      <trkpt lat="39.528588" lon="2.435534">
        <ele>36.227</ele>
        <time>2013-05-19T06:36:06Z</time>
      </trkpt>
      <trkpt lat="39.528568" lon="2.435604">
        <ele>37.268</ele>
        <time>2013-05-19T06:36:13Z</time>
      </trkpt>
      <trkpt lat="39.528575" lon="2.435663">
        <ele>38.114</ele>
        <time>2013-05-19T06:36:18Z</time>
      </trkpt>
      <trkpt lat="39.528571" lon="2.435674">
        <ele>38.107</ele>
        <time>2013-05-19T06:36:19Z</time>
      </trkpt>
      <trkpt lat="39.528536" lon="2.435759">
        <ele>39.136</ele>
        <time>2013-05-19T06:36:27Z</time>
      </trkpt>
      <trkpt lat="39.528470" lon="2.435774">
        <ele>40.097</ele>
        <time>2013-05-19T06:36:35Z</time>
      </trkpt>
      <trkpt lat="39.528428" lon="2.435768">
        <ele>40.513</ele>
        <time>2013-05-19T06:36:42Z</time>
      </trkpt>
      <trkpt lat="39.528407" lon="2.435732">
        <ele>40.066</ele>
        <time>2013-05-19T06:36:48Z</time>
      </trkpt>
      <trkpt lat="39.528389" lon="2.435696">
        <ele>40.550</ele>
        <time>2013-05-19T06:36:54Z</time>
      </trkpt>
      <trkpt lat="39.528316" lon="2.435647">
        <ele>39.647</ele>
        <time>2013-05-19T06:37:02Z</time>
      </trkpt>
      <trkpt lat="39.528285" lon="2.435638">
        <ele>40.522</ele>
        <time>2013-05-19T06:37:08Z</time>
      </trkpt>
      <trkpt lat="39.528235" lon="2.435650">
        <ele>40.064</ele>
        <time>2013-05-19T06:37:15Z</time>
      </trkpt>
      <trkpt lat="39.528211" lon="2.435650">
        <ele>40.506</ele>
        <time>2013-05-19T06:37:18Z</time>
      </trkpt>
      <trkpt lat="39.528159" lon="2.435626">
        <ele>40.516</ele>
        <time>2013-05-19T06:37:25Z</time>
      </trkpt>
      <trkpt lat="39.528097" lon="2.435595">
        <ele>40.007</ele>
        <time>2013-05-19T06:37:33Z</time>
      </trkpt>
      <trkpt lat="39.528049" lon="2.435559">
        <ele>39.640</ele>
        <time>2013-05-19T06:37:41Z</time>
      </trkpt>
      <trkpt lat="39.528051" lon="2.435564">
        <ele>40.061</ele>
        <time>2013-05-19T06:37:50Z</time>
      </trkpt>
      <trkpt lat="39.528052" lon="2.435533">
        <ele>39.677</ele>
        <time>2013-05-19T06:37:58Z</time>
      </trkpt>
      <trkpt lat="39.528051" lon="2.435525">
        <ele>39.610</ele>
        <time>2013-05-19T06:37:59Z</time>
      </trkpt>
      <trkpt lat="39.528004" lon="2.435462">
        <ele>40.564</ele>
        <time>2013-05-19T06:38:07Z</time>
      </trkpt>
      <trkpt lat="39.527960" lon="2.435394">
        <ele>40.021</ele>
        <time>2013-05-19T06:38:15Z</time>
      </trkpt>
      <trkpt lat="39.527920" lon="2.435360">
        <ele>39.646</ele>
        <time>2013-05-19T06:38:19Z</time>
      </trkpt>
      <trkpt lat="39.527876" lon="2.435288">
        <ele>39.125</ele>
        <time>2013-05-19T06:38:26Z</time>
      </trkpt>
      <trkpt lat="39.527878" lon="2.435259">
        <ele>38.626</ele>
        <time>2013-05-19T06:38:29Z</time>
      </trkpt>
      <trkpt lat="39.527884" lon="2.435198">
        <ele>39.108</ele>
        <time>2013-05-19T06:38:36Z</time>
      </trkpt>
      <trkpt lat="39.527888" lon="2.435112">
        <ele>38.107</ele>
        <time>2013-05-19T06:38:44Z</time>
      </trkpt>
      <trkpt lat="39.527890" lon="2.435089">
        <ele>38.696</ele>
        <time>2013-05-19T06:38:46Z</time>
      </trkpt>
      <trkpt lat="39.527869" lon="2.435013">
        <ele>38.677</ele>
        <time>2013-05-19T06:38:53Z</time>
      </trkpt>
      <trkpt lat="39.527874" lon="2.434934">
        <ele>38.693</ele>
        <time>2013-05-19T06:39:01Z</time>
      </trkpt>
      <trkpt lat="39.527878" lon="2.434898">
        <ele>38.666</ele>
        <time>2013-05-19T06:39:08Z</time>
      </trkpt>
      <trkpt lat="39.527883" lon="2.434848">
        <ele>38.680</ele>
        <time>2013-05-19T06:39:14Z</time>
      </trkpt>
      <trkpt lat="39.527858" lon="2.434806">
        <ele>39.157</ele>
        <time>2013-05-19T06:39:19Z</time>
      </trkpt>
      <trkpt lat="39.527814" lon="2.434776">
        <ele>38.172</ele>
        <time>2013-05-19T06:39:25Z</time>
      </trkpt>
      <trkpt lat="39.527814" lon="2.434776">
        <ele>38.172</ele>
        <time>2013-05-19T06:39:32Z</time>
      </trkpt>
      <trkpt lat="39.527814" lon="2.434776">
        <ele>38.113</ele>
        <time>2013-05-19T06:39:33Z</time>
      </trkpt>
      <trkpt lat="39.527777" lon="2.434687">
        <ele>36.714</ele>
        <time>2013-05-19T06:39:41Z</time>
      </trkpt>
      <trkpt lat="39.527776" lon="2.434669">
        <ele>37.207</ele>
        <time>2013-05-19T06:39:47Z</time>
      </trkpt>
      <trkpt lat="39.527797" lon="2.434606">
        <ele>36.781</ele>
        <time>2013-05-19T06:39:53Z</time>
      </trkpt>
      <trkpt lat="39.527800" lon="2.434597">
        <ele>36.262</ele>
        <time>2013-05-19T06:39:55Z</time>
      </trkpt>
      <trkpt lat="39.527809" lon="2.434531">
        <ele>38.188</ele>
        <time>2013-05-19T06:40:01Z</time>
      </trkpt>
      <trkpt lat="39.527822" lon="2.434493">
        <ele>39.191</ele>
        <time>2013-05-19T06:40:05Z</time>
      </trkpt>
      <trkpt lat="39.527828" lon="2.434420">
        <ele>38.625</ele>
        <time>2013-05-19T06:40:12Z</time>
      </trkpt>
      <trkpt lat="39.527842" lon="2.434329">
        <ele>39.622</ele>
        <time>2013-05-19T06:40:19Z</time>
      </trkpt>
      <trkpt lat="39.527827" lon="2.434278">
        <ele>39.197</ele>
        <time>2013-05-19T06:40:26Z</time>
      </trkpt>
      <trkpt lat="39.527780" lon="2.434217">
        <ele>39.617</ele>
        <time>2013-05-19T06:40:33Z</time>
      </trkpt>
      <trkpt lat="39.527773" lon="2.434205">
        <ele>40.087</ele>
        <time>2013-05-19T06:40:39Z</time>
      </trkpt>
      <trkpt lat="39.527773" lon="2.434205">
        <ele>39.115</ele>
        <time>2013-05-19T06:40:46Z</time>
      </trkpt>
      <trkpt lat="39.527782" lon="2.434201">
        <ele>39.607</ele>
        <time>2013-05-19T06:40:51Z</time>
      </trkpt>
      <trkpt lat="39.527801" lon="2.434126">
        <ele>39.645</ele>
        <time>2013-05-19T06:40:59Z</time>
      </trkpt>
      <trkpt lat="39.527792" lon="2.434067">
        <ele>39.166</ele>
        <time>2013-05-19T06:41:06Z</time>
      </trkpt>
      <trkpt lat="39.527793" lon="2.434053">
        <ele>39.122</ele>
        <time>2013-05-19T06:41:07Z</time>
      </trkpt>
      <trkpt lat="39.527778" lon="2.433981">
        <ele>40.035</ele>
        <time>2013-05-19T06:41:12Z</time>
      </trkpt>
      <trkpt lat="39.527768" lon="2.433862">
        <ele>40.029</ele>
        <time>2013-05-19T06:41:20Z</time>
      </trkpt>
      <trkpt lat="39.527758" lon="2.433799">
        <ele>40.026</ele>
        <time>2013-05-19T06:41:26Z</time>
      </trkpt>
      <trkpt lat="39.527736" lon="2.433747">
        <ele>40.511</ele>
        <time>2013-05-19T06:41:32Z</time>
      </trkpt>
      <trkpt lat="39.527738" lon="2.433727">
        <ele>40.575</ele>
        <time>2013-05-19T06:41:39Z</time>
      </trkpt>
      <trkpt lat="39.527740" lon="2.433665">
        <ele>41.528</ele>
        <time>2013-05-19T06:41:43Z</time>
      </trkpt>
      <trkpt lat="39.527755" lon="2.433561">
        <ele>41.520</ele>
        <time>2013-05-19T06:41:49Z</time>
      </trkpt>
      <trkpt lat="39.527752" lon="2.433488">
        <ele>41.007</ele>
        <time>2013-05-19T06:41:56Z</time>
      </trkpt>
      <trkpt lat="39.527757" lon="2.433453">
        <ele>41.561</ele>
        <time>2013-05-19T06:42:01Z</time>
      </trkpt>
      <trkpt lat="39.527757" lon="2.433441">
        <ele>41.542</ele>
        <time>2013-05-19T06:42:03Z</time>
      </trkpt>
      <trkpt lat="39.527749" lon="2.433413">
        <ele>40.528</ele>
        <time>2013-05-19T06:42:05Z</time>
      </trkpt>
      <trkpt lat="39.527702" lon="2.433359">
        <ele>40.561</ele>
        <time>2013-05-19T06:42:11Z</time>
      </trkpt>
      <trkpt lat="39.527685" lon="2.433339">
        <ele>39.685</ele>
        <time>2013-05-19T06:42:18Z</time>
      </trkpt>
      <trkpt lat="39.527694" lon="2.433293">
        <ele>38.652</ele>
        <time>2013-05-19T06:42:27Z</time>
      </trkpt>
      <trkpt lat="39.527695" lon="2.433283">
        <ele>39.117</ele>
        <time>2013-05-19T06:42:33Z</time>
      </trkpt>
      <trkpt lat="39.527710" lon="2.433248">
        <ele>38.662</ele>
        <time>2013-05-19T06:42:39Z</time>
      </trkpt>
      <trkpt lat="39.527710" lon="2.433248">
        <ele>37.283</ele>
        <time>2013-05-19T06:42:43Z</time>
      </trkpt>
      <trkpt lat="39.527688" lon="2.433177">
        <ele>37.211</ele>
        <time>2013-05-19T06:42:49Z</time>
      </trkpt>
      <trkpt lat="39.527681" lon="2.433116">
        <ele>36.707</ele>
        <time>2013-05-19T06:42:55Z</time>
      </trkpt>
      <trkpt lat="39.527687" lon="2.433083">
        <ele>35.750</ele>
        <time>2013-05-19T06:42:57Z</time>
      </trkpt>
      <trkpt lat="39.527719" lon="2.432984">
        <ele>35.791</ele>
        <time>2013-05-19T06:43:05Z</time>
      </trkpt>
      <trkpt lat="39.527723" lon="2.432931">
        <ele>35.717</ele>
        <time>2013-05-19T06:43:11Z</time>
      </trkpt>
      <trkpt lat="39.527720" lon="2.432914">
        <ele>36.240</ele>
        <time>2013-05-19T06:43:17Z</time>
      </trkpt>
      <trkpt lat="39.527707" lon="2.432873">
        <ele>35.294</ele>
        <time>2013-05-19T06:43:24Z</time>
      </trkpt>
      <trkpt lat="39.527701" lon="2.432799">
        <ele>35.221</ele>
        <time>2013-05-19T06:43:30Z</time>
      </trkpt>
      <trkpt lat="39.527683" lon="2.432726">
        <ele>33.836</ele>
        <time>2013-05-19T06:43:36Z</time>
      </trkpt>
      <trkpt lat="39.527695" lon="2.432682">
        <ele>32.867</ele>
        <time>2013-05-19T06:43:44Z</time>
      </trkpt>
      <trkpt lat="39.527680" lon="2.432650">
        <ele>33.881</ele>
        <time>2013-05-19T06:43:51Z</time>
      </trkpt>
      <trkpt lat="39.527716" lon="2.432596">
        <ele>34.319</ele>
        <time>2013-05-19T06:43:58Z</time>
      </trkpt>
      <trkpt lat="39.527737" lon="2.432562">
        <ele>33.807</ele>
        <time>2013-05-19T06:44:03Z</time>
      </trkpt>
      <trkpt lat="39.527734" lon="2.432544">
        <ele>32.860</ele>
        <time>2013-05-19T06:44:08Z</time>
      </trkpt>
      <trkpt lat="39.527765" lon="2.432595">
        <ele>34.351</ele>
        <time>2013-05-19T06:44:16Z</time>
      </trkpt>
      <trkpt lat="39.527784" lon="2.432649">
        <ele>35.737</ele>
        <time>2013-05-19T06:44:23Z</time>
      </trkpt>
      <trkpt lat="39.527811" lon="2.432686">
        <ele>36.790</ele>
        <time>2013-05-19T06:44:31Z</time>
      </trkpt>
      <trkpt lat="39.527888" lon="2.432738">
        <ele>36.224</ele>
        <time>2013-05-19T06:44:37Z</time>
      </trkpt>
      <trkpt lat="39.527918" lon="2.432793">
        <ele>35.721</ele>
        <time>2013-05-19T06:44:43Z</time>
      </trkpt>
      <trkpt lat="39.527969" lon="2.432830">
        <ele>35.286</ele>
        <time>2013-05-19T06:44:51Z</time>
      </trkpt>
      <trkpt lat="39.527994" lon="2.432854">
        <ele>34.728</ele>
        <time>2013-05-19T06:44:57Z</time>
      </trkpt>
      <trkpt lat="39.528049" lon="2.432829">
        <ele>34.389</ele>
        <time>2013-05-19T06:45:04Z</time>
      </trkpt>
      <trkpt lat="39.528081" lon="2.432755">
        <ele>32.317</ele>
        <time>2013-05-19T06:45:11Z</time>
      </trkpt>
      <trkpt lat="39.528088" lon="2.432743">
        <ele>32.307</ele>
        <time>2013-05-19T06:45:12Z</time>
      </trkpt>
      <trkpt lat="39.528117" lon="2.432688">
        <ele>31.936</ele>
        <time>2013-05-19T06:45:19Z</time>
      </trkpt>
      <trkpt lat="39.528152" lon="2.432626">
        <ele>30.487</ele>
        <time>2013-05-19T06:45:26Z</time>
      </trkpt>
      <trkpt lat="39.528157" lon="2.432617">
        <ele>30.473</ele>
        <time>2013-05-19T06:45:27Z</time>
      </trkpt>
      <trkpt lat="39.528215" lon="2.432572">
        <ele>29.556</ele>
        <time>2013-05-19T06:45:34Z</time>
      </trkpt>
      <trkpt lat="39.528240" lon="2.432566">
        <ele>28.010</ele>
        <time>2013-05-19T06:45:40Z</time>
      </trkpt>
      <trkpt lat="39.528290" lon="2.432528">
        <ele>27.597</ele>
        <time>2013-05-19T06:45:45Z</time>
      </trkpt>
      <trkpt lat="39.528322" lon="2.432472">
        <ele>28.042</ele>
        <time>2013-05-19T06:45:51Z</time>
      </trkpt>
      <trkpt lat="39.528364" lon="2.432430">
        <ele>27.514</ele>
        <time>2013-05-19T06:45:58Z</time>
      </trkpt>
      <trkpt lat="39.528379" lon="2.432415">
        <ele>27.154</ele>
        <time>2013-05-19T06:46:07Z</time>
      </trkpt>
      <trkpt lat="39.528391" lon="2.432405">
        <ele>25.609</ele>
        <time>2013-05-19T06:46:13Z</time>
      </trkpt>
      <trkpt lat="39.528388" lon="2.432358">
        <ele>24.707</ele>
        <time>2013-05-19T06:46:20Z</time>
      </trkpt>
      <trkpt lat="39.528396" lon="2.432316">
        <ele>24.255</ele>
        <time>2013-05-19T06:46:26Z</time>
      </trkpt>
      <trkpt lat="39.528387" lon="2.432304">
        <ele>23.736</ele>
        <time>2013-05-19T06:46:31Z</time>
      </trkpt>
      <trkpt lat="39.528387" lon="2.432299">
        <ele>23.242</ele>
        <time>2013-05-19T06:46:38Z</time>
      </trkpt>
      <trkpt lat="39.528391" lon="2.432300">
        <ele>22.775</ele>
        <time>2013-05-19T06:46:47Z</time>
      </trkpt>
      <trkpt lat="39.528402" lon="2.432276">
        <ele>22.749</ele>
        <time>2013-05-19T06:46:53Z</time>
      </trkpt>
      <trkpt lat="39.528418" lon="2.432233">
        <ele>21.876</ele>
        <time>2013-05-19T06:47:00Z</time>
      </trkpt>
      <trkpt lat="39.528434" lon="2.432233">
        <ele>22.331</ele>
        <time>2013-05-19T06:47:05Z</time>
      </trkpt>
      <trkpt lat="39.528472" lon="2.432245">
        <ele>20.388</ele>
        <time>2013-05-19T06:47:12Z</time>
      </trkpt>
      <trkpt lat="39.528516" lon="2.432253">
        <ele>19.824</ele>
        <time>2013-05-19T06:47:19Z</time>
      </trkpt>
      <trkpt lat="39.528552" lon="2.432263">
        <ele>19.426</ele>
        <time>2013-05-19T06:47:27Z</time>
      </trkpt>
      <trkpt lat="39.528597" lon="2.432255">
        <ele>17.407</ele>
        <time>2013-05-19T06:47:34Z</time>
      </trkpt>
      <trkpt lat="39.528597" lon="2.432255">
        <ele>17.092</ele>
        <time>2013-05-19T06:47:40Z</time>
      </trkpt>
      <trkpt lat="39.528597" lon="2.432255">
        <ele>15.533</ele>
        <time>2013-05-19T06:47:47Z</time>
      </trkpt>
      <trkpt lat="39.528597" lon="2.432255">
        <ele>14.679</ele>
        <time>2013-05-19T06:47:55Z</time>
      </trkpt>
      <trkpt lat="39.528597" lon="2.432255">
        <ele>13.182</ele>
        <time>2013-05-19T06:48:02Z</time>
      </trkpt>
      <trkpt lat="39.528597" lon="2.432255">
        <ele>12.656</ele>
        <time>2013-05-19T06:48:08Z</time>
      </trkpt>
      <trkpt lat="39.528647" lon="2.432268">
        <ele>11.263</ele>
        <time>2013-05-19T06:48:14Z</time>
      </trkpt>
      <trkpt lat="39.528647" lon="2.432268">
        <ele>9.878</ele>
        <time>2013-05-19T06:48:22Z</time>
      </trkpt>
      <trkpt lat="39.528670" lon="2.432283">
        <ele>8.894</ele>
        <time>2013-05-19T06:48:28Z</time>
      </trkpt>
      <trkpt lat="39.528736" lon="2.432315">
        <ele>7.857</ele>
        <time>2013-05-19T06:48:35Z</time>
      </trkpt>
      <trkpt lat="39.528755" lon="2.432318">
        <ele>6.422</ele>
        <time>2013-05-19T06:48:44Z</time>
      </trkpt>
      <trkpt lat="39.528900" lon="2.432300">
        <ele>4.907</ele>
        <time>2013-05-19T06:48:52Z</time>
      </trkpt>
      <trkpt lat="39.528922" lon="2.432294">
        <ele>2.173</ele>
        <time>2013-05-19T06:49:01Z</time>
      </trkpt>
      <trkpt lat="39.528922" lon="2.432294">
        <ele>3.044</ele>
        <time>2013-05-19T06:49:08Z</time>
      </trkpt>
      <trkpt lat="39.528968" lon="2.432261">
        <ele>3.540</ele>
        <time>2013-05-19T06:49:14Z</time>
      </trkpt>
      <trkpt lat="39.529004" lon="2.432223">
        <ele>6.443</ele>
        <time>2013-05-19T06:49:21Z</time>
      </trkpt>
      <trkpt lat="39.529054" lon="2.432151">
        <ele>6.467</ele>
        <time>2013-05-19T06:49:29Z</time>
      </trkpt>
      <trkpt lat="39.529057" lon="2.432127">
        <ele>7.844</ele>
        <time>2013-05-19T06:49:32Z</time>
      </trkpt>
      <trkpt lat="39.529093" lon="2.432073">
        <ele>8.839</ele>
        <time>2013-05-19T06:49:38Z</time>
      </trkpt>
      <trkpt lat="39.529093" lon="2.432073">
        <ele>8.872</ele>
        <time>2013-05-19T06:49:47Z</time>
      </trkpt>
      <trkpt lat="39.529133" lon="2.431983">
        <ele>7.813</ele>
        <time>2013-05-19T06:49:53Z</time>
      </trkpt>
      <trkpt lat="39.529149" lon="2.431928">
        <ele>7.814</ele>
        <time>2013-05-19T06:49:55Z</time>
      </trkpt>
      <trkpt lat="39.529171" lon="2.431858">
        <ele>7.407</ele>
        <time>2013-05-19T06:50:01Z</time>
      </trkpt>
      <trkpt lat="39.529222" lon="2.431777">
        <ele>7.811</ele>
        <time>2013-05-19T06:50:07Z</time>
      </trkpt>
      <trkpt lat="39.529229" lon="2.431746">
        <ele>6.952</ele>
        <time>2013-05-19T06:50:12Z</time>
      </trkpt>
      <trkpt lat="39.529265" lon="2.431703">
        <ele>6.938</ele>
        <time>2013-05-19T06:50:17Z</time>
      </trkpt>
      <trkpt lat="39.529269" lon="2.431693">
        <ele>6.951</ele>
        <time>2013-05-19T06:50:24Z</time>
      </trkpt>
      <trkpt lat="39.529302" lon="2.431683">
        <ele>6.995</ele>
        <time>2013-05-19T06:50:32Z</time>
      </trkpt>
      <trkpt lat="39.529302" lon="2.431683">
        <ele>6.432</ele>
        <time>2013-05-19T06:50:45Z</time>
      </trkpt>
      <trkpt lat="39.529302" lon="2.431657">
        <ele>6.957</ele>
        <time>2013-05-19T06:50:53Z</time>
      </trkpt>
      <trkpt lat="39.529302" lon="2.431657">
        <ele>6.455</ele>
        <time>2013-05-19T06:51:04Z</time>
      </trkpt>
      <trkpt lat="39.529302" lon="2.431657">
        <ele>6.407</ele>
        <time>2013-05-19T06:51:18Z</time>
      </trkpt>
      <trkpt lat="39.529305" lon="2.431648">
        <ele>5.417</ele>
        <time>2013-05-19T06:51:24Z</time>
      </trkpt>
      <trkpt lat="39.529305" lon="2.431648">
        <ele>6.407</ele>
        <time>2013-05-19T06:51:39Z</time>
      </trkpt>
      <trkpt lat="39.529305" lon="2.431648">
        <ele>6.969</ele>
        <time>2013-05-19T06:51:51Z</time>
      </trkpt>
      <trkpt lat="39.529300" lon="2.431631">
        <ele>4.940</ele>
        <time>2013-05-19T06:52:07Z</time>
      </trkpt>
      <trkpt lat="39.529310" lon="2.431605">
        <ele>5.936</ele>
        <time>2013-05-19T06:52:18Z</time>
      </trkpt>
      <trkpt lat="39.529350" lon="2.431523">
        <ele>6.419</ele>
        <time>2013-05-19T06:52:23Z</time>
      </trkpt>
      <trkpt lat="39.529385" lon="2.431472">
        <ele>6.983</ele>
        <time>2013-05-19T06:52:30Z</time>
      </trkpt>
      <trkpt lat="39.529417" lon="2.431441">
        <ele>6.460</ele>
        <time>2013-05-19T06:52:35Z</time>
      </trkpt>
      <trkpt lat="39.529466" lon="2.431405">
        <ele>4.535</ele>
        <time>2013-05-19T06:52:42Z</time>
      </trkpt>
      <trkpt lat="39.529481" lon="2.431379">
        <ele>4.037</ele>
        <time>2013-05-19T06:52:49Z</time>
      </trkpt>
      <trkpt lat="39.529451" lon="2.431284">
        <ele>4.949</ele>
        <time>2013-05-19T06:52:55Z</time>
      </trkpt>
      <trkpt lat="39.529437" lon="2.431241">
        <ele>5.413</ele>
        <time>2013-05-19T06:52:59Z</time>
      </trkpt>
      <trkpt lat="39.529386" lon="2.431188">
        <ele>5.407</ele>
        <time>2013-05-19T06:53:05Z</time>
      </trkpt>
      <trkpt lat="39.529341" lon="2.431176">
        <ele>5.467</ele>
        <time>2013-05-19T06:53:12Z</time>
      </trkpt>
      <trkpt lat="39.529293" lon="2.431162">
        <ele>6.458</ele>
        <time>2013-05-19T06:53:19Z</time>
      </trkpt>
      <trkpt lat="39.529294" lon="2.431157">
        <ele>4.584</ele>
        <time>2013-05-19T06:53:24Z</time>
      </trkpt>
      <trkpt lat="39.529290" lon="2.431153">
        <ele>5.997</ele>
        <time>2013-05-19T06:53:31Z</time>
      </trkpt>
      <trkpt lat="39.529288" lon="2.431164">
        <ele>5.451</ele>
        <time>2013-05-19T06:53:38Z</time>
      </trkpt>
      <trkpt lat="39.529288" lon="2.431164">
        <ele>4.598</ele>
        <time>2013-05-19T06:53:48Z</time>
      </trkpt>
      <trkpt lat="39.529288" lon="2.431164">
        <ele>4.593</ele>
        <time>2013-05-19T06:53:57Z</time>
      </trkpt>
      <trkpt lat="39.529288" lon="2.431164">
        <ele>4.574</ele>
        <time>2013-05-19T06:54:06Z</time>
      </trkpt>
      <trkpt lat="39.529288" lon="2.431164">
        <ele>4.556</ele>
        <time>2013-05-19T06:54:15Z</time>
      </trkpt>
      <trkpt lat="39.529297" lon="2.431167">
        <ele>4.921</ele>
        <time>2013-05-19T06:54:25Z</time>
      </trkpt>
      <trkpt lat="39.529305" lon="2.431157">
        <ele>4.907</ele>
        <time>2013-05-19T06:54:28Z</time>
      </trkpt>
      <trkpt lat="39.529327" lon="2.431119">
        <ele>5.431</ele>
        <time>2013-05-19T06:54:31Z</time>
      </trkpt>
      <trkpt lat="39.529354" lon="2.431025">
        <ele>5.482</ele>
        <time>2013-05-19T06:54:38Z</time>
      </trkpt>
      <trkpt lat="39.529340" lon="2.431001">
        <ele>6.458</ele>
        <time>2013-05-19T06:54:41Z</time>
      </trkpt>
      <trkpt lat="39.529316" lon="2.430971">
        <ele>6.441</ele>
        <time>2013-05-19T06:54:44Z</time>
      </trkpt>
      <trkpt lat="39.529281" lon="2.430918">
        <ele>6.955</ele>
        <time>2013-05-19T06:54:49Z</time>
      </trkpt>
      <trkpt lat="39.529243" lon="2.430828">
        <ele>7.872</ele>
        <time>2013-05-19T06:54:57Z</time>
      </trkpt>
      <trkpt lat="39.529230" lon="2.430811">
        <ele>7.817</ele>
        <time>2013-05-19T06:54:59Z</time>
      </trkpt>
      <trkpt lat="39.529231" lon="2.430783">
        <ele>7.459</ele>
        <time>2013-05-19T06:55:01Z</time>
      </trkpt>
      <trkpt lat="39.529257" lon="2.430744">
        <ele>8.803</ele>
        <time>2013-05-19T06:55:05Z</time>
      </trkpt>
      <trkpt lat="39.529275" lon="2.430658">
        <ele>10.223</ele>
        <time>2013-05-19T06:55:14Z</time>
      </trkpt>
      <trkpt lat="39.529298" lon="2.430624">
        <ele>10.707</ele>
        <time>2013-05-19T06:55:18Z</time>
      </trkpt>
      <trkpt lat="39.529359" lon="2.430565">
        <ele>10.729</ele>
        <time>2013-05-19T06:55:26Z</time>
      </trkpt>
      <trkpt lat="39.529414" lon="2.430514">
        <ele>10.750</ele>
        <time>2013-05-19T06:55:32Z</time>
      </trkpt>
      <trkpt lat="39.529434" lon="2.430502">
        <ele>10.256</ele>
        <time>2013-05-19T06:55:34Z</time>
      </trkpt>
      <trkpt lat="39.529460" lon="2.430410">
        <ele>11.239</ele>
        <time>2013-05-19T06:55:41Z</time>
      </trkpt>
      <trkpt lat="39.529456" lon="2.430399">
        <ele>12.233</ele>
        <time>2013-05-19T06:55:42Z</time>
      </trkpt>
      <trkpt lat="39.529433" lon="2.430325">
        <ele>12.690</ele>
        <time>2013-05-19T06:55:49Z</time>
      </trkpt>
      <trkpt lat="39.529418" lon="2.430314">
        <ele>12.635</ele>
        <time>2013-05-19T06:55:51Z</time>
      </trkpt>
      <trkpt lat="39.529375" lon="2.430220">
        <ele>12.698</ele>
        <time>2013-05-19T06:55:59Z</time>
      </trkpt>
      <trkpt lat="39.529341" lon="2.430130">
        <ele>13.115</ele>
        <time>2013-05-19T06:56:07Z</time>
      </trkpt>
      <trkpt lat="39.529272" lon="2.430149">
        <ele>12.226</ele>
        <time>2013-05-19T06:56:14Z</time>
      </trkpt>
      <trkpt lat="39.529229" lon="2.430159">
        <ele>12.207</ele>
        <time>2013-05-19T06:56:18Z</time>
      </trkpt>
      <trkpt lat="39.529174" lon="2.430202">
        <ele>11.253</ele>
        <time>2013-05-19T06:56:24Z</time>
      </trkpt>
      <trkpt lat="39.529135" lon="2.430267">
        <ele>11.264</ele>
        <time>2013-05-19T06:56:30Z</time>
      </trkpt>
      <trkpt lat="39.529113" lon="2.430287">
        <ele>10.760</ele>
        <time>2013-05-19T06:56:33Z</time>
      </trkpt>
      <trkpt lat="39.529053" lon="2.430291">
        <ele>9.853</ele>
        <time>2013-05-19T06:56:41Z</time>
      </trkpt>
      <trkpt lat="39.529016" lon="2.430285">
        <ele>9.337</ele>
        <time>2013-05-19T06:56:47Z</time>
      </trkpt>
      <trkpt lat="39.529016" lon="2.430290">
        <ele>9.374</ele>
        <time>2013-05-19T06:56:56Z</time>
      </trkpt>
      <trkpt lat="39.529016" lon="2.430290">
        <ele>9.399</ele>
        <time>2013-05-19T06:57:08Z</time>
      </trkpt>
      <trkpt lat="39.529007" lon="2.430280">
        <ele>8.382</ele>
        <time>2013-05-19T06:57:17Z</time>
      </trkpt>
      <trkpt lat="39.528981" lon="2.430255">
        <ele>7.443</ele>
        <time>2013-05-19T06:57:22Z</time>
      </trkpt>
      <trkpt lat="39.528884" lon="2.430190">
        <ele>5.917</ele>
        <time>2013-05-19T06:57:30Z</time>
      </trkpt>
      <trkpt lat="39.528856" lon="2.430143">
        <ele>4.507</ele>
        <time>2013-05-19T06:57:37Z</time>
      </trkpt>
      <trkpt lat="39.528825" lon="2.430108">
        <ele>3.062</ele>
        <time>2013-05-19T06:57:43Z</time>
      </trkpt>
      <trkpt lat="39.528793" lon="2.430071">
        <ele>2.593</ele>
        <time>2013-05-19T06:57:49Z</time>
      </trkpt>
      <trkpt lat="39.528784" lon="2.430053">
        <ele>0.699</ele>
        <time>2013-05-19T06:57:53Z</time>
      </trkpt>
      <trkpt lat="39.528765" lon="2.430039">
        <ele>0.642</ele>
        <time>2013-05-19T06:58:02Z</time>
      </trkpt>
      <trkpt lat="39.528765" lon="2.430039">
        <ele>1.126</ele>
        <time>2013-05-19T06:58:11Z</time>
      </trkpt>
      <trkpt lat="39.528765" lon="2.430039">
        <ele>0.173</ele>
        <time>2013-05-19T06:58:21Z</time>
      </trkpt>
      <trkpt lat="39.528765" lon="2.430039">
        <ele>0.618</ele>
        <time>2013-05-19T06:58:34Z</time>
      </trkpt>
      <trkpt lat="39.528766" lon="2.430039">
        <ele>0.115</ele>
        <time>2013-05-19T06:58:49Z</time>
      </trkpt>
      <trkpt lat="39.528735" lon="2.430048">
        <ele>-0.365</ele>
        <time>2013-05-19T06:58:56Z</time>
      </trkpt>
      <trkpt lat="39.528687" lon="2.430078">
        <ele>-0.311</ele>
        <time>2013-05-19T06:59:03Z</time>
      </trkpt>
      <trkpt lat="39.528680" lon="2.430077">
        <ele>0.107</ele>
        <time>2013-05-19T06:59:09Z</time>
      </trkpt>
      <trkpt lat="39.528680" lon="2.430077">
        <ele>-0.325</ele>
        <time>2013-05-19T06:59:22Z</time>
      </trkpt>
      <trkpt lat="39.528645" lon="2.430060">
        <ele>1.146</ele>
        <time>2013-05-19T06:59:29Z</time>
      </trkpt>
      <trkpt lat="39.528626" lon="2.430066">
        <ele>1.682</ele>
        <time>2013-05-19T06:59:39Z</time>
      </trkpt>
      <trkpt lat="39.528621" lon="2.430070">
        <ele>2.595</ele>
        <time>2013-05-19T06:59:40Z</time>
      </trkpt>
      <trkpt lat="39.528579" lon="2.430126">
        <ele>4.039</ele>
        <time>2013-05-19T06:59:46Z</time>
      </trkpt>
      <trkpt lat="39.528545" lon="2.430168">
        <ele>5.446</ele>
        <time>2013-05-19T06:59:53Z</time>
      </trkpt>
      <trkpt lat="39.528521" lon="2.430185">
        <ele>7.481</ele>
        <time>2013-05-19T06:59:59Z</time>
      </trkpt>
      <trkpt lat="39.528500" lon="2.430217">
        <ele>7.817</ele>
        <time>2013-05-19T07:00:05Z</time>
      </trkpt>
      <trkpt lat="39.528490" lon="2.430251">
        <ele>8.387</ele>
        <time>2013-05-19T07:00:11Z</time>
      </trkpt>
      <trkpt lat="39.528480" lon="2.430295">
        <ele>8.315</ele>
        <time>2013-05-19T07:00:13Z</time>
      </trkpt>
      <trkpt lat="39.528460" lon="2.430399">
        <ele>8.307</ele>
        <time>2013-05-19T07:00:20Z</time>
      </trkpt>
      <trkpt lat="39.528453" lon="2.430435">
        <ele>7.855</ele>
        <time>2013-05-19T07:00:24Z</time>
      </trkpt>
      <trkpt lat="39.528468" lon="2.430506">
        <ele>7.416</ele>
        <time>2013-05-19T07:00:32Z</time>
      </trkpt>
      <trkpt lat="39.528474" lon="2.430520">
        <ele>6.912</ele>
        <time>2013-05-19T07:00:33Z</time>
      </trkpt>
      <trkpt lat="39.528485" lon="2.430592">
        <ele>6.465</ele>
        <time>2013-05-19T07:00:39Z</time>
      </trkpt>
      <trkpt lat="39.528451" lon="2.430666">
        <ele>7.489</ele>
        <time>2013-05-19T07:00:46Z</time>
      </trkpt>
      <trkpt lat="39.528397" lon="2.430720">
        <ele>8.386</ele>
        <time>2013-05-19T07:00:53Z</time>
      </trkpt>
      <trkpt lat="39.528364" lon="2.430716">
        <ele>10.221</ele>
        <time>2013-05-19T07:01:00Z</time>
      </trkpt>
      <trkpt lat="39.528338" lon="2.430725">
        <ele>10.748</ele>
        <time>2013-05-19T07:01:07Z</time>
      </trkpt>
      <trkpt lat="39.528324" lon="2.430712">
        <ele>11.261</ele>
        <time>2013-05-19T07:01:13Z</time>
      </trkpt>
      <trkpt lat="39.528294" lon="2.430704">
        <ele>13.617</ele>
        <time>2013-05-19T07:01:19Z</time>
      </trkpt>
      <trkpt lat="39.528254" lon="2.430679">
        <ele>12.207</ele>
        <time>2013-05-19T07:01:27Z</time>
      </trkpt>
      <trkpt lat="39.528254" lon="2.430679">
        <ele>11.718</ele>
        <time>2013-05-19T07:01:28Z</time>
      </trkpt>
      <trkpt lat="39.528248" lon="2.430679">
        <ele>13.629</ele>
        <time>2013-05-19T07:01:31Z</time>
      </trkpt>
      <trkpt lat="39.528236" lon="2.430650">
        <ele>15.565</ele>
        <time>2013-05-19T07:01:39Z</time>
      </trkpt>
      <trkpt lat="39.528202" lon="2.430629">
        <ele>17.088</ele>
        <time>2013-05-19T07:01:47Z</time>
      </trkpt>
      <trkpt lat="39.528195" lon="2.430598">
        <ele>18.432</ele>
        <time>2013-05-19T07:01:51Z</time>
      </trkpt>
      <trkpt lat="39.528161" lon="2.430599">
        <ele>18.489</ele>
        <time>2013-05-19T07:01:57Z</time>
      </trkpt>
      <trkpt lat="39.528133" lon="2.430594">
        <ele>19.454</ele>
        <time>2013-05-19T07:02:04Z</time>
      </trkpt>
      <trkpt lat="39.528094" lon="2.430585">
        <ele>19.484</ele>
        <time>2013-05-19T07:02:10Z</time>
      </trkpt>
      <trkpt lat="39.528080" lon="2.430588">
        <ele>18.407</ele>
        <time>2013-05-19T07:02:16Z</time>
      </trkpt>
      <trkpt lat="39.528079" lon="2.430586">
        <ele>20.317</ele>
        <time>2013-05-19T07:02:23Z</time>
      </trkpt>
      <trkpt lat="39.528092" lon="2.430571">
        <ele>20.307</ele>
        <time>2013-05-19T07:02:31Z</time>
      </trkpt>
      <trkpt lat="39.528100" lon="2.430538">
        <ele>21.882</ele>
        <time>2013-05-19T07:02:37Z</time>
      </trkpt>
      <trkpt lat="39.528083" lon="2.430518">
        <ele>22.363</ele>
        <time>2013-05-19T07:02:44Z</time>
      </trkpt>
      <trkpt lat="39.528083" lon="2.430518">
        <ele>22.369</ele>
        <time>2013-05-19T07:02:52Z</time>
      </trkpt>
      <trkpt lat="39.528072" lon="2.430519">
        <ele>22.332</ele>
        <time>2013-05-19T07:02:58Z</time>
      </trkpt>
      <trkpt lat="39.528043" lon="2.430477">
        <ele>23.726</ele>
        <time>2013-05-19T07:03:05Z</time>
      </trkpt>
      <trkpt lat="39.528027" lon="2.430451">
        <ele>24.213</ele>
        <time>2013-05-19T07:03:10Z</time>
      </trkpt>
      <trkpt lat="39.527998" lon="2.430432">
        <ele>25.128</ele>
        <time>2013-05-19T07:03:17Z</time>
      </trkpt>
      <trkpt lat="39.527970" lon="2.430407">
        <ele>27.178</ele>
        <time>2013-05-19T07:03:24Z</time>
      </trkpt>
      <trkpt lat="39.527965" lon="2.430404">
        <ele>27.133</ele>
        <time>2013-05-19T07:03:25Z</time>
      </trkpt>
      <trkpt lat="39.527949" lon="2.430372">
        <ele>27.526</ele>
        <time>2013-05-19T07:03:31Z</time>
      </trkpt>
      <trkpt lat="39.527930" lon="2.430338">
        <ele>29.007</ele>
        <time>2013-05-19T07:03:37Z</time>
      </trkpt>
      <trkpt lat="39.527910" lon="2.430269">
        <ele>29.931</ele>
        <time>2013-05-19T07:03:45Z</time>
      </trkpt>
      <trkpt lat="39.527879" lon="2.430242">
        <ele>30.972</ele>
        <time>2013-05-19T07:03:52Z</time>
      </trkpt>
      <trkpt lat="39.527868" lon="2.430176">
        <ele>31.488</ele>
        <time>2013-05-19T07:03:59Z</time>
      </trkpt>
      <trkpt lat="39.527863" lon="2.430126">
        <ele>31.971</ele>
        <time>2013-05-19T07:04:06Z</time>
      </trkpt>
      <trkpt lat="39.527876" lon="2.430108">
        <ele>31.935</ele>
        <time>2013-05-19T07:04:13Z</time>
      </trkpt>
      <trkpt lat="39.527878" lon="2.430103">
        <ele>31.452</ele>
        <time>2013-05-19T07:04:17Z</time>
      </trkpt>
      <trkpt lat="39.527893" lon="2.430114">
        <ele>31.457</ele>
        <time>2013-05-19T07:04:23Z</time>
      </trkpt>
      <trkpt lat="39.527908" lon="2.430115">
        <ele>30.995</ele>
        <time>2013-05-19T07:04:32Z</time>
      </trkpt>
      <trkpt lat="39.527922" lon="2.430105">
        <ele>30.949</ele>
        <time>2013-05-19T07:04:39Z</time>
      </trkpt>
      <trkpt lat="39.527965" lon="2.430111">
        <ele>30.423</ele>
        <time>2013-05-19T07:04:46Z</time>
      </trkpt>
      <trkpt lat="39.527986" lon="2.430102">
        <ele>28.507</ele>
        <time>2013-05-19T07:04:54Z</time>
      </trkpt>
      <trkpt lat="39.528030" lon="2.430054">
        <ele>28.063</ele>
        <time>2013-05-19T07:05:02Z</time>
      </trkpt>
      <trkpt lat="39.528076" lon="2.429996">
        <ele>28.074</ele>
        <time>2013-05-19T07:05:09Z</time>
      </trkpt>
      <trkpt lat="39.528083" lon="2.429962">
        <ele>28.060</ele>
        <time>2013-05-19T07:05:16Z</time>
      </trkpt>
      <trkpt lat="39.528079" lon="2.429883">
        <ele>29.593</ele>
        <time>2013-05-19T07:05:24Z</time>
      </trkpt>
      <trkpt lat="39.528113" lon="2.429837">
        <ele>28.557</ele>
        <time>2013-05-19T07:05:30Z</time>
      </trkpt>
      <trkpt lat="39.528134" lon="2.429831">
        <ele>26.654</ele>
        <time>2013-05-19T07:05:33Z</time>
      </trkpt>
      <trkpt lat="39.528150" lon="2.429796">
        <ele>26.619</ele>
        <time>2013-05-19T07:05:40Z</time>
      </trkpt>
      <trkpt lat="39.528145" lon="2.429753">
        <ele>27.168</ele>
        <time>2013-05-19T07:05:45Z</time>
      </trkpt>
      <trkpt lat="39.528144" lon="2.429661">
        <ele>27.142</ele>
        <time>2013-05-19T07:05:51Z</time>
      </trkpt>
      <trkpt lat="39.528115" lon="2.429578">
        <ele>27.526</ele>
        <time>2013-05-19T07:05:58Z</time>
      </trkpt>
      <trkpt lat="39.528091" lon="2.429525">
        <ele>28.507</ele>
        <time>2013-05-19T07:06:05Z</time>
      </trkpt>
      <trkpt lat="39.528103" lon="2.429488">
        <ele>28.040</ele>
        <time>2013-05-19T07:06:12Z</time>
      </trkpt>
      <trkpt lat="39.528119" lon="2.429423">
        <ele>27.561</ele>
        <time>2013-05-19T07:06:18Z</time>
      </trkpt>
      <trkpt lat="39.528141" lon="2.429341">
        <ele>28.067</ele>
        <time>2013-05-19T07:06:25Z</time>
      </trkpt>
      <trkpt lat="39.528141" lon="2.429261">
        <ele>28.080</ele>
        <time>2013-05-19T07:06:32Z</time>
      </trkpt>
      <trkpt lat="39.528152" lon="2.429220">
        <ele>27.164</ele>
        <time>2013-05-19T07:06:38Z</time>
      </trkpt>
      <trkpt lat="39.528158" lon="2.429160">
        <ele>27.131</ele>
        <time>2013-05-19T07:06:46Z</time>
      </trkpt>
      <trkpt lat="39.528121" lon="2.429138">
        <ele>28.096</ele>
        <time>2013-05-19T07:06:52Z</time>
      </trkpt>
      <trkpt lat="39.528102" lon="2.429137">
        <ele>28.533</ele>
        <time>2013-05-19T07:06:58Z</time>
      </trkpt>
      <trkpt lat="39.528135" lon="2.429113">
        <ele>28.523</ele>
        <time>2013-05-19T07:07:05Z</time>
      </trkpt>
      <trkpt lat="39.528140" lon="2.429075">
        <ele>28.515</ele>
        <time>2013-05-19T07:07:09Z</time>
      </trkpt>
      <trkpt lat="39.528160" lon="2.428983">
        <ele>28.507</ele>
        <time>2013-05-19T07:07:17Z</time>
      </trkpt>
      <trkpt lat="39.528162" lon="2.428881">
        <ele>29.017</ele>
        <time>2013-05-19T07:07:23Z</time>
      </trkpt>
      <trkpt lat="39.528159" lon="2.428815">
        <ele>28.548</ele>
        <time>2013-05-19T07:07:29Z</time>
      </trkpt>
      <trkpt lat="39.528143" lon="2.428794">
        <ele>27.554</ele>
        <time>2013-05-19T07:07:36Z</time>
      </trkpt>
      <trkpt lat="39.528137" lon="2.428788">
        <ele>29.537</ele>
        <time>2013-05-19T07:07:44Z</time>
      </trkpt>
      <trkpt lat="39.528113" lon="2.428772">
        <ele>29.911</ele>
        <time>2013-05-19T07:07:50Z</time>
      </trkpt>
      <trkpt lat="39.528096" lon="2.428734">
        <ele>30.918</ele>
        <time>2013-05-19T07:07:56Z</time>
      </trkpt>
      <trkpt lat="39.528062" lon="2.428693">
        <ele>32.823</ele>
        <time>2013-05-19T07:08:03Z</time>
      </trkpt>
      <trkpt lat="39.528047" lon="2.428645">
        <ele>33.824</ele>
        <time>2013-05-19T07:08:08Z</time>
      </trkpt>
      <trkpt lat="39.528019" lon="2.428595">
        <ele>34.704</ele>
        <time>2013-05-19T07:08:15Z</time>
      </trkpt>
      <trkpt lat="39.528002" lon="2.428573">
        <ele>35.714</ele>
        <time>2013-05-19T07:08:21Z</time>
      </trkpt>
      <trkpt lat="39.528011" lon="2.428504">
        <ele>35.707</ele>
        <time>2013-05-19T07:08:28Z</time>
      </trkpt>
      <trkpt lat="39.528005" lon="2.428434">
        <ele>36.766</ele>
        <time>2013-05-19T07:08:35Z</time>
      </trkpt>
      <trkpt lat="39.528002" lon="2.428421">
        <ele>36.227</ele>
        <time>2013-05-19T07:08:36Z</time>
      </trkpt>
      <trkpt lat="39.528007" lon="2.428328">
        <ele>36.213</ele>
        <time>2013-05-19T07:08:44Z</time>
      </trkpt>
      <trkpt lat="39.528015" lon="2.428276">
        <ele>36.226</ele>
        <time>2013-05-19T07:08:49Z</time>
      </trkpt>
      <trkpt lat="39.528031" lon="2.428173">
        <ele>37.650</ele>
        <time>2013-05-19T07:08:57Z</time>
      </trkpt>
      <trkpt lat="39.527996" lon="2.428119">
        <ele>38.177</ele>
        <time>2013-05-19T07:09:03Z</time>
      </trkpt>
      <trkpt lat="39.528002" lon="2.428115">
        <ele>38.622</ele>
        <time>2013-05-19T07:09:11Z</time>
      </trkpt>
      <trkpt lat="39.528002" lon="2.428115">
        <ele>37.627</ele>
        <time>2013-05-19T07:09:23Z</time>
      </trkpt>
      <trkpt lat="39.528002" lon="2.428115">
        <ele>38.168</ele>
        <time>2013-05-19T07:09:35Z</time>
      </trkpt>
      <trkpt lat="39.528002" lon="2.428115">
        <ele>38.614</ele>
        <time>2013-05-19T07:09:43Z</time>
      </trkpt>
      <trkpt lat="39.528004" lon="2.428113">
        <ele>37.607</ele>
        <time>2013-05-19T07:09:52Z</time>
      </trkpt>
      <trkpt lat="39.528044" lon="2.428066">
        <ele>36.736</ele>
        <time>2013-05-19T07:10:00Z</time>
      </trkpt>
      <trkpt lat="39.528063" lon="2.428002">
        <ele>37.237</ele>
        <time>2013-05-19T07:10:08Z</time>
      </trkpt>
      <trkpt lat="39.528073" lon="2.427917">
        <ele>38.113</ele>
        <time>2013-05-19T07:10:15Z</time>
      </trkpt>
      <trkpt lat="39.528072" lon="2.427884">
        <ele>38.636</ele>
        <time>2013-05-19T07:10:21Z</time>
      </trkpt>
      <trkpt lat="39.528072" lon="2.427884">
        <ele>37.650</ele>
        <time>2013-05-19T07:10:32Z</time>
      </trkpt>
      <trkpt lat="39.528078" lon="2.427869">
        <ele>38.147</ele>
        <time>2013-05-19T07:10:34Z</time>
      </trkpt>
      <trkpt lat="39.528095" lon="2.427851">
        <ele>38.122</ele>
        <time>2013-05-19T07:10:36Z</time>
      </trkpt>
      <trkpt lat="39.528164" lon="2.427810">
        <ele>38.696</ele>
        <time>2013-05-19T07:10:46Z</time>
      </trkpt>
      <trkpt lat="39.528197" lon="2.427783">
        <ele>38.631</ele>
        <time>2013-05-19T07:10:54Z</time>
      </trkpt>
      <trkpt lat="39.528245" lon="2.427723">
        <ele>38.624</ele>
        <time>2013-05-19T07:11:01Z</time>
      </trkpt>
      <trkpt lat="39.528285" lon="2.427692">
        <ele>39.107</ele>
        <time>2013-05-19T07:11:08Z</time>
      </trkpt>
      <trkpt lat="39.528347" lon="2.427650">
        <ele>39.683</ele>
        <time>2013-05-19T07:11:14Z</time>
      </trkpt>
      <trkpt lat="39.528400" lon="2.427635">
        <ele>40.524</ele>
        <time>2013-05-19T07:11:20Z</time>
      </trkpt>
      <trkpt lat="39.528425" lon="2.427618">
        <ele>41.570</ele>
        <time>2013-05-19T07:11:27Z</time>
      </trkpt>
      <trkpt lat="39.528466" lon="2.427597">
        <ele>42.943</ele>
        <time>2013-05-19T07:11:35Z</time>
      </trkpt>
      <trkpt lat="39.528479" lon="2.427550">
        <ele>43.917</ele>
        <time>2013-05-19T07:11:41Z</time>
      </trkpt>
      <trkpt lat="39.528436" lon="2.427528">
        <ele>44.824</ele>
        <time>2013-05-19T07:11:48Z</time>
      </trkpt>
      <trkpt lat="39.528391" lon="2.427494">
        <ele>46.399</ele>
        <time>2013-05-19T07:11:56Z</time>
      </trkpt>
      <trkpt lat="39.528367" lon="2.427456">
        <ele>46.876</ele>
        <time>2013-05-19T07:12:03Z</time>
      </trkpt>
      <trkpt lat="39.528326" lon="2.427444">
        <ele>46.890</ele>
        <time>2013-05-19T07:12:10Z</time>
      </trkpt>
      <trkpt lat="39.528288" lon="2.427397">
        <ele>47.219</ele>
        <time>2013-05-19T07:12:17Z</time>
      </trkpt>
      <trkpt lat="39.528242" lon="2.427371">
        <ele>48.707</ele>
        <time>2013-05-19T07:12:24Z</time>
      </trkpt>
      <trkpt lat="39.528219" lon="2.427304">
        <ele>49.711</ele>
        <time>2013-05-19T07:12:31Z</time>
      </trkpt>
      <trkpt lat="39.528207" lon="2.427222">
        <ele>50.642</ele>
        <time>2013-05-19T07:12:38Z</time>
      </trkpt>
      <trkpt lat="39.528231" lon="2.427190">
        <ele>51.688</ele>
        <time>2013-05-19T07:12:44Z</time>
      </trkpt>
      <trkpt lat="39.528278" lon="2.427178">
        <ele>53.561</ele>
        <time>2013-05-19T07:12:52Z</time>
      </trkpt>
      <trkpt lat="39.528296" lon="2.427173">
        <ele>54.065</ele>
        <time>2013-05-19T07:12:58Z</time>
      </trkpt>
      <trkpt lat="39.528339" lon="2.427172">
        <ele>54.992</ele>
        <time>2013-05-19T07:13:04Z</time>
      </trkpt>
      <trkpt lat="39.528370" lon="2.427148">
        <ele>56.417</ele>
        <time>2013-05-19T07:13:11Z</time>
      </trkpt>
      <trkpt lat="39.528353" lon="2.427076">
        <ele>57.366</ele>
        <time>2013-05-19T07:13:19Z</time>
      </trkpt>
      <trkpt lat="39.528337" lon="2.426983">
        <ele>58.329</ele>
        <time>2013-05-19T07:13:27Z</time>
      </trkpt>
      <trkpt lat="39.528321" lon="2.426906">
        <ele>59.321</ele>
        <time>2013-05-19T07:13:34Z</time>
      </trkpt>
      <trkpt lat="39.528293" lon="2.426872">
        <ele>60.707</ele>
        <time>2013-05-19T07:13:39Z</time>
      </trkpt>
      <trkpt lat="39.528266" lon="2.426813">
        <ele>60.720</ele>
        <time>2013-05-19T07:13:46Z</time>
      </trkpt>
      <trkpt lat="39.528237" lon="2.426746">
        <ele>62.121</ele>
        <time>2013-05-19T07:13:53Z</time>
      </trkpt>
      <trkpt lat="39.528218" lon="2.426667">
        <ele>62.187</ele>
        <time>2013-05-19T07:14:01Z</time>
      </trkpt>
      <trkpt lat="39.528194" lon="2.426625">
        <ele>63.150</ele>
        <time>2013-05-19T07:14:09Z</time>
      </trkpt>
      <trkpt lat="39.528201" lon="2.426616">
        <ele>63.644</ele>
        <time>2013-05-19T07:14:18Z</time>
      </trkpt>
      <trkpt lat="39.528205" lon="2.426625">
        <ele>64.661</ele>
        <time>2013-05-19T07:14:24Z</time>
      </trkpt>
      <trkpt lat="39.528220" lon="2.426589">
        <ele>65.016</ele>
        <time>2013-05-19T07:14:31Z</time>
      </trkpt>
      <trkpt lat="39.528232" lon="2.426568">
        <ele>67.038</ele>
        <time>2013-05-19T07:14:38Z</time>
      </trkpt>
      <trkpt lat="39.528239" lon="2.426516">
        <ele>67.970</ele>
        <time>2013-05-19T07:14:45Z</time>
      </trkpt>
      <trkpt lat="39.528246" lon="2.426488">
        <ele>69.817</ele>
        <time>2013-05-19T07:14:51Z</time>
      </trkpt>
      <trkpt lat="39.528254" lon="2.426461">
        <ele>69.807</ele>
        <time>2013-05-19T07:14:57Z</time>
      </trkpt>
      <trkpt lat="39.528262" lon="2.426453">
        <ele>71.897</ele>
        <time>2013-05-19T07:15:05Z</time>
      </trkpt>
      <trkpt lat="39.528272" lon="2.426420">
        <ele>72.778</ele>
        <time>2013-05-19T07:15:13Z</time>
      </trkpt>
      <trkpt lat="39.528261" lon="2.426380">
        <ele>74.264</ele>
        <time>2013-05-19T07:15:21Z</time>
      </trkpt>
      <trkpt lat="39.528259" lon="2.426358">
        <ele>75.127</ele>
        <time>2013-05-19T07:15:28Z</time>
      </trkpt>
      <trkpt lat="39.528272" lon="2.426338">
        <ele>76.611</ele>
        <time>2013-05-19T07:15:36Z</time>
      </trkpt>
      <trkpt lat="39.528277" lon="2.426335">
        <ele>77.528</ele>
        <time>2013-05-19T07:15:44Z</time>
      </trkpt>
      <trkpt lat="39.528288" lon="2.426341">
        <ele>78.083</ele>
        <time>2013-05-19T07:15:52Z</time>
      </trkpt>
      <trkpt lat="39.528288" lon="2.426341">
        <ele>78.071</ele>
        <time>2013-05-19T07:16:02Z</time>
      </trkpt>
      <trkpt lat="39.528297" lon="2.426324">
        <ele>79.941</ele>
        <time>2013-05-19T07:16:10Z</time>
      </trkpt>
      <trkpt lat="39.528318" lon="2.426312">
        <ele>80.415</ele>
        <time>2013-05-19T07:16:17Z</time>
      </trkpt>
      <trkpt lat="39.528334" lon="2.426298">
        <ele>81.907</ele>
        <time>2013-05-19T07:16:25Z</time>
      </trkpt>
      <trkpt lat="39.528342" lon="2.426293">
        <ele>82.321</ele>
        <time>2013-05-19T07:16:31Z</time>
      </trkpt>
      <trkpt lat="39.528349" lon="2.426269">
        <ele>84.382</ele>
        <time>2013-05-19T07:16:39Z</time>
      </trkpt>
      <trkpt lat="39.528369" lon="2.426216">
        <ele>85.758</ele>
        <time>2013-05-19T07:16:47Z</time>
      </trkpt>
      <trkpt lat="39.528378" lon="2.426171">
        <ele>86.781</ele>
        <time>2013-05-19T07:16:53Z</time>
      </trkpt>
      <trkpt lat="39.528406" lon="2.426152">
        <ele>88.695</ele>
        <time>2013-05-19T07:17:00Z</time>
      </trkpt>
      <trkpt lat="39.528415" lon="2.426145">
        <ele>89.582</ele>
        <time>2013-05-19T07:17:08Z</time>
      </trkpt>
      <trkpt lat="39.528433" lon="2.426150">
        <ele>90.017</ele>
        <time>2013-05-19T07:17:13Z</time>
      </trkpt>
      <trkpt lat="39.528440" lon="2.426122">
        <ele>91.535</ele>
        <time>2013-05-19T07:17:19Z</time>
      </trkpt>
      <trkpt lat="39.528437" lon="2.426111">
        <ele>92.986</ele>
        <time>2013-05-19T07:17:28Z</time>
      </trkpt>
      <trkpt lat="39.528449" lon="2.426108">
        <ele>94.414</ele>
        <time>2013-05-19T07:17:36Z</time>
      </trkpt>
      <trkpt lat="39.528456" lon="2.426093">
        <ele>95.807</ele>
        <time>2013-05-19T07:17:43Z</time>
      </trkpt>
      <trkpt lat="39.528460" lon="2.426083">
        <ele>97.257</ele>
        <time>2013-05-19T07:17:52Z</time>
      </trkpt>
      <trkpt lat="39.528453" lon="2.426052">
        <ele>98.298</ele>
        <time>2013-05-19T07:17:58Z</time>
      </trkpt>
      <trkpt lat="39.528453" lon="2.426034">
        <ele>99.264</ele>
        <time>2013-05-19T07:18:00Z</time>
      </trkpt>
      <trkpt lat="39.528463" lon="2.426014">
        <ele>99.697</ele>
        <time>2013-05-19T07:18:08Z</time>
      </trkpt>
      <trkpt lat="39.528476" lon="2.425976">
        <ele>101.151</ele>
        <time>2013-05-19T07:18:16Z</time>
      </trkpt>
      <trkpt lat="39.528462" lon="2.425920">
        <ele>102.078</ele>
        <time>2013-05-19T07:18:22Z</time>
      </trkpt>
      <trkpt lat="39.528440" lon="2.425889">
        <ele>103.033</ele>
        <time>2013-05-19T07:18:30Z</time>
      </trkpt>
      <trkpt lat="39.528444" lon="2.425868">
        <ele>104.047</ele>
        <time>2013-05-19T07:18:37Z</time>
      </trkpt>
      <trkpt lat="39.528463" lon="2.425863">
        <ele>105.429</ele>
        <time>2013-05-19T07:18:44Z</time>
      </trkpt>
      <trkpt lat="39.528485" lon="2.425866">
        <ele>106.821</ele>
        <time>2013-05-19T07:18:51Z</time>
      </trkpt>
      <trkpt lat="39.528513" lon="2.425856">
        <ele>107.307</ele>
        <time>2013-05-19T07:18:59Z</time>
      </trkpt>
      <trkpt lat="39.528516" lon="2.425840">
        <ele>109.368</ele>
        <time>2013-05-19T07:19:06Z</time>
      </trkpt>
      <trkpt lat="39.528507" lon="2.425788">
        <ele>109.769</ele>
        <time>2013-05-19T07:19:14Z</time>
      </trkpt>
      <trkpt lat="39.528519" lon="2.425773">
        <ele>111.275</ele>
        <time>2013-05-19T07:19:20Z</time>
      </trkpt>
      <trkpt lat="39.528532" lon="2.425769">
        <ele>111.788</ele>
        <time>2013-05-19T07:19:28Z</time>
      </trkpt>
      <trkpt lat="39.528544" lon="2.425751">
        <ele>113.112</ele>
        <time>2013-05-19T07:19:39Z</time>
      </trkpt>
      <trkpt lat="39.528564" lon="2.425756">
        <ele>113.699</ele>
        <time>2013-05-19T07:19:45Z</time>
      </trkpt>
      <trkpt lat="39.528592" lon="2.425759">
        <ele>114.584</ele>
        <time>2013-05-19T07:19:51Z</time>
      </trkpt>
      <trkpt lat="39.528604" lon="2.425753">
        <ele>116.912</ele>
        <time>2013-05-19T07:20:00Z</time>
      </trkpt>
      <trkpt lat="39.528604" lon="2.425753">
        <ele>116.932</ele>
        <time>2013-05-19T07:20:01Z</time>
      </trkpt>
      <trkpt lat="39.528609" lon="2.425751">
        <ele>117.905</ele>
        <time>2013-05-19T07:20:06Z</time>
      </trkpt>
      <trkpt lat="39.528650" lon="2.425755">
        <ele>118.907</ele>
        <time>2013-05-19T07:20:15Z</time>
      </trkpt>
      <trkpt lat="39.528665" lon="2.425733">
        <ele>120.315</ele>
        <time>2013-05-19T07:20:23Z</time>
      </trkpt>
      <trkpt lat="39.528678" lon="2.425724">
        <ele>121.726</ele>
        <time>2013-05-19T07:20:31Z</time>
      </trkpt>
      <trkpt lat="39.528714" lon="2.425698">
        <ele>122.272</ele>
        <time>2013-05-19T07:20:39Z</time>
      </trkpt>
      <trkpt lat="39.528756" lon="2.425671">
        <ele>124.255</ele>
        <time>2013-05-19T07:20:47Z</time>
      </trkpt>
      <trkpt lat="39.528782" lon="2.425671">
        <ele>125.639</ele>
        <time>2013-05-19T07:20:55Z</time>
      </trkpt>
      <trkpt lat="39.528818" lon="2.425656">
        <ele>127.576</ele>
        <time>2013-05-19T07:21:04Z</time>
      </trkpt>
      <trkpt lat="39.528851" lon="2.425614">
        <ele>128.531</ele>
        <time>2013-05-19T07:21:12Z</time>
      </trkpt>
      <trkpt lat="39.528855" lon="2.425577">
        <ele>129.911</ele>
        <time>2013-05-19T07:21:20Z</time>
      </trkpt>
      <trkpt lat="39.528872" lon="2.425554">
        <ele>130.921</ele>
        <time>2013-05-19T07:21:26Z</time>
      </trkpt>
      <trkpt lat="39.528898" lon="2.425520">
        <ele>131.803</ele>
        <time>2013-05-19T07:21:33Z</time>
      </trkpt>
      <trkpt lat="39.528892" lon="2.425483">
        <ele>132.807</ele>
        <time>2013-05-19T07:21:39Z</time>
      </trkpt>
      <trkpt lat="39.528861" lon="2.425425">
        <ele>134.295</ele>
        <time>2013-05-19T07:21:49Z</time>
      </trkpt>
      <trkpt lat="39.528858" lon="2.425404">
        <ele>134.796</ele>
        <time>2013-05-19T07:21:56Z</time>
      </trkpt>
      <trkpt lat="39.528833" lon="2.425351">
        <ele>136.222</ele>
        <time>2013-05-19T07:22:04Z</time>
      </trkpt>
      <trkpt lat="39.528825" lon="2.425311">
        <ele>138.175</ele>
        <time>2013-05-19T07:22:12Z</time>
      </trkpt>
      <trkpt lat="39.528829" lon="2.425310">
        <ele>138.149</ele>
        <time>2013-05-19T07:22:18Z</time>
      </trkpt>
      <trkpt lat="39.528832" lon="2.425310">
        <ele>138.126</ele>
        <time>2013-05-19T07:22:25Z</time>
      </trkpt>
      <trkpt lat="39.528833" lon="2.425312">
        <ele>138.181</ele>
        <time>2013-05-19T07:22:31Z</time>
      </trkpt>
      <trkpt lat="39.528833" lon="2.425312">
        <ele>138.666</ele>
        <time>2013-05-19T07:22:41Z</time>
      </trkpt>
      <trkpt lat="39.528825" lon="2.425298">
        <ele>138.129</ele>
        <time>2013-05-19T07:22:50Z</time>
      </trkpt>
      <trkpt lat="39.528792" lon="2.425275">
        <ele>138.621</ele>
        <time>2013-05-19T07:22:57Z</time>
      </trkpt>
      <trkpt lat="39.528757" lon="2.425256">
        <ele>138.607</ele>
        <time>2013-05-19T07:23:04Z</time>
      </trkpt>
      <trkpt lat="39.528750" lon="2.425251">
        <ele>138.620</ele>
        <time>2013-05-19T07:23:05Z</time>
      </trkpt>
      <trkpt lat="39.528724" lon="2.425207">
        <ele>140.071</ele>
        <time>2013-05-19T07:23:12Z</time>
      </trkpt>
      <trkpt lat="39.528698" lon="2.425160">
        <ele>141.097</ele>
        <time>2013-05-19T07:23:19Z</time>
      </trkpt>
      <trkpt lat="39.528632" lon="2.425136">
        <ele>142.470</ele>
        <time>2013-05-19T07:23:27Z</time>
      </trkpt>
      <trkpt lat="39.528597" lon="2.425086">
        <ele>143.454</ele>
        <time>2013-05-19T07:23:33Z</time>
      </trkpt>
      <trkpt lat="39.528532" lon="2.425049">
        <ele>144.341</ele>
        <time>2013-05-19T07:23:41Z</time>
      </trkpt>
      <trkpt lat="39.528506" lon="2.425023">
        <ele>145.376</ele>
        <time>2013-05-19T07:23:45Z</time>
      </trkpt>
      <trkpt lat="39.528454" lon="2.424961">
        <ele>146.386</ele>
        <time>2013-05-19T07:23:53Z</time>
      </trkpt>
      <trkpt lat="39.528416" lon="2.424896">
        <ele>147.260</ele>
        <time>2013-05-19T07:23:59Z</time>
      </trkpt>
      <trkpt lat="39.528399" lon="2.424866">
        <ele>145.826</ele>
        <time>2013-05-19T07:24:03Z</time>
      </trkpt>
      <trkpt lat="39.528361" lon="2.424827">
        <ele>146.307</ele>
        <time>2013-05-19T07:24:09Z</time>
      </trkpt>
      <trkpt lat="39.528338" lon="2.424796">
        <ele>147.782</ele>
        <time>2013-05-19T07:24:13Z</time>
      </trkpt>
      <trkpt lat="39.528302" lon="2.424712">
        <ele>148.273</ele>
        <time>2013-05-19T07:24:22Z</time>
      </trkpt>
      <trkpt lat="39.528275" lon="2.424663">
        <ele>148.799</ele>
        <time>2013-05-19T07:24:27Z</time>
      </trkpt>
      <trkpt lat="39.528264" lon="2.424629">
        <ele>148.762</ele>
        <time>2013-05-19T07:24:30Z</time>
      </trkpt>
      <trkpt lat="39.528201" lon="2.424563">
        <ele>149.626</ele>
        <time>2013-05-19T07:24:38Z</time>
      </trkpt>
      <trkpt lat="39.528158" lon="2.424524">
        <ele>150.123</ele>
        <time>2013-05-19T07:24:45Z</time>
      </trkpt>
      <trkpt lat="39.528154" lon="2.424523">
        <ele>151.118</ele>
        <time>2013-05-19T07:24:52Z</time>
      </trkpt>
      <trkpt lat="39.528157" lon="2.424530">
        <ele>149.184</ele>
        <time>2013-05-19T07:25:01Z</time>
      </trkpt>
      <trkpt lat="39.528158" lon="2.424532">
        <ele>150.107</ele>
        <time>2013-05-19T07:25:07Z</time>
      </trkpt>
      <trkpt lat="39.528158" lon="2.424532">
        <ele>149.617</ele>
        <time>2013-05-19T07:25:14Z</time>
      </trkpt>
      <trkpt lat="39.528158" lon="2.424532">
        <ele>149.607</ele>
        <time>2013-05-19T07:25:21Z</time>
      </trkpt>
      <trkpt lat="39.528158" lon="2.424532">
        <ele>149.652</ele>
        <time>2013-05-19T07:25:30Z</time>
      </trkpt>
      <trkpt lat="39.528158" lon="2.424532">
        <ele>150.133</ele>
        <time>2013-05-19T07:25:35Z</time>
      </trkpt>
      <trkpt lat="39.528139" lon="2.424522">
        <ele>150.149</ele>
        <time>2013-05-19T07:25:37Z</time>
      </trkpt>
      <trkpt lat="39.528101" lon="2.424505">
        <ele>149.692</ele>
        <time>2013-05-19T07:25:41Z</time>
      </trkpt>
      <trkpt lat="39.528062" lon="2.424464">
        <ele>150.666</ele>
        <time>2013-05-19T07:25:47Z</time>
      </trkpt>
      <trkpt lat="39.528043" lon="2.424459">
        <ele>150.683</ele>
        <time>2013-05-19T07:25:49Z</time>
      </trkpt>
      <trkpt lat="39.527965" lon="2.424432">
        <ele>151.168</ele>
        <time>2013-05-19T07:25:57Z</time>
      </trkpt>
      <trkpt lat="39.527907" lon="2.424402">
        <ele>151.559</ele>
        <time>2013-05-19T07:26:04Z</time>
      </trkpt>
      <trkpt lat="39.527886" lon="2.424398">
        <ele>151.503</ele>
        <time>2013-05-19T07:26:06Z</time>
      </trkpt>
      <trkpt lat="39.527805" lon="2.424356">
        <ele>153.023</ele>
        <time>2013-05-19T07:26:14Z</time>
      </trkpt>
      <trkpt lat="39.527753" lon="2.424296">
        <ele>152.507</ele>
        <time>2013-05-19T07:26:21Z</time>
      </trkpt>
      <trkpt lat="39.527745" lon="2.424292">
        <ele>152.579</ele>
        <time>2013-05-19T07:26:22Z</time>
      </trkpt>
      <trkpt lat="39.527726" lon="2.424266">
        <ele>153.010</ele>
        <time>2013-05-19T07:26:25Z</time>
      </trkpt>
      <trkpt lat="39.527680" lon="2.424211">
        <ele>152.586</ele>
        <time>2013-05-19T07:26:32Z</time>
      </trkpt>
      <trkpt lat="39.527691" lon="2.424186">
        <ele>152.549</ele>
        <time>2013-05-19T07:26:38Z</time>
      </trkpt>
      <trkpt lat="39.527703" lon="2.424163">
        <ele>152.583</ele>
        <time>2013-05-19T07:26:44Z</time>
      </trkpt>
      <trkpt lat="39.527700" lon="2.424146">
        <ele>151.570</ele>
        <time>2013-05-19T07:26:50Z</time>
      </trkpt>
      <trkpt lat="39.527700" lon="2.424146">
        <ele>153.015</ele>
        <time>2013-05-19T07:26:57Z</time>
      </trkpt>
      <trkpt lat="39.527700" lon="2.424146">
        <ele>151.544</ele>
        <time>2013-05-19T07:27:05Z</time>
      </trkpt>
      <trkpt lat="39.527700" lon="2.424146">
        <ele>154.405</ele>
        <time>2013-05-19T07:27:14Z</time>
      </trkpt>
      <trkpt lat="39.527700" lon="2.424146">
        <ele>153.015</ele>
        <time>2013-05-19T07:27:24Z</time>
      </trkpt>
      <trkpt lat="39.527706" lon="2.424137">
        <ele>152.507</ele>
        <time>2013-05-19T07:27:34Z</time>
      </trkpt>
      <trkpt lat="39.527706" lon="2.424137">
        <ele>152.518</ele>
        <time>2013-05-19T07:27:45Z</time>
      </trkpt>
      <trkpt lat="39.527706" lon="2.424137">
        <ele>154.479</ele>
        <time>2013-05-19T07:27:54Z</time>
      </trkpt>
      <trkpt lat="39.527706" lon="2.424137">
        <ele>154.485</ele>
        <time>2013-05-19T07:28:06Z</time>
      </trkpt>
      <trkpt lat="39.527703" lon="2.424142">
        <ele>154.438</ele>
        <time>2013-05-19T07:28:18Z</time>
      </trkpt>
      <trkpt lat="39.527703" lon="2.424142">
        <ele>151.172</ele>
        <time>2013-05-19T07:28:25Z</time>
      </trkpt>
      <trkpt lat="39.527703" lon="2.424142">
        <ele>151.539</ele>
        <time>2013-05-19T07:28:26Z</time>
      </trkpt>
      <trkpt lat="39.527703" lon="2.424142">
        <ele>152.514</ele>
        <time>2013-05-19T07:28:39Z</time>
      </trkpt>
      <trkpt lat="39.527710" lon="2.424134">
        <ele>154.022</ele>
        <time>2013-05-19T07:28:49Z</time>
      </trkpt>
      <trkpt lat="39.527710" lon="2.424134">
        <ele>154.062</ele>
        <time>2013-05-19T07:28:56Z</time>
      </trkpt>
      <trkpt lat="39.527710" lon="2.424134">
        <ele>153.508</ele>
        <time>2013-05-19T07:29:02Z</time>
      </trkpt>
      <trkpt lat="39.527698" lon="2.424165">
        <ele>153.507</ele>
        <time>2013-05-19T07:29:06Z</time>
      </trkpt>
      <trkpt lat="39.527639" lon="2.424175">
        <ele>153.586</ele>
        <time>2013-05-19T07:29:12Z</time>
      </trkpt>
      <trkpt lat="39.527615" lon="2.424162">
        <ele>153.027</ele>
        <time>2013-05-19T07:29:15Z</time>
      </trkpt>
      <trkpt lat="39.527565" lon="2.424126">
        <ele>151.113</ele>
        <time>2013-05-19T07:29:22Z</time>
      </trkpt>
      <trkpt lat="39.527532" lon="2.424102">
        <ele>151.536</ele>
        <time>2013-05-19T07:29:26Z</time>
      </trkpt>
      <trkpt lat="39.527502" lon="2.424088">
        <ele>149.670</ele>
        <time>2013-05-19T07:29:30Z</time>
      </trkpt>
      <trkpt lat="39.527462" lon="2.424082">
        <ele>149.627</ele>
        <time>2013-05-19T07:29:36Z</time>
      </trkpt>
      <trkpt lat="39.527390" lon="2.424063">
        <ele>148.792</ele>
        <time>2013-05-19T07:29:44Z</time>
      </trkpt>
      <trkpt lat="39.527347" lon="2.424053">
        <ele>148.755</ele>
        <time>2013-05-19T07:29:49Z</time>
      </trkpt>
      <trkpt lat="39.527268" lon="2.424037">
        <ele>147.707</ele>
        <time>2013-05-19T07:29:57Z</time>
      </trkpt>
      <trkpt lat="39.527261" lon="2.424034">
        <ele>148.217</ele>
        <time>2013-05-19T07:29:58Z</time>
      </trkpt>
      <trkpt lat="39.527202" lon="2.424005">
        <ele>148.207</ele>
        <time>2013-05-19T07:30:05Z</time>
      </trkpt>
      <trkpt lat="39.527152" lon="2.423983">
        <ele>148.289</ele>
        <time>2013-05-19T07:30:11Z</time>
      </trkpt>
      <trkpt lat="39.527089" lon="2.423970">
        <ele>148.290</ele>
        <time>2013-05-19T07:30:18Z</time>
      </trkpt>
      <trkpt lat="39.527058" lon="2.423958">
        <ele>148.286</ele>
        <time>2013-05-19T07:30:21Z</time>
      </trkpt>
      <trkpt lat="39.526994" lon="2.423931">
        <ele>148.249</ele>
        <time>2013-05-19T07:30:29Z</time>
      </trkpt>
      <trkpt lat="39.526938" lon="2.423900">
        <ele>148.273</ele>
        <time>2013-05-19T07:30:35Z</time>
      </trkpt>
      <trkpt lat="39.526921" lon="2.423898">
        <ele>149.160</ele>
        <time>2013-05-19T07:30:37Z</time>
      </trkpt>
      <trkpt lat="39.526901" lon="2.423897">
        <ele>149.175</ele>
        <time>2013-05-19T07:30:39Z</time>
      </trkpt>
      <trkpt lat="39.526834" lon="2.423868">
        <ele>149.687</ele>
        <time>2013-05-19T07:30:46Z</time>
      </trkpt>
      <trkpt lat="39.526815" lon="2.423854">
        <ele>149.642</ele>
        <time>2013-05-19T07:30:49Z</time>
      </trkpt>
      <trkpt lat="39.526789" lon="2.423835">
        <ele>150.626</ele>
        <time>2013-05-19T07:30:52Z</time>
      </trkpt>
      <trkpt lat="39.526745" lon="2.423794">
        <ele>150.607</ele>
        <time>2013-05-19T07:30:58Z</time>
      </trkpt>
      <trkpt lat="39.526720" lon="2.423773">
        <ele>151.562</ele>
        <time>2013-05-19T07:31:02Z</time>
      </trkpt>
      <trkpt lat="39.526681" lon="2.423722">
        <ele>152.063</ele>
        <time>2013-05-19T07:31:09Z</time>
      </trkpt>
      <trkpt lat="39.526659" lon="2.423664">
        <ele>153.089</ele>
        <time>2013-05-19T07:31:15Z</time>
      </trkpt>
      <trkpt lat="39.526645" lon="2.423629">
        <ele>152.512</ele>
        <time>2013-05-19T07:31:18Z</time>
      </trkpt>
      <trkpt lat="39.526619" lon="2.423581">
        <ele>153.086</ele>
        <time>2013-05-19T07:31:23Z</time>
      </trkpt>
      <trkpt lat="39.526580" lon="2.423506">
        <ele>154.993</ele>
        <time>2013-05-19T07:31:32Z</time>
      </trkpt>
      <trkpt lat="39.526531" lon="2.423459">
        <ele>155.418</ele>
        <time>2013-05-19T07:31:39Z</time>
      </trkpt>
      <trkpt lat="39.526509" lon="2.423429">
        <ele>155.917</ele>
        <time>2013-05-19T07:31:43Z</time>
      </trkpt>
      <trkpt lat="39.526459" lon="2.423378">
        <ele>156.487</ele>
        <time>2013-05-19T07:31:50Z</time>
      </trkpt>
      <trkpt lat="39.526433" lon="2.423306">
        <ele>156.415</ele>
        <time>2013-05-19T07:31:56Z</time>
      </trkpt>
      <trkpt lat="39.526397" lon="2.423280">
        <ele>156.807</ele>
        <time>2013-05-19T07:32:02Z</time>
      </trkpt>
      <trkpt lat="39.526383" lon="2.423274">
        <ele>156.825</ele>
        <time>2013-05-19T07:32:04Z</time>
      </trkpt>
      <trkpt lat="39.526350" lon="2.423274">
        <ele>157.866</ele>
        <time>2013-05-19T07:32:09Z</time>
      </trkpt>
      <trkpt lat="39.526301" lon="2.423232">
        <ele>157.352</ele>
        <time>2013-05-19T07:32:17Z</time>
      </trkpt>
      <trkpt lat="39.526250" lon="2.423185">
        <ele>158.895</ele>
        <time>2013-05-19T07:32:23Z</time>
      </trkpt>
      <trkpt lat="39.526204" lon="2.423122">
        <ele>158.889</ele>
        <time>2013-05-19T07:32:31Z</time>
      </trkpt>
      <trkpt lat="39.526148" lon="2.423093">
        <ele>158.376</ele>
        <time>2013-05-19T07:32:38Z</time>
      </trkpt>
      <trkpt lat="39.526089" lon="2.423035">
        <ele>158.841</ele>
        <time>2013-05-19T07:32:45Z</time>
      </trkpt>
      <trkpt lat="39.526077" lon="2.423024">
        <ele>158.892</ele>
        <time>2013-05-19T07:32:47Z</time>
      </trkpt>
      <trkpt lat="39.526041" lon="2.422968">
        <ele>159.273</ele>
        <time>2013-05-19T07:32:54Z</time>
      </trkpt>
      <trkpt lat="39.526009" lon="2.422914">
        <ele>159.720</ele>
        <time>2013-05-19T07:33:01Z</time>
      </trkpt>
      <trkpt lat="39.525986" lon="2.422890">
        <ele>160.207</ele>
        <time>2013-05-19T07:33:05Z</time>
      </trkpt>
      <trkpt lat="39.525934" lon="2.422863">
        <ele>161.223</ele>
        <time>2013-05-19T07:33:12Z</time>
      </trkpt>
      <trkpt lat="39.525913" lon="2.422844">
        <ele>161.284</ele>
        <time>2013-05-19T07:33:15Z</time>
      </trkpt>
      <trkpt lat="39.525873" lon="2.422820">
        <ele>162.180</ele>
        <time>2013-05-19T07:33:22Z</time>
      </trkpt>
      <trkpt lat="39.525846" lon="2.422769">
        <ele>163.123</ele>
        <time>2013-05-19T07:33:28Z</time>
      </trkpt>
      <trkpt lat="39.525794" lon="2.422726">
        <ele>164.067</ele>
        <time>2013-05-19T07:33:35Z</time>
      </trkpt>
      <trkpt lat="39.525738" lon="2.422676">
        <ele>165.094</ele>
        <time>2013-05-19T07:33:43Z</time>
      </trkpt>
      <trkpt lat="39.525709" lon="2.422676">
        <ele>165.519</ele>
        <time>2013-05-19T07:33:47Z</time>
      </trkpt>
      <trkpt lat="39.525663" lon="2.422673">
        <ele>165.062</ele>
        <time>2013-05-19T07:33:54Z</time>
      </trkpt>
      <trkpt lat="39.525628" lon="2.422672">
        <ele>166.983</ele>
        <time>2013-05-19T07:34:00Z</time>
      </trkpt>
      <trkpt lat="39.525588" lon="2.422681">
        <ele>168.411</ele>
        <time>2013-05-19T07:34:07Z</time>
      </trkpt>
      <trkpt lat="39.525548" lon="2.422690">
        <ele>168.907</ele>
        <time>2013-05-19T07:34:13Z</time>
      </trkpt>
      <trkpt lat="39.525537" lon="2.422694">
        <ele>169.380</ele>
        <time>2013-05-19T07:34:15Z</time>
      </trkpt>
      <trkpt lat="39.525518" lon="2.422739">
        <ele>169.381</ele>
        <time>2013-05-19T07:34:23Z</time>
      </trkpt>
      <trkpt lat="39.525505" lon="2.422763">
        <ele>170.867</ele>
        <time>2013-05-19T07:34:26Z</time>
      </trkpt>
      <trkpt lat="39.525483" lon="2.422802">
        <ele>169.860</ele>
        <time>2013-05-19T07:34:33Z</time>
      </trkpt>
      <trkpt lat="39.525476" lon="2.422803">
        <ele>169.864</ele>
        <time>2013-05-19T07:34:34Z</time>
      </trkpt>
      <trkpt lat="39.525457" lon="2.422796">
        <ele>169.831</ele>
        <time>2013-05-19T07:34:36Z</time>
      </trkpt>
      <trkpt lat="39.525407" lon="2.422769">
        <ele>169.866</ele>
        <time>2013-05-19T07:34:42Z</time>
      </trkpt>
      <trkpt lat="39.525340" lon="2.422748">
        <ele>169.888</ele>
        <time>2013-05-19T07:34:50Z</time>
      </trkpt>
      <trkpt lat="39.525285" lon="2.422718">
        <ele>169.324</ele>
        <time>2013-05-19T07:34:57Z</time>
      </trkpt>
      <trkpt lat="39.525232" lon="2.422683">
        <ele>170.826</ele>
        <time>2013-05-19T07:35:05Z</time>
      </trkpt>
      <trkpt lat="39.525190" lon="2.422664">
        <ele>171.307</ele>
        <time>2013-05-19T07:35:11Z</time>
      </trkpt>
      <trkpt lat="39.525148" lon="2.422635">
        <ele>171.312</ele>
        <time>2013-05-19T07:35:18Z</time>
      </trkpt>
      <trkpt lat="39.525118" lon="2.422616">
        <ele>170.313</ele>
        <time>2013-05-19T07:35:23Z</time>
      </trkpt>
      <trkpt lat="39.525075" lon="2.422575">
        <ele>171.749</ele>
        <time>2013-05-19T07:35:30Z</time>
      </trkpt>
      <trkpt lat="39.525075" lon="2.422575">
        <ele>170.842</ele>
        <time>2013-05-19T07:35:37Z</time>
      </trkpt>
      <trkpt lat="39.525006" lon="2.422535">
        <ele>170.856</ele>
        <time>2013-05-19T07:35:44Z</time>
      </trkpt>
      <trkpt lat="39.524949" lon="2.422502">
        <ele>170.343</ele>
        <time>2013-05-19T07:35:51Z</time>
      </trkpt>
      <trkpt lat="39.524922" lon="2.422482">
        <ele>169.388</ele>
        <time>2013-05-19T07:35:57Z</time>
      </trkpt>
      <trkpt lat="39.524911" lon="2.422478">
        <ele>167.943</ele>
        <time>2013-05-19T07:36:03Z</time>
      </trkpt>
      <trkpt lat="39.524911" lon="2.422478">
        <ele>168.464</ele>
        <time>2013-05-19T07:36:08Z</time>
      </trkpt>
      <trkpt lat="39.524879" lon="2.422471">
        <ele>170.310</ele>
        <time>2013-05-19T07:36:12Z</time>
      </trkpt>
      <trkpt lat="39.524817" lon="2.422442">
        <ele>167.407</ele>
        <time>2013-05-19T07:36:18Z</time>
      </trkpt>
      <trkpt lat="39.524807" lon="2.422438">
        <ele>167.498</ele>
        <time>2013-05-19T07:36:20Z</time>
      </trkpt>
      <trkpt lat="39.524793" lon="2.422386">
        <ele>168.939</ele>
        <time>2013-05-19T07:36:25Z</time>
      </trkpt>
      <trkpt lat="39.524781" lon="2.422348">
        <ele>169.865</ele>
        <time>2013-05-19T07:36:31Z</time>
      </trkpt>
      <trkpt lat="39.524780" lon="2.422345">
        <ele>170.858</ele>
        <time>2013-05-19T07:36:37Z</time>
      </trkpt>
      <trkpt lat="39.524771" lon="2.422334">
        <ele>171.772</ele>
        <time>2013-05-19T07:36:43Z</time>
      </trkpt>
      <trkpt lat="39.524771" lon="2.422334">
        <ele>171.769</ele>
        <time>2013-05-19T07:36:51Z</time>
      </trkpt>
      <trkpt lat="39.524767" lon="2.422283">
        <ele>169.394</ele>
        <time>2013-05-19T07:36:56Z</time>
      </trkpt>
      <trkpt lat="39.524756" lon="2.422224">
        <ele>168.998</ele>
        <time>2013-05-19T07:37:03Z</time>
      </trkpt>
      <trkpt lat="39.524731" lon="2.422172">
        <ele>168.915</ele>
        <time>2013-05-19T07:37:09Z</time>
      </trkpt>
      <trkpt lat="39.524720" lon="2.422142">
        <ele>167.926</ele>
        <time>2013-05-19T07:37:15Z</time>
      </trkpt>
      <trkpt lat="39.524707" lon="2.422132">
        <ele>168.407</ele>
        <time>2013-05-19T07:37:23Z</time>
      </trkpt>
      <trkpt lat="39.524707" lon="2.422132">
        <ele>168.923</ele>
        <time>2013-05-19T07:37:32Z</time>
      </trkpt>
      <trkpt lat="39.524707" lon="2.422132">
        <ele>167.924</ele>
        <time>2013-05-19T07:37:39Z</time>
      </trkpt>
      <trkpt lat="39.524707" lon="2.422132">
        <ele>168.980</ele>
        <time>2013-05-19T07:37:48Z</time>
      </trkpt>
      <trkpt lat="39.524706" lon="2.422130">
        <ele>168.983</ele>
        <time>2013-05-19T07:37:59Z</time>
      </trkpt>
      <trkpt lat="39.524706" lon="2.422130">
        <ele>170.827</ele>
        <time>2013-05-19T07:38:03Z</time>
      </trkpt>
      <trkpt lat="39.524706" lon="2.422130">
        <ele>167.944</ele>
        <time>2013-05-19T07:38:10Z</time>
      </trkpt>
      <trkpt lat="39.524706" lon="2.422130">
        <ele>168.439</ele>
        <time>2013-05-19T07:38:19Z</time>
      </trkpt>
      <trkpt lat="39.524706" lon="2.422130">
        <ele>167.956</ele>
        <time>2013-05-19T07:38:25Z</time>
      </trkpt>
      <trkpt lat="39.524706" lon="2.422130">
        <ele>168.459</ele>
        <time>2013-05-19T07:38:36Z</time>
      </trkpt>
      <trkpt lat="39.524707" lon="2.422132">
        <ele>167.914</ele>
        <time>2013-05-19T07:38:46Z</time>
      </trkpt>
      <trkpt lat="39.524707" lon="2.422132">
        <ele>169.307</ele>
        <time>2013-05-19T07:38:48Z</time>
      </trkpt>
      <trkpt lat="39.524707" lon="2.422132">
        <ele>168.979</ele>
        <time>2013-05-19T07:38:57Z</time>
      </trkpt>
      <trkpt lat="39.524707" lon="2.422132">
        <ele>168.490</ele>
        <time>2013-05-19T07:39:06Z</time>
      </trkpt>
      <trkpt lat="39.524708" lon="2.422134">
        <ele>167.926</ele>
        <time>2013-05-19T07:39:19Z</time>
      </trkpt>
      <trkpt lat="39.524708" lon="2.422134">
        <ele>167.919</ele>
        <time>2013-05-19T07:39:26Z</time>
      </trkpt>
      <trkpt lat="39.524708" lon="2.422134">
        <ele>168.933</ele>
        <time>2013-05-19T07:39:37Z</time>
      </trkpt>
      <trkpt lat="39.524708" lon="2.422134">
        <ele>169.310</ele>
        <time>2013-05-19T07:39:49Z</time>
      </trkpt>
      <trkpt lat="39.524708" lon="2.422135">
        <ele>167.935</ele>
        <time>2013-05-19T07:40:02Z</time>
      </trkpt>
      <trkpt lat="39.524708" lon="2.422135">
        <ele>168.415</ele>
        <time>2013-05-19T07:40:10Z</time>
      </trkpt>
      <trkpt lat="39.524708" lon="2.422135">
        <ele>168.465</ele>
        <time>2013-05-19T07:40:16Z</time>
      </trkpt>
      <trkpt lat="39.524716" lon="2.422161">
        <ele>169.311</ele>
        <time>2013-05-19T07:40:25Z</time>
      </trkpt>
      <trkpt lat="39.524743" lon="2.422228">
        <ele>170.307</ele>
        <time>2013-05-19T07:40:33Z</time>
      </trkpt>
      <trkpt lat="39.524757" lon="2.422275">
        <ele>170.855</ele>
        <time>2013-05-19T07:40:40Z</time>
      </trkpt>
      <trkpt lat="39.524774" lon="2.422300">
        <ele>171.776</ele>
        <time>2013-05-19T07:40:47Z</time>
      </trkpt>
      <trkpt lat="39.524775" lon="2.422303">
        <ele>172.242</ele>
        <time>2013-05-19T07:40:55Z</time>
      </trkpt>
      <trkpt lat="39.524775" lon="2.422303">
        <ele>170.815</ele>
        <time>2013-05-19T07:41:02Z</time>
      </trkpt>
      <trkpt lat="39.524774" lon="2.422348">
        <ele>169.319</ele>
        <time>2013-05-19T07:41:09Z</time>
      </trkpt>
      <trkpt lat="39.524767" lon="2.422379">
        <ele>169.836</ele>
        <time>2013-05-19T07:41:16Z</time>
      </trkpt>
      <trkpt lat="39.524767" lon="2.422379">
        <ele>169.811</ele>
        <time>2013-05-19T07:41:24Z</time>
      </trkpt>
      <trkpt lat="39.524767" lon="2.422379">
        <ele>166.964</ele>
        <time>2013-05-19T07:41:33Z</time>
      </trkpt>
      <trkpt lat="39.524767" lon="2.422379">
        <ele>168.406</ele>
        <time>2013-05-19T07:41:34Z</time>
      </trkpt>
      <trkpt lat="39.524767" lon="2.422379">
        <ele>168.416</ele>
        <time>2013-05-19T07:41:40Z</time>
      </trkpt>
      <trkpt lat="39.524795" lon="2.422416">
        <ele>170.307</ele>
        <time>2013-05-19T07:41:46Z</time>
      </trkpt>
      <trkpt lat="39.524865" lon="2.422457">
        <ele>169.310</ele>
        <time>2013-05-19T07:41:53Z</time>
      </trkpt>
      <trkpt lat="39.524931" lon="2.422480">
        <ele>171.731</ele>
        <time>2013-05-19T07:42:01Z</time>
      </trkpt>
      <trkpt lat="39.524992" lon="2.422521">
        <ele>171.357</ele>
        <time>2013-05-19T07:42:10Z</time>
      </trkpt>
      <trkpt lat="39.524998" lon="2.422522">
        <ele>171.750</ele>
        <time>2013-05-19T07:42:12Z</time>
      </trkpt>
      <trkpt lat="39.525027" lon="2.422573">
        <ele>171.714</ele>
        <time>2013-05-19T07:42:19Z</time>
      </trkpt>
      <trkpt lat="39.525031" lon="2.422578">
        <ele>171.771</ele>
        <time>2013-05-19T07:42:27Z</time>
      </trkpt>
      <trkpt lat="39.525051" lon="2.422583">
        <ele>172.216</ele>
        <time>2013-05-19T07:42:34Z</time>
      </trkpt>
      <trkpt lat="39.525097" lon="2.422626">
        <ele>172.262</ele>
        <time>2013-05-19T07:42:41Z</time>
      </trkpt>
      <trkpt lat="39.525123" lon="2.422643">
        <ele>171.783</ele>
        <time>2013-05-19T07:42:47Z</time>
      </trkpt>
      <trkpt lat="39.525162" lon="2.422680">
        <ele>170.811</ele>
        <time>2013-05-19T07:42:53Z</time>
      </trkpt>
      <trkpt lat="39.525206" lon="2.422749">
        <ele>170.807</ele>
        <time>2013-05-19T07:43:01Z</time>
      </trkpt>
      <trkpt lat="39.525301" lon="2.422780">
        <ele>170.890</ele>
        <time>2013-05-19T07:43:10Z</time>
      </trkpt>
      <trkpt lat="39.525375" lon="2.422814">
        <ele>169.831</ele>
        <time>2013-05-19T07:43:18Z</time>
      </trkpt>
      <trkpt lat="39.525419" lon="2.422825">
        <ele>169.357</ele>
        <time>2013-05-19T07:43:23Z</time>
      </trkpt>
      <trkpt lat="39.525463" lon="2.422813">
        <ele>169.840</ele>
        <time>2013-05-19T07:43:31Z</time>
      </trkpt>
      <trkpt lat="39.525463" lon="2.422813">
        <ele>169.864</ele>
        <time>2013-05-19T07:43:38Z</time>
      </trkpt>
      <trkpt lat="39.525482" lon="2.422794">
        <ele>168.451</ele>
        <time>2013-05-19T07:43:44Z</time>
      </trkpt>
      <trkpt lat="39.525545" lon="2.422740">
        <ele>168.976</ele>
        <time>2013-05-19T07:43:50Z</time>
      </trkpt>
      <trkpt lat="39.525613" lon="2.422705">
        <ele>166.984</ele>
        <time>2013-05-19T07:43:58Z</time>
      </trkpt>
      <trkpt lat="39.525649" lon="2.422688">
        <ele>167.407</ele>
        <time>2013-05-19T07:44:04Z</time>
      </trkpt>
      <trkpt lat="39.525685" lon="2.422685">
        <ele>166.917</ele>
        <time>2013-05-19T07:44:11Z</time>
      </trkpt>
      <trkpt lat="39.525703" lon="2.422680">
        <ele>165.507</ele>
        <time>2013-05-19T07:44:14Z</time>
      </trkpt>
      <trkpt lat="39.525766" lon="2.422691">
        <ele>164.592</ele>
        <time>2013-05-19T07:44:22Z</time>
      </trkpt>
      <trkpt lat="39.525813" lon="2.422727">
        <ele>164.073</ele>
        <time>2013-05-19T07:44:29Z</time>
      </trkpt>
      <trkpt lat="39.525831" lon="2.422747">
        <ele>163.619</ele>
        <time>2013-05-19T07:44:34Z</time>
      </trkpt>
      <trkpt lat="39.525863" lon="2.422759">
        <ele>162.652</ele>
        <time>2013-05-19T07:44:40Z</time>
      </trkpt>
      <trkpt lat="39.525870" lon="2.422775">
        <ele>163.666</ele>
        <time>2013-05-19T07:44:42Z</time>
      </trkpt>
      <trkpt lat="39.525902" lon="2.422823">
        <ele>162.643</ele>
        <time>2013-05-19T07:44:49Z</time>
      </trkpt>
      <trkpt lat="39.525938" lon="2.422851">
        <ele>160.768</ele>
        <time>2013-05-19T07:44:55Z</time>
      </trkpt>
      <trkpt lat="39.525998" lon="2.422885">
        <ele>160.775</ele>
        <time>2013-05-19T07:45:04Z</time>
      </trkpt>
      <trkpt lat="39.526033" lon="2.422949">
        <ele>159.728</ele>
        <time>2013-05-19T07:45:11Z</time>
      </trkpt>
      <trkpt lat="39.526074" lon="2.423010">
        <ele>159.720</ele>
        <time>2013-05-19T07:45:18Z</time>
      </trkpt>
      <trkpt lat="39.526126" lon="2.423056">
        <ele>158.807</ele>
        <time>2013-05-19T07:45:25Z</time>
      </trkpt>
      <trkpt lat="39.526184" lon="2.423109">
        <ele>158.361</ele>
        <time>2013-05-19T07:45:33Z</time>
      </trkpt>
      <trkpt lat="39.526197" lon="2.423119">
        <ele>158.362</ele>
        <time>2013-05-19T07:45:35Z</time>
      </trkpt>
      <trkpt lat="39.526255" lon="2.423176">
        <ele>159.778</ele>
        <time>2013-05-19T07:45:43Z</time>
      </trkpt>
      <trkpt lat="39.526287" lon="2.423200">
        <ele>158.371</ele>
        <time>2013-05-19T07:45:47Z</time>
      </trkpt>
      <trkpt lat="39.526332" lon="2.423245">
        <ele>157.875</ele>
        <time>2013-05-19T07:45:54Z</time>
      </trkpt>
      <trkpt lat="39.526381" lon="2.423288">
        <ele>157.842</ele>
        <time>2013-05-19T07:46:02Z</time>
      </trkpt>
      <trkpt lat="39.526409" lon="2.423281">
        <ele>156.837</ele>
        <time>2013-05-19T07:46:09Z</time>
      </trkpt>
      <trkpt lat="39.526457" lon="2.423347">
        <ele>157.351</ele>
        <time>2013-05-19T07:46:17Z</time>
      </trkpt>
      <trkpt lat="39.526460" lon="2.423368">
        <ele>157.301</ele>
        <time>2013-05-19T07:46:19Z</time>
      </trkpt>
      <trkpt lat="39.526501" lon="2.423412">
        <ele>156.411</ele>
        <time>2013-05-19T07:46:25Z</time>
      </trkpt>
      <trkpt lat="39.526538" lon="2.423452">
        <ele>156.407</ele>
        <time>2013-05-19T07:46:31Z</time>
      </trkpt>
      <trkpt lat="39.526568" lon="2.423482">
        <ele>154.969</ele>
        <time>2013-05-19T07:46:37Z</time>
      </trkpt>
      <trkpt lat="39.526576" lon="2.423496">
        <ele>154.460</ele>
        <time>2013-05-19T07:46:44Z</time>
      </trkpt>
      <trkpt lat="39.526579" lon="2.423490">
        <ele>156.436</ele>
        <time>2013-05-19T07:46:52Z</time>
      </trkpt>
      <trkpt lat="39.526595" lon="2.423536">
        <ele>154.969</ele>
        <time>2013-05-19T07:47:01Z</time>
      </trkpt>
      <trkpt lat="39.526600" lon="2.423545">
        <ele>154.983</ele>
        <time>2013-05-19T07:47:02Z</time>
      </trkpt>
      <trkpt lat="39.526619" lon="2.423592">
        <ele>153.540</ele>
        <time>2013-05-19T07:47:07Z</time>
      </trkpt>
      <trkpt lat="39.526664" lon="2.423680">
        <ele>153.095</ele>
        <time>2013-05-19T07:47:16Z</time>
      </trkpt>
      <trkpt lat="39.526667" lon="2.423690">
        <ele>153.544</ele>
        <time>2013-05-19T07:47:17Z</time>
      </trkpt>
      <trkpt lat="39.526695" lon="2.423769">
        <ele>153.505</ele>
        <time>2013-05-19T07:47:24Z</time>
      </trkpt>
      <trkpt lat="39.526753" lon="2.423806">
        <ele>150.115</ele>
        <time>2013-05-19T07:47:31Z</time>
      </trkpt>
      <trkpt lat="39.526811" lon="2.423855">
        <ele>151.507</ele>
        <time>2013-05-19T07:47:38Z</time>
      </trkpt>
      <trkpt lat="39.526888" lon="2.423896">
        <ele>150.148</ele>
        <time>2013-05-19T07:47:46Z</time>
      </trkpt>
      <trkpt lat="39.526951" lon="2.423926">
        <ele>150.169</ele>
        <time>2013-05-19T07:47:53Z</time>
      </trkpt>
      <trkpt lat="39.527011" lon="2.423942">
        <ele>149.125</ele>
        <time>2013-05-19T07:47:59Z</time>
      </trkpt>
      <trkpt lat="39.527040" lon="2.423964">
        <ele>147.738</ele>
        <time>2013-05-19T07:48:03Z</time>
      </trkpt>
      <trkpt lat="39.527112" lon="2.424001">
        <ele>147.722</ele>
        <time>2013-05-19T07:48:11Z</time>
      </trkpt>
      <trkpt lat="39.527153" lon="2.424023">
        <ele>147.259</ele>
        <time>2013-05-19T07:48:16Z</time>
      </trkpt>
      <trkpt lat="39.527228" lon="2.424041">
        <ele>147.794</ele>
        <time>2013-05-19T07:48:23Z</time>
      </trkpt>
      <trkpt lat="39.527237" lon="2.424045">
        <ele>146.345</ele>
        <time>2013-05-19T07:48:24Z</time>
      </trkpt>
      <trkpt lat="39.527301" lon="2.424059">
        <ele>146.747</ele>
        <time>2013-05-19T07:48:31Z</time>
      </trkpt>
      <trkpt lat="39.527355" lon="2.424073">
        <ele>147.211</ele>
        <time>2013-05-19T07:48:38Z</time>
      </trkpt>
      <trkpt lat="39.527411" lon="2.424090">
        <ele>148.707</ele>
        <time>2013-05-19T07:48:45Z</time>
      </trkpt>
      <trkpt lat="39.527480" lon="2.424106">
        <ele>149.678</ele>
        <time>2013-05-19T07:48:52Z</time>
      </trkpt>
      <trkpt lat="39.527537" lon="2.424124">
        <ele>151.159</ele>
        <time>2013-05-19T07:48:59Z</time>
      </trkpt>
      <trkpt lat="39.527544" lon="2.424126">
        <ele>150.675</ele>
        <time>2013-05-19T07:49:00Z</time>
      </trkpt>
      <trkpt lat="39.527590" lon="2.424168">
        <ele>152.518</ele>
        <time>2013-05-19T07:49:08Z</time>
      </trkpt>
      <trkpt lat="39.527633" lon="2.424185">
        <ele>152.592</ele>
        <time>2013-05-19T07:49:14Z</time>
      </trkpt>
      <trkpt lat="39.527683" lon="2.424218">
        <ele>154.479</ele>
        <time>2013-05-19T07:49:21Z</time>
      </trkpt>
      <trkpt lat="39.527719" lon="2.424276">
        <ele>153.534</ele>
        <time>2013-05-19T07:49:28Z</time>
      </trkpt>
      <trkpt lat="39.527730" lon="2.424282">
        <ele>152.551</ele>
        <time>2013-05-19T07:49:29Z</time>
      </trkpt>
      <trkpt lat="39.527793" lon="2.424358">
        <ele>153.501</ele>
        <time>2013-05-19T07:49:38Z</time>
      </trkpt>
      <trkpt lat="39.527849" lon="2.424398">
        <ele>152.511</ele>
        <time>2013-05-19T07:49:45Z</time>
      </trkpt>
      <trkpt lat="39.527927" lon="2.424437">
        <ele>151.507</ele>
        <time>2013-05-19T07:49:54Z</time>
      </trkpt>
      <trkpt lat="39.527970" lon="2.424450">
        <ele>150.619</ele>
        <time>2013-05-19T07:50:01Z</time>
      </trkpt>
      <trkpt lat="39.527978" lon="2.424454">
        <ele>152.590</ele>
        <time>2013-05-19T07:50:09Z</time>
      </trkpt>
      <trkpt lat="39.528012" lon="2.424465">
        <ele>152.546</ele>
        <time>2013-05-19T07:50:16Z</time>
      </trkpt>
      <trkpt lat="39.528037" lon="2.424477">
        <ele>151.599</ele>
        <time>2013-05-19T07:50:19Z</time>
      </trkpt>
      <trkpt lat="39.528100" lon="2.424524">
        <ele>150.623</ele>
        <time>2013-05-19T07:50:27Z</time>
      </trkpt>
      <trkpt lat="39.528108" lon="2.424528">
        <ele>150.650</ele>
        <time>2013-05-19T07:50:28Z</time>
      </trkpt>
      <trkpt lat="39.528177" lon="2.424569">
        <ele>150.155</ele>
        <time>2013-05-19T07:50:37Z</time>
      </trkpt>
      <trkpt lat="39.528193" lon="2.424594">
        <ele>150.139</ele>
        <time>2013-05-19T07:50:40Z</time>
      </trkpt>
      <trkpt lat="39.528225" lon="2.424627">
        <ele>149.601</ele>
        <time>2013-05-19T07:50:44Z</time>
      </trkpt>
      <trkpt lat="39.528268" lon="2.424682">
        <ele>149.621</ele>
        <time>2013-05-19T07:50:51Z</time>
      </trkpt>
      <trkpt lat="39.528348" lon="2.424697">
        <ele>149.107</ele>
        <time>2013-05-19T07:50:59Z</time>
      </trkpt>
      <trkpt lat="39.528377" lon="2.424692">
        <ele>150.157</ele>
        <time>2013-05-19T07:51:02Z</time>
      </trkpt>
      <trkpt lat="39.528401" lon="2.424691">
        <ele>150.698</ele>
        <time>2013-05-19T07:51:04Z</time>
      </trkpt>
      <trkpt lat="39.528426" lon="2.424694">
        <ele>149.164</ele>
        <time>2013-05-19T07:51:07Z</time>
      </trkpt>
      <trkpt lat="39.528441" lon="2.424696">
        <ele>149.637</ele>
        <time>2013-05-19T07:51:14Z</time>
      </trkpt>
      <trkpt lat="39.528452" lon="2.424691">
        <ele>150.111</ele>
        <time>2013-05-19T07:51:21Z</time>
      </trkpt>
      <trkpt lat="39.528470" lon="2.424689">
        <ele>150.118</ele>
        <time>2013-05-19T07:51:23Z</time>
      </trkpt>
      <trkpt lat="39.528533" lon="2.424695">
        <ele>149.623</ele>
        <time>2013-05-19T07:51:31Z</time>
      </trkpt>
      <trkpt lat="39.528560" lon="2.424710">
        <ele>148.253</ele>
        <time>2013-05-19T07:51:36Z</time>
      </trkpt>
      <trkpt lat="39.528619" lon="2.424714">
        <ele>149.104</ele>
        <time>2013-05-19T07:51:44Z</time>
      </trkpt>
      <trkpt lat="39.528683" lon="2.424678">
        <ele>150.114</ele>
        <time>2013-05-19T07:51:51Z</time>
      </trkpt>
      <trkpt lat="39.528742" lon="2.424664">
        <ele>151.507</ele>
        <time>2013-05-19T07:51:58Z</time>
      </trkpt>
      <trkpt lat="39.528759" lon="2.424688">
        <ele>151.519</ele>
        <time>2013-05-19T07:52:06Z</time>
      </trkpt>
      <trkpt lat="39.528790" lon="2.424723">
        <ele>151.120</ele>
        <time>2013-05-19T07:52:14Z</time>
      </trkpt>
      <trkpt lat="39.528821" lon="2.424756">
        <ele>150.146</ele>
        <time>2013-05-19T07:52:20Z</time>
      </trkpt>
      <trkpt lat="39.528830" lon="2.424758">
        <ele>150.189</ele>
        <time>2013-05-19T07:52:21Z</time>
      </trkpt>
      <trkpt lat="39.528840" lon="2.424787">
        <ele>151.573</ele>
        <time>2013-05-19T07:52:27Z</time>
      </trkpt>
      <trkpt lat="39.528861" lon="2.424788">
        <ele>150.620</ele>
        <time>2013-05-19T07:52:30Z</time>
      </trkpt>
      <trkpt lat="39.528905" lon="2.424812">
        <ele>153.015</ele>
        <time>2013-05-19T07:52:37Z</time>
      </trkpt>
      <trkpt lat="39.528905" lon="2.424812">
        <ele>149.616</ele>
        <time>2013-05-19T07:52:38Z</time>
      </trkpt>
      <trkpt lat="39.528931" lon="2.424836">
        <ele>152.076</ele>
        <time>2013-05-19T07:52:45Z</time>
      </trkpt>
      <trkpt lat="39.528931" lon="2.424836">
        <ele>148.213</ele>
        <time>2013-05-19T07:52:46Z</time>
      </trkpt>
      <trkpt lat="39.528931" lon="2.424836">
        <ele>151.507</ele>
        <time>2013-05-19T07:52:47Z</time>
      </trkpt>
      <trkpt lat="39.528945" lon="2.424832">
        <ele>151.115</ele>
        <time>2013-05-19T07:52:57Z</time>
      </trkpt>
      <trkpt lat="39.528985" lon="2.424863">
        <ele>151.166</ele>
        <time>2013-05-19T07:53:05Z</time>
      </trkpt>
      <trkpt lat="39.529034" lon="2.424875">
        <ele>149.112</ele>
        <time>2013-05-19T07:53:12Z</time>
      </trkpt>
      <trkpt lat="39.529035" lon="2.424888">
        <ele>150.145</ele>
        <time>2013-05-19T07:53:20Z</time>
      </trkpt>
      <trkpt lat="39.529061" lon="2.424927">
        <ele>148.799</ele>
        <time>2013-05-19T07:53:29Z</time>
      </trkpt>
      <trkpt lat="39.529095" lon="2.424953">
        <ele>148.776</ele>
        <time>2013-05-19T07:53:35Z</time>
      </trkpt>
      <trkpt lat="39.529111" lon="2.424943">
        <ele>148.761</ele>
        <time>2013-05-19T07:53:44Z</time>
      </trkpt>
      <trkpt lat="39.529133" lon="2.424886">
        <ele>149.142</ele>
        <time>2013-05-19T07:53:52Z</time>
      </trkpt>
      <trkpt lat="39.529154" lon="2.424819">
        <ele>149.622</ele>
        <time>2013-05-19T07:53:59Z</time>
      </trkpt>
      <trkpt lat="39.529150" lon="2.424764">
        <ele>148.714</ele>
        <time>2013-05-19T07:54:06Z</time>
      </trkpt>
      <trkpt lat="39.529146" lon="2.424716">
        <ele>148.207</ele>
        <time>2013-05-19T07:54:12Z</time>
      </trkpt>
      <trkpt lat="39.529142" lon="2.424734">
        <ele>147.218</ele>
        <time>2013-05-19T07:54:19Z</time>
      </trkpt>
      <trkpt lat="39.529145" lon="2.424738">
        <ele>147.779</ele>
        <time>2013-05-19T07:54:26Z</time>
      </trkpt>
      <trkpt lat="39.529145" lon="2.424738">
        <ele>148.215</ele>
        <time>2013-05-19T07:54:35Z</time>
      </trkpt>
      <trkpt lat="39.529145" lon="2.424738">
        <ele>148.248</ele>
        <time>2013-05-19T07:54:49Z</time>
      </trkpt>
      <trkpt lat="39.529145" lon="2.424738">
        <ele>149.122</ele>
        <time>2013-05-19T07:55:02Z</time>
      </trkpt>
      <trkpt lat="39.529153" lon="2.424735">
        <ele>148.769</ele>
        <time>2013-05-19T07:55:14Z</time>
      </trkpt>
      <trkpt lat="39.529153" lon="2.424735">
        <ele>148.264</ele>
        <time>2013-05-19T07:55:28Z</time>
      </trkpt>
      <trkpt lat="39.529149" lon="2.424736">
        <ele>148.234</ele>
        <time>2013-05-19T07:55:37Z</time>
      </trkpt>
      <trkpt lat="39.529149" lon="2.424736">
        <ele>147.755</ele>
        <time>2013-05-19T07:55:48Z</time>
      </trkpt>
      <trkpt lat="39.529149" lon="2.424736">
        <ele>148.710</ele>
        <time>2013-05-19T07:55:54Z</time>
      </trkpt>
      <trkpt lat="39.529149" lon="2.424736">
        <ele>147.207</ele>
        <time>2013-05-19T07:56:05Z</time>
      </trkpt>
      <trkpt lat="39.529150" lon="2.424737">
        <ele>146.747</ele>
        <time>2013-05-19T07:56:21Z</time>
      </trkpt>
      <trkpt lat="39.529150" lon="2.424737">
        <ele>147.248</ele>
        <time>2013-05-19T07:56:32Z</time>
      </trkpt>
      <trkpt lat="39.529152" lon="2.424718">
        <ele>148.244</ele>
        <time>2013-05-19T07:56:44Z</time>
      </trkpt>
      <trkpt lat="39.529150" lon="2.424717">
        <ele>147.227</ele>
        <time>2013-05-19T07:56:52Z</time>
      </trkpt>
      <trkpt lat="39.529150" lon="2.424717">
        <ele>148.251</ele>
        <time>2013-05-19T07:57:05Z</time>
      </trkpt>
      <trkpt lat="39.529148" lon="2.424721">
        <ele>147.278</ele>
        <time>2013-05-19T07:57:11Z</time>
      </trkpt>
      <trkpt lat="39.529148" lon="2.424721">
        <ele>147.293</ele>
        <time>2013-05-19T07:57:21Z</time>
      </trkpt>
      <trkpt lat="39.529148" lon="2.424721">
        <ele>148.298</ele>
        <time>2013-05-19T07:57:36Z</time>
      </trkpt>
      <trkpt lat="39.529148" lon="2.424721">
        <ele>148.215</ele>
        <time>2013-05-19T07:57:45Z</time>
      </trkpt>
      <trkpt lat="39.529153" lon="2.424719">
        <ele>148.726</ele>
        <time>2013-05-19T07:57:59Z</time>
      </trkpt>
      <trkpt lat="39.529153" lon="2.424719">
        <ele>149.607</ele>
        <time>2013-05-19T07:58:11Z</time>
      </trkpt>
      <trkpt lat="39.529153" lon="2.424719">
        <ele>147.273</ele>
        <time>2013-05-19T07:58:21Z</time>
      </trkpt>
      <trkpt lat="39.529158" lon="2.424716">
        <ele>148.754</ele>
        <time>2013-05-19T07:58:34Z</time>
      </trkpt>
      <trkpt lat="39.529158" lon="2.424716">
        <ele>148.250</ele>
        <time>2013-05-19T07:58:45Z</time>
      </trkpt>
      <trkpt lat="39.529160" lon="2.424726">
        <ele>148.233</ele>
        <time>2013-05-19T07:58:57Z</time>
      </trkpt>
      <trkpt lat="39.529160" lon="2.424726">
        <ele>147.787</ele>
        <time>2013-05-19T07:59:10Z</time>
      </trkpt>
      <trkpt lat="39.529160" lon="2.424726">
        <ele>148.284</ele>
        <time>2013-05-19T07:59:22Z</time>
      </trkpt>
      <trkpt lat="39.529163" lon="2.424730">
        <ele>147.719</ele>
        <time>2013-05-19T07:59:31Z</time>
      </trkpt>
      <trkpt lat="39.529157" lon="2.424746">
        <ele>146.385</ele>
        <time>2013-05-19T07:59:37Z</time>
      </trkpt>
      <trkpt lat="39.529157" lon="2.424746">
        <ele>146.789</ele>
        <time>2013-05-19T07:59:54Z</time>
      </trkpt>
      <trkpt lat="39.529165" lon="2.424775">
        <ele>148.217</ele>
        <time>2013-05-19T07:59:57Z</time>
      </trkpt>
      <trkpt lat="39.529162" lon="2.424806">
        <ele>148.207</ele>
        <time>2013-05-19T08:00:00Z</time>
      </trkpt>
      <trkpt lat="39.529164" lon="2.424840">
        <ele>148.782</ele>
        <time>2013-05-19T08:00:06Z</time>
      </trkpt>
      <trkpt lat="39.529162" lon="2.424856">
        <ele>149.683</ele>
        <time>2013-05-19T08:00:11Z</time>
      </trkpt>
      <trkpt lat="39.529157" lon="2.424890">
        <ele>148.759</ele>
        <time>2013-05-19T08:00:17Z</time>
      </trkpt>
      <trkpt lat="39.529148" lon="2.424900">
        <ele>149.142</ele>
        <time>2013-05-19T08:00:19Z</time>
      </trkpt>
      <trkpt lat="39.529143" lon="2.424924">
        <ele>148.766</ele>
        <time>2013-05-19T08:00:25Z</time>
      </trkpt>
      <trkpt lat="39.529138" lon="2.424942">
        <ele>147.763</ele>
        <time>2013-05-19T08:00:33Z</time>
      </trkpt>
      <trkpt lat="39.529138" lon="2.424942">
        <ele>147.788</ele>
        <time>2013-05-19T08:00:47Z</time>
      </trkpt>
      <trkpt lat="39.529138" lon="2.424942">
        <ele>148.269</ele>
        <time>2013-05-19T08:01:02Z</time>
      </trkpt>
      <trkpt lat="39.529136" lon="2.424942">
        <ele>148.204</ele>
        <time>2013-05-19T08:01:20Z</time>
      </trkpt>
      <trkpt lat="39.529136" lon="2.424942">
        <ele>146.724</ele>
        <time>2013-05-19T08:01:22Z</time>
      </trkpt>
      <trkpt lat="39.529136" lon="2.424942">
        <ele>147.207</ele>
        <time>2013-05-19T08:01:44Z</time>
      </trkpt>
      <trkpt lat="39.529134" lon="2.424943">
        <ele>147.750</ele>
        <time>2013-05-19T08:02:01Z</time>
      </trkpt>
      <trkpt lat="39.529134" lon="2.424943">
        <ele>148.211</ele>
        <time>2013-05-19T08:02:17Z</time>
      </trkpt>
      <trkpt lat="39.529134" lon="2.424943">
        <ele>148.267</ele>
        <time>2013-05-19T08:02:36Z</time>
      </trkpt>
      <trkpt lat="39.529134" lon="2.424943">
        <ele>147.770</ele>
        <time>2013-05-19T08:02:54Z</time>
      </trkpt>
      <trkpt lat="39.529134" lon="2.424943">
        <ele>147.294</ele>
        <time>2013-05-19T08:03:12Z</time>
      </trkpt>
      <trkpt lat="39.529134" lon="2.424943">
        <ele>147.721</ele>
        <time>2013-05-19T08:03:30Z</time>
      </trkpt>
      <trkpt lat="39.529134" lon="2.424943">
        <ele>148.716</ele>
        <time>2013-05-19T08:03:48Z</time>
      </trkpt>
      <trkpt lat="39.529134" lon="2.424945">
        <ele>147.249</ele>
        <time>2013-05-19T08:04:05Z</time>
      </trkpt>
      <trkpt lat="39.529134" lon="2.424945">
        <ele>148.202</ele>
        <time>2013-05-19T08:04:21Z</time>
      </trkpt>
      <trkpt lat="39.529133" lon="2.424947">
        <ele>147.722</ele>
        <time>2013-05-19T08:04:34Z</time>
      </trkpt>
      <trkpt lat="39.529133" lon="2.424947">
        <ele>147.707</ele>
        <time>2013-05-19T08:04:49Z</time>
      </trkpt>
      <trkpt lat="39.529133" lon="2.424947">
        <ele>147.248</ele>
        <time>2013-05-19T08:05:04Z</time>
      </trkpt>
      <trkpt lat="39.529145" lon="2.424953">
        <ele>147.749</ele>
        <time>2013-05-19T08:05:12Z</time>
      </trkpt>
      <trkpt lat="39.529158" lon="2.424982">
        <ele>148.745</ele>
        <time>2013-05-19T08:05:19Z</time>
      </trkpt>
      <trkpt lat="39.529188" lon="2.425035">
        <ele>147.788</ele>
        <time>2013-05-19T08:05:25Z</time>
      </trkpt>
      <trkpt lat="39.529210" lon="2.425069">
        <ele>146.722</ele>
        <time>2013-05-19T08:05:32Z</time>
      </trkpt>
      <trkpt lat="39.529209" lon="2.425100">
        <ele>146.399</ele>
        <time>2013-05-19T08:05:39Z</time>
      </trkpt>
      <trkpt lat="39.529195" lon="2.425063">
        <ele>146.764</ele>
        <time>2013-05-19T08:05:46Z</time>
      </trkpt>
      <trkpt lat="39.529160" lon="2.424992">
        <ele>147.761</ele>
        <time>2013-05-19T08:05:53Z</time>
      </trkpt>
      <trkpt lat="39.529147" lon="2.424962">
        <ele>147.721</ele>
        <time>2013-05-19T08:05:59Z</time>
      </trkpt>
      <trkpt lat="39.529153" lon="2.424983">
        <ele>147.213</ele>
        <time>2013-05-19T08:06:06Z</time>
      </trkpt>
      <trkpt lat="39.529164" lon="2.424997">
        <ele>147.207</ele>
        <time>2013-05-19T08:06:17Z</time>
      </trkpt>
      <trkpt lat="39.529166" lon="2.425001">
        <ele>147.290</ele>
        <time>2013-05-19T08:06:25Z</time>
      </trkpt>
      <trkpt lat="39.529166" lon="2.425001">
        <ele>147.221</ele>
        <time>2013-05-19T08:06:26Z</time>
      </trkpt>
      <trkpt lat="39.529166" lon="2.425001">
        <ele>146.727</ele>
        <time>2013-05-19T08:06:41Z</time>
      </trkpt>
      <trkpt lat="39.529164" lon="2.424986">
        <ele>147.730</ele>
        <time>2013-05-19T08:06:51Z</time>
      </trkpt>
      <trkpt lat="39.529143" lon="2.424936">
        <ele>148.744</ele>
        <time>2013-05-19T08:06:59Z</time>
      </trkpt>
      <trkpt lat="39.529151" lon="2.424891">
        <ele>149.151</ele>
        <time>2013-05-19T08:07:07Z</time>
      </trkpt>
      <trkpt lat="39.529113" lon="2.424842">
        <ele>149.696</ele>
        <time>2013-05-19T08:07:16Z</time>
      </trkpt>
      <trkpt lat="39.529081" lon="2.424809">
        <ele>149.197</ele>
        <time>2013-05-19T08:07:21Z</time>
      </trkpt>
      <trkpt lat="39.529061" lon="2.424780">
        <ele>150.623</ele>
        <time>2013-05-19T08:07:27Z</time>
      </trkpt>
      <trkpt lat="39.529083" lon="2.424743">
        <ele>149.625</ele>
        <time>2013-05-19T08:07:35Z</time>
      </trkpt>
      <trkpt lat="39.529075" lon="2.424722">
        <ele>148.707</ele>
        <time>2013-05-19T08:07:41Z</time>
      </trkpt>
      <trkpt lat="39.529069" lon="2.424718">
        <ele>149.163</ele>
        <time>2013-05-19T08:07:42Z</time>
      </trkpt>
      <trkpt lat="39.529055" lon="2.424704">
        <ele>150.134</ele>
        <time>2013-05-19T08:07:44Z</time>
      </trkpt>
      <trkpt lat="39.529055" lon="2.424662">
        <ele>150.630</ele>
        <time>2013-05-19T08:07:50Z</time>
      </trkpt>
      <trkpt lat="39.529058" lon="2.424658">
        <ele>150.653</ele>
        <time>2013-05-19T08:08:00Z</time>
      </trkpt>
      <trkpt lat="39.529058" lon="2.424658">
        <ele>151.187</ele>
        <time>2013-05-19T08:08:12Z</time>
      </trkpt>
      <trkpt lat="39.529058" lon="2.424658">
        <ele>150.644</ele>
        <time>2013-05-19T08:08:13Z</time>
      </trkpt>
      <trkpt lat="39.529058" lon="2.424658">
        <ele>150.199</ele>
        <time>2013-05-19T08:08:23Z</time>
      </trkpt>
      <trkpt lat="39.529058" lon="2.424658">
        <ele>150.612</ele>
        <time>2013-05-19T08:08:36Z</time>
      </trkpt>
      <trkpt lat="39.529061" lon="2.424708">
        <ele>150.632</ele>
        <time>2013-05-19T08:08:43Z</time>
      </trkpt>
      <trkpt lat="39.529064" lon="2.424716">
        <ele>149.605</ele>
        <time>2013-05-19T08:08:44Z</time>
      </trkpt>
      <trkpt lat="39.529079" lon="2.424768">
        <ele>150.107</ele>
        <time>2013-05-19T08:08:51Z</time>
      </trkpt>
      <trkpt lat="39.529077" lon="2.424772">
        <ele>150.665</ele>
        <time>2013-05-19T08:08:52Z</time>
      </trkpt>
      <trkpt lat="39.529064" lon="2.424807">
        <ele>149.666</ele>
        <time>2013-05-19T08:08:56Z</time>
      </trkpt>
      <trkpt lat="39.529111" lon="2.424918">
        <ele>148.772</ele>
        <time>2013-05-19T08:09:05Z</time>
      </trkpt>
      <trkpt lat="39.529158" lon="2.424962">
        <ele>147.755</ele>
        <time>2013-05-19T08:09:12Z</time>
      </trkpt>
      <trkpt lat="39.529180" lon="2.425009">
        <ele>147.299</ele>
        <time>2013-05-19T08:09:16Z</time>
      </trkpt>
      <trkpt lat="39.529202" lon="2.425103">
        <ele>146.766</ele>
        <time>2013-05-19T08:09:24Z</time>
      </trkpt>
      <trkpt lat="39.529238" lon="2.425179">
        <ele>144.851</ele>
        <time>2013-05-19T08:09:32Z</time>
      </trkpt>
      <trkpt lat="39.529281" lon="2.425206">
        <ele>142.967</ele>
        <time>2013-05-19T08:09:38Z</time>
      </trkpt>
      <trkpt lat="39.529335" lon="2.425230">
        <ele>143.481</ele>
        <time>2013-05-19T08:09:45Z</time>
      </trkpt>
      <trkpt lat="39.529388" lon="2.425242">
        <ele>142.419</ele>
        <time>2013-05-19T08:09:52Z</time>
      </trkpt>
      <trkpt lat="39.529443" lon="2.425261">
        <ele>140.507</ele>
        <time>2013-05-19T08:09:59Z</time>
      </trkpt>
      <trkpt lat="39.529469" lon="2.425323">
        <ele>140.060</ele>
        <time>2013-05-19T08:10:05Z</time>
      </trkpt>
      <trkpt lat="39.529461" lon="2.425400">
        <ele>138.661</ele>
        <time>2013-05-19T08:10:10Z</time>
      </trkpt>
      <trkpt lat="39.529454" lon="2.425467">
        <ele>138.147</ele>
        <time>2013-05-19T08:10:17Z</time>
      </trkpt>
      <trkpt lat="39.529466" lon="2.425536">
        <ele>136.690</ele>
        <time>2013-05-19T08:10:25Z</time>
      </trkpt>
      <trkpt lat="39.529507" lon="2.425556">
        <ele>135.754</ele>
        <time>2013-05-19T08:10:33Z</time>
      </trkpt>
      <trkpt lat="39.529522" lon="2.425557">
        <ele>135.791</ele>
        <time>2013-05-19T08:10:40Z</time>
      </trkpt>
      <trkpt lat="39.529533" lon="2.425557">
        <ele>135.796</ele>
        <time>2013-05-19T08:10:48Z</time>
      </trkpt>
      <trkpt lat="39.529533" lon="2.425557">
        <ele>134.223</ele>
        <time>2013-05-19T08:10:52Z</time>
      </trkpt>
      <trkpt lat="39.529543" lon="2.425556">
        <ele>132.883</ele>
        <time>2013-05-19T08:10:56Z</time>
      </trkpt>
      <trkpt lat="39.529593" lon="2.425558">
        <ele>132.811</ele>
        <time>2013-05-19T08:11:04Z</time>
      </trkpt>
      <trkpt lat="39.529636" lon="2.425503">
        <ele>132.807</ele>
        <time>2013-05-19T08:11:10Z</time>
      </trkpt>
      <trkpt lat="39.529667" lon="2.425440">
        <ele>132.346</ele>
        <time>2013-05-19T08:11:15Z</time>
      </trkpt>
      <trkpt lat="39.529689" lon="2.425392">
        <ele>131.867</ele>
        <time>2013-05-19T08:11:19Z</time>
      </trkpt>
      <trkpt lat="39.529725" lon="2.425325">
        <ele>131.853</ele>
        <time>2013-05-19T08:11:26Z</time>
      </trkpt>
      <trkpt lat="39.529733" lon="2.425292">
        <ele>132.356</ele>
        <time>2013-05-19T08:11:29Z</time>
      </trkpt>
      <trkpt lat="39.529779" lon="2.425223">
        <ele>130.470</ele>
        <time>2013-05-19T08:11:37Z</time>
      </trkpt>
      <trkpt lat="39.529800" lon="2.425292">
        <ele>130.477</ele>
        <time>2013-05-19T08:11:44Z</time>
      </trkpt>
      <trkpt lat="39.529830" lon="2.425293">
        <ele>129.012</ele>
        <time>2013-05-19T08:11:52Z</time>
      </trkpt>
      <trkpt lat="39.529867" lon="2.425303">
        <ele>128.552</ele>
        <time>2013-05-19T08:11:59Z</time>
      </trkpt>
      <trkpt lat="39.529869" lon="2.425307">
        <ele>127.053</ele>
        <time>2013-05-19T08:12:11Z</time>
      </trkpt>
      <trkpt lat="39.529902" lon="2.425330">
        <ele>126.108</ele>
        <time>2013-05-19T08:12:18Z</time>
      </trkpt>
      <trkpt lat="39.529937" lon="2.425284">
        <ele>124.207</ele>
        <time>2013-05-19T08:12:25Z</time>
      </trkpt>
      <trkpt lat="39.529978" lon="2.425213">
        <ele>122.739</ele>
        <time>2013-05-19T08:12:32Z</time>
      </trkpt>
      <trkpt lat="39.530014" lon="2.425239">
        <ele>123.780</ele>
        <time>2013-05-19T08:12:37Z</time>
      </trkpt>
      <trkpt lat="39.530023" lon="2.425279">
        <ele>122.736</ele>
        <time>2013-05-19T08:12:40Z</time>
      </trkpt>
      <trkpt lat="39.530067" lon="2.425370">
        <ele>120.829</ele>
        <time>2013-05-19T08:12:48Z</time>
      </trkpt>
      <trkpt lat="39.530072" lon="2.425382">
        <ele>121.323</ele>
        <time>2013-05-19T08:12:49Z</time>
      </trkpt>
      <trkpt lat="39.530089" lon="2.425470">
        <ele>120.370</ele>
        <time>2013-05-19T08:12:58Z</time>
      </trkpt>
      <trkpt lat="39.530103" lon="2.425530">
        <ele>119.335</ele>
        <time>2013-05-19T08:13:04Z</time>
      </trkpt>
      <trkpt lat="39.530106" lon="2.425538">
        <ele>119.336</ele>
        <time>2013-05-19T08:13:06Z</time>
      </trkpt>
      <trkpt lat="39.530135" lon="2.425587">
        <ele>118.417</ele>
        <time>2013-05-19T08:13:10Z</time>
      </trkpt>
      <trkpt lat="39.530135" lon="2.425636">
        <ele>117.418</ele>
        <time>2013-05-19T08:13:13Z</time>
      </trkpt>
      <trkpt lat="39.530137" lon="2.425676">
        <ele>117.407</ele>
        <time>2013-05-19T08:13:17Z</time>
      </trkpt>
      <trkpt lat="39.530168" lon="2.425719">
        <ele>116.517</ele>
        <time>2013-05-19T08:13:23Z</time>
      </trkpt>
      <trkpt lat="39.530209" lon="2.425699">
        <ele>115.028</ele>
        <time>2013-05-19T08:13:31Z</time>
      </trkpt>
      <trkpt lat="39.530221" lon="2.425687">
        <ele>114.554</ele>
        <time>2013-05-19T08:13:36Z</time>
      </trkpt>
      <trkpt lat="39.530236" lon="2.425676">
        <ele>114.527</ele>
        <time>2013-05-19T08:13:38Z</time>
      </trkpt>
      <trkpt lat="39.530253" lon="2.425660">
        <ele>114.541</ele>
        <time>2013-05-19T08:13:40Z</time>
      </trkpt>
      <trkpt lat="39.530312" lon="2.425587">
        <ele>113.178</ele>
        <time>2013-05-19T08:13:48Z</time>
      </trkpt>
      <trkpt lat="39.530329" lon="2.425568">
        <ele>113.183</ele>
        <time>2013-05-19T08:13:50Z</time>
      </trkpt>
      <trkpt lat="39.530377" lon="2.425498">
        <ele>111.759</ele>
        <time>2013-05-19T08:13:57Z</time>
      </trkpt>
      <trkpt lat="39.530418" lon="2.425563">
        <ele>109.303</ele>
        <time>2013-05-19T08:14:05Z</time>
      </trkpt>
      <trkpt lat="39.530430" lon="2.425585">
        <ele>108.323</ele>
        <time>2013-05-19T08:14:08Z</time>
      </trkpt>
      <trkpt lat="39.530512" lon="2.425617">
        <ele>107.307</ele>
        <time>2013-05-19T08:14:16Z</time>
      </trkpt>
      <trkpt lat="39.530544" lon="2.425634">
        <ele>106.859</ele>
        <time>2013-05-19T08:14:20Z</time>
      </trkpt>
      <trkpt lat="39.530573" lon="2.425693">
        <ele>105.470</ele>
        <time>2013-05-19T08:14:26Z</time>
      </trkpt>
      <trkpt lat="39.530584" lon="2.425725">
        <ele>104.026</ele>
        <time>2013-05-19T08:14:29Z</time>
      </trkpt>
      <trkpt lat="39.530624" lon="2.425742">
        <ele>103.589</ele>
        <time>2013-05-19T08:14:36Z</time>
      </trkpt>
      <trkpt lat="39.530642" lon="2.425752">
        <ele>102.523</ele>
        <time>2013-05-19T08:14:38Z</time>
      </trkpt>
      <trkpt lat="39.530691" lon="2.425781">
        <ele>101.660</ele>
        <time>2013-05-19T08:14:45Z</time>
      </trkpt>
      <trkpt lat="39.530699" lon="2.425782">
        <ele>101.665</ele>
        <time>2013-05-19T08:14:46Z</time>
      </trkpt>
      <trkpt lat="39.530749" lon="2.425789">
        <ele>100.635</ele>
        <time>2013-05-19T08:14:51Z</time>
      </trkpt>
      <trkpt lat="39.530829" lon="2.425818">
        <ele>100.186</ele>
        <time>2013-05-19T08:14:59Z</time>
      </trkpt>
      <trkpt lat="39.530915" lon="2.425844">
        <ele>99.614</ele>
        <time>2013-05-19T08:15:07Z</time>
      </trkpt>
      <trkpt lat="39.530944" lon="2.425847">
        <ele>100.607</ele>
        <time>2013-05-19T08:15:10Z</time>
      </trkpt>
      <trkpt lat="39.531038" lon="2.425829">
        <ele>100.697</ele>
        <time>2013-05-19T08:15:18Z</time>
      </trkpt>
      <trkpt lat="39.531123" lon="2.425794">
        <ele>100.138</ele>
        <time>2013-05-19T08:15:26Z</time>
      </trkpt>
      <trkpt lat="39.531170" lon="2.425766">
        <ele>101.114</ele>
        <time>2013-05-19T08:15:31Z</time>
      </trkpt>
      <trkpt lat="39.531185" lon="2.425717">
        <ele>100.637</ele>
        <time>2013-05-19T08:15:35Z</time>
      </trkpt>
      <trkpt lat="39.531178" lon="2.425639">
        <ele>100.131</ele>
        <time>2013-05-19T08:15:44Z</time>
      </trkpt>
      <trkpt lat="39.531173" lon="2.425612">
        <ele>100.188</ele>
        <time>2013-05-19T08:15:52Z</time>
      </trkpt>
      <trkpt lat="39.531173" lon="2.425612">
        <ele>98.733</ele>
        <time>2013-05-19T08:15:58Z</time>
      </trkpt>
      <trkpt lat="39.531173" lon="2.425611">
        <ele>100.665</ele>
        <time>2013-05-19T08:16:00Z</time>
      </trkpt>
      <trkpt lat="39.531174" lon="2.425620">
        <ele>100.668</ele>
        <time>2013-05-19T08:16:08Z</time>
      </trkpt>
      <trkpt lat="39.531179" lon="2.425648">
        <ele>100.614</ele>
        <time>2013-05-19T08:16:10Z</time>
      </trkpt>
      <trkpt lat="39.531196" lon="2.425743">
        <ele>101.107</ele>
        <time>2013-05-19T08:16:18Z</time>
      </trkpt>
      <trkpt lat="39.531213" lon="2.425789">
        <ele>100.650</ele>
        <time>2013-05-19T08:16:23Z</time>
      </trkpt>
      <trkpt lat="39.531231" lon="2.425823">
        <ele>101.171</ele>
        <time>2013-05-19T08:16:26Z</time>
      </trkpt>
      <trkpt lat="39.531255" lon="2.425878">
        <ele>101.137</ele>
        <time>2013-05-19T08:16:31Z</time>
      </trkpt>
      <trkpt lat="39.531290" lon="2.425957">
        <ele>101.130</ele>
        <time>2013-05-19T08:16:38Z</time>
      </trkpt>
      <trkpt lat="39.531331" lon="2.426026">
        <ele>101.634</ele>
        <time>2013-05-19T08:16:45Z</time>
      </trkpt>
      <trkpt lat="39.531381" lon="2.426005">
        <ele>101.181</ele>
        <time>2013-05-19T08:16:51Z</time>
      </trkpt>
      <trkpt lat="39.531436" lon="2.425987">
        <ele>100.166</ele>
        <time>2013-05-19T08:16:59Z</time>
      </trkpt>
      <trkpt lat="39.531441" lon="2.426005">
        <ele>101.113</ele>
        <time>2013-05-19T08:17:07Z</time>
      </trkpt>
      <trkpt lat="39.531434" lon="2.426073">
        <ele>101.643</ele>
        <time>2013-05-19T08:17:15Z</time>
      </trkpt>
      <trkpt lat="39.531467" lon="2.426142">
        <ele>101.607</ele>
        <time>2013-05-19T08:17:22Z</time>
      </trkpt>
      <trkpt lat="39.531495" lon="2.426206">
        <ele>100.607</ele>
        <time>2013-05-19T08:17:29Z</time>
      </trkpt>
      <trkpt lat="39.531495" lon="2.426206">
        <ele>99.615</ele>
        <time>2013-05-19T08:17:38Z</time>
      </trkpt>
      <trkpt lat="39.531514" lon="2.426214">
        <ele>99.656</ele>
        <time>2013-05-19T08:17:46Z</time>
      </trkpt>
      <trkpt lat="39.531527" lon="2.426213">
        <ele>98.742</ele>
        <time>2013-05-19T08:17:48Z</time>
      </trkpt>
      <trkpt lat="39.531584" lon="2.426242">
        <ele>96.855</ele>
        <time>2013-05-19T08:17:55Z</time>
      </trkpt>
      <trkpt lat="39.531619" lon="2.426285">
        <ele>95.329</ele>
        <time>2013-05-19T08:18:02Z</time>
      </trkpt>
      <trkpt lat="39.531677" lon="2.426308">
        <ele>94.836</ele>
        <time>2013-05-19T08:18:09Z</time>
      </trkpt>
      <trkpt lat="39.531742" lon="2.426319">
        <ele>92.461</ele>
        <time>2013-05-19T08:18:17Z</time>
      </trkpt>
      <trkpt lat="39.531783" lon="2.426261">
        <ele>92.938</ele>
        <time>2013-05-19T08:18:24Z</time>
      </trkpt>
      <trkpt lat="39.531834" lon="2.426244">
        <ele>92.970</ele>
        <time>2013-05-19T08:18:31Z</time>
      </trkpt>
      <trkpt lat="39.531888" lon="2.426226">
        <ele>92.917</ele>
        <time>2013-05-19T08:18:37Z</time>
      </trkpt>
      <trkpt lat="39.531966" lon="2.426184">
        <ele>93.407</ele>
        <time>2013-05-19T08:18:45Z</time>
      </trkpt>
      <trkpt lat="39.532018" lon="2.426152">
        <ele>93.487</ele>
        <time>2013-05-19T08:18:52Z</time>
      </trkpt>
      <trkpt lat="39.532045" lon="2.426151">
        <ele>92.998</ele>
        <time>2013-05-19T08:18:59Z</time>
      </trkpt>
      <trkpt lat="39.532078" lon="2.426220">
        <ele>90.514</ele>
        <time>2013-05-19T08:19:06Z</time>
      </trkpt>
      <trkpt lat="39.532083" lon="2.426248">
        <ele>88.687</ele>
        <time>2013-05-19T08:19:13Z</time>
      </trkpt>
      <trkpt lat="39.532091" lon="2.426281">
        <ele>87.671</ele>
        <time>2013-05-19T08:19:16Z</time>
      </trkpt>
      <trkpt lat="39.532145" lon="2.426348">
        <ele>86.768</ele>
        <time>2013-05-19T08:19:25Z</time>
      </trkpt>
      <trkpt lat="39.532192" lon="2.426415">
        <ele>85.763</ele>
        <time>2013-05-19T08:19:33Z</time>
      </trkpt>
      <trkpt lat="39.532232" lon="2.426503">
        <ele>86.266</ele>
        <time>2013-05-19T08:19:40Z</time>
      </trkpt>
      <trkpt lat="39.532244" lon="2.426523">
        <ele>85.729</ele>
        <time>2013-05-19T08:19:47Z</time>
      </trkpt>
      <trkpt lat="39.532251" lon="2.426543">
        <ele>84.721</ele>
        <time>2013-05-19T08:19:55Z</time>
      </trkpt>
      <trkpt lat="39.532251" lon="2.426543">
        <ele>85.707</ele>
        <time>2013-05-19T08:20:10Z</time>
      </trkpt>
      <trkpt lat="39.532251" lon="2.426543">
        <ele>86.740</ele>
        <time>2013-05-19T08:20:17Z</time>
      </trkpt>
      <trkpt lat="39.532263" lon="2.426552">
        <ele>86.271</ele>
        <time>2013-05-19T08:20:26Z</time>
      </trkpt>
      <trkpt lat="39.532263" lon="2.426552">
        <ele>85.777</ele>
        <time>2013-05-19T08:20:33Z</time>
      </trkpt>
      <trkpt lat="39.532263" lon="2.426552">
        <ele>85.250</ele>
        <time>2013-05-19T08:20:46Z</time>
      </trkpt>
      <trkpt lat="39.532273" lon="2.426563">
        <ele>85.744</ele>
        <time>2013-05-19T08:20:56Z</time>
      </trkpt>
      <trkpt lat="39.532291" lon="2.426568">
        <ele>85.211</ele>
        <time>2013-05-19T08:21:03Z</time>
      </trkpt>
      <trkpt lat="39.532320" lon="2.426552">
        <ele>85.736</ele>
        <time>2013-05-19T08:21:07Z</time>
      </trkpt>
      <trkpt lat="39.532371" lon="2.426557">
        <ele>85.739</ele>
        <time>2013-05-19T08:21:12Z</time>
      </trkpt>
      <trkpt lat="39.532461" lon="2.426609">
        <ele>86.201</ele>
        <time>2013-05-19T08:21:21Z</time>
      </trkpt>
      <trkpt lat="39.532521" lon="2.426634">
        <ele>86.721</ele>
        <time>2013-05-19T08:21:28Z</time>
      </trkpt>
      <trkpt lat="39.532635" lon="2.426651">
        <ele>88.107</ele>
        <time>2013-05-19T08:21:38Z</time>
      </trkpt>
      <trkpt lat="39.532694" lon="2.426692">
        <ele>89.137</ele>
        <time>2013-05-19T08:21:45Z</time>
      </trkpt>
      <trkpt lat="39.532757" lon="2.426752">
        <ele>90.538</ele>
        <time>2013-05-19T08:21:53Z</time>
      </trkpt>
      <trkpt lat="39.532766" lon="2.426756">
        <ele>90.554</ele>
        <time>2013-05-19T08:21:54Z</time>
      </trkpt>
      <trkpt lat="39.532818" lon="2.426784">
        <ele>91.577</ele>
        <time>2013-05-19T08:21:59Z</time>
      </trkpt>
      <trkpt lat="39.532888" lon="2.426816">
        <ele>91.971</ele>
        <time>2013-05-19T08:22:06Z</time>
      </trkpt>
      <trkpt lat="39.532939" lon="2.426858">
        <ele>93.458</ele>
        <time>2013-05-19T08:22:13Z</time>
      </trkpt>
      <trkpt lat="39.532964" lon="2.426909">
        <ele>93.453</ele>
        <time>2013-05-19T08:22:19Z</time>
      </trkpt>
      <trkpt lat="39.532966" lon="2.426923">
        <ele>92.484</ele>
        <time>2013-05-19T08:22:20Z</time>
      </trkpt>
      <trkpt lat="39.532961" lon="2.427000">
        <ele>91.907</ele>
        <time>2013-05-19T08:22:26Z</time>
      </trkpt>
      <trkpt lat="39.532948" lon="2.427037">
        <ele>92.417</ele>
        <time>2013-05-19T08:22:29Z</time>
      </trkpt>
      <trkpt lat="39.532948" lon="2.427184">
        <ele>91.507</ele>
        <time>2013-05-19T08:22:39Z</time>
      </trkpt>
      <trkpt lat="39.532977" lon="2.427298">
        <ele>91.042</ele>
        <time>2013-05-19T08:22:47Z</time>
      </trkpt>
      <trkpt lat="39.533002" lon="2.427363">
        <ele>91.013</ele>
        <time>2013-05-19T08:22:52Z</time>
      </trkpt>
      <trkpt lat="39.533066" lon="2.427420">
        <ele>90.039</ele>
        <time>2013-05-19T08:23:00Z</time>
      </trkpt>
      <trkpt lat="39.533126" lon="2.427445">
        <ele>90.532</ele>
        <time>2013-05-19T08:23:05Z</time>
      </trkpt>
      <trkpt lat="39.533205" lon="2.427463">
        <ele>90.516</ele>
        <time>2013-05-19T08:23:11Z</time>
      </trkpt>
      <trkpt lat="39.533274" lon="2.427467">
        <ele>90.573</ele>
        <time>2013-05-19T08:23:17Z</time>
      </trkpt>
      <trkpt lat="39.533378" lon="2.427478">
        <ele>90.028</ele>
        <time>2013-05-19T08:23:27Z</time>
      </trkpt>
      <trkpt lat="39.533450" lon="2.427432">
        <ele>89.136</ele>
        <time>2013-05-19T08:23:34Z</time>
      </trkpt>
      <trkpt lat="39.533458" lon="2.427423">
        <ele>89.117</ele>
        <time>2013-05-19T08:23:35Z</time>
      </trkpt>
      <trkpt lat="39.533552" lon="2.427375">
        <ele>88.618</ele>
        <time>2013-05-19T08:23:44Z</time>
      </trkpt>
      <trkpt lat="39.533563" lon="2.427371">
        <ele>88.607</ele>
        <time>2013-05-19T08:23:45Z</time>
      </trkpt>
      <trkpt lat="39.533588" lon="2.427375">
        <ele>87.637</ele>
        <time>2013-05-19T08:23:47Z</time>
      </trkpt>
      <trkpt lat="39.533645" lon="2.427445">
        <ele>86.798</ele>
        <time>2013-05-19T08:23:54Z</time>
      </trkpt>
      <trkpt lat="39.533697" lon="2.427488">
        <ele>86.254</ele>
        <time>2013-05-19T08:23:59Z</time>
      </trkpt>
      <trkpt lat="39.533727" lon="2.427528">
        <ele>86.267</ele>
        <time>2013-05-19T08:24:03Z</time>
      </trkpt>
      <trkpt lat="39.533760" lon="2.427645">
        <ele>85.281</ele>
        <time>2013-05-19T08:24:11Z</time>
      </trkpt>
      <trkpt lat="39.533762" lon="2.427658">
        <ele>84.758</ele>
        <time>2013-05-19T08:24:12Z</time>
      </trkpt>
      <trkpt lat="39.533806" lon="2.427763">
        <ele>82.813</ele>
        <time>2013-05-19T08:24:21Z</time>
      </trkpt>
      <trkpt lat="39.533809" lon="2.427788">
        <ele>82.827</ele>
        <time>2013-05-19T08:24:23Z</time>
      </trkpt>
      <trkpt lat="39.533835" lon="2.427843">
        <ele>81.468</ele>
        <time>2013-05-19T08:24:29Z</time>
      </trkpt>
      <trkpt lat="39.533887" lon="2.427860">
        <ele>79.914</ele>
        <time>2013-05-19T08:24:36Z</time>
      </trkpt>
      <trkpt lat="39.533894" lon="2.427852">
        <ele>79.507</ele>
        <time>2013-05-19T08:24:37Z</time>
      </trkpt>
      <trkpt lat="39.533959" lon="2.427816">
        <ele>79.056</ele>
        <time>2013-05-19T08:24:44Z</time>
      </trkpt>
      <trkpt lat="39.534036" lon="2.427764">
        <ele>78.577</ele>
        <time>2013-05-19T08:24:52Z</time>
      </trkpt>
      <trkpt lat="39.534131" lon="2.427725">
        <ele>77.583</ele>
        <time>2013-05-19T08:25:01Z</time>
      </trkpt>
      <trkpt lat="39.534152" lon="2.427719">
        <ele>77.056</ele>
        <time>2013-05-19T08:25:03Z</time>
      </trkpt>
      <trkpt lat="39.534197" lon="2.427709">
        <ele>76.690</ele>
        <time>2013-05-19T08:25:09Z</time>
      </trkpt>
      <trkpt lat="39.534257" lon="2.427679">
        <ele>76.197</ele>
        <time>2013-05-19T08:25:16Z</time>
      </trkpt>
      <trkpt lat="39.534342" lon="2.427680">
        <ele>73.792</ele>
        <time>2013-05-19T08:25:25Z</time>
      </trkpt>
      <trkpt lat="39.534398" lon="2.427682">
        <ele>72.762</ele>
        <time>2013-05-19T08:25:32Z</time>
      </trkpt>
      <trkpt lat="39.534516" lon="2.427678">
        <ele>71.383</ele>
        <time>2013-05-19T08:25:41Z</time>
      </trkpt>
      <trkpt lat="39.534617" lon="2.427681">
        <ele>70.311</ele>
        <time>2013-05-19T08:25:49Z</time>
      </trkpt>
      <trkpt lat="39.534701" lon="2.427676">
        <ele>68.907</ele>
        <time>2013-05-19T08:25:56Z</time>
      </trkpt>
      <trkpt lat="39.534713" lon="2.427675">
        <ele>68.980</ele>
        <time>2013-05-19T08:25:57Z</time>
      </trkpt>
      <trkpt lat="39.534819" lon="2.427667">
        <ele>67.911</ele>
        <time>2013-05-19T08:26:06Z</time>
      </trkpt>
      <trkpt lat="39.534909" lon="2.427690">
        <ele>67.487</ele>
        <time>2013-05-19T08:26:14Z</time>
      </trkpt>
      <trkpt lat="39.534932" lon="2.427689">
        <ele>67.950</ele>
        <time>2013-05-19T08:26:16Z</time>
      </trkpt>
      <trkpt lat="39.535005" lon="2.427731">
        <ele>68.424</ele>
        <time>2013-05-19T08:26:24Z</time>
      </trkpt>
      <trkpt lat="39.535072" lon="2.427739">
        <ele>68.931</ele>
        <time>2013-05-19T08:26:30Z</time>
      </trkpt>
      <trkpt lat="39.535105" lon="2.427703">
        <ele>68.956</ele>
        <time>2013-05-19T08:26:37Z</time>
      </trkpt>
      <trkpt lat="39.535107" lon="2.427686">
        <ele>68.949</ele>
        <time>2013-05-19T08:26:38Z</time>
      </trkpt>
      <trkpt lat="39.535114" lon="2.427637">
        <ele>68.402</ele>
        <time>2013-05-19T08:26:42Z</time>
      </trkpt>
      <trkpt lat="39.535130" lon="2.427518">
        <ele>66.522</ele>
        <time>2013-05-19T08:26:51Z</time>
      </trkpt>
      <trkpt lat="39.535138" lon="2.427431">
        <ele>66.507</ele>
        <time>2013-05-19T08:26:57Z</time>
      </trkpt>
      <trkpt lat="39.535160" lon="2.427351">
        <ele>67.088</ele>
        <time>2013-05-19T08:27:03Z</time>
      </trkpt>
      <trkpt lat="39.535164" lon="2.427323">
        <ele>66.529</ele>
        <time>2013-05-19T08:27:05Z</time>
      </trkpt>
      <trkpt lat="39.535180" lon="2.427216">
        <ele>67.465</ele>
        <time>2013-05-19T08:27:13Z</time>
      </trkpt>
      <trkpt lat="39.535154" lon="2.427139">
        <ele>66.558</ele>
        <time>2013-05-19T08:27:19Z</time>
      </trkpt>
      <trkpt lat="39.535115" lon="2.427103">
        <ele>65.052</ele>
        <time>2013-05-19T08:27:26Z</time>
      </trkpt>
      <trkpt lat="39.535108" lon="2.427066">
        <ele>64.169</ele>
        <time>2013-05-19T08:27:29Z</time>
      </trkpt>
      <trkpt lat="39.535117" lon="2.426983">
        <ele>63.624</ele>
        <time>2013-05-19T08:27:36Z</time>
      </trkpt>
      <trkpt lat="39.535130" lon="2.426900">
        <ele>63.128</ele>
        <time>2013-05-19T08:27:42Z</time>
      </trkpt>
      <trkpt lat="39.535157" lon="2.426821">
        <ele>62.189</ele>
        <time>2013-05-19T08:27:50Z</time>
      </trkpt>
      <trkpt lat="39.535183" lon="2.426722">
        <ele>61.217</ele>
        <time>2013-05-19T08:27:57Z</time>
      </trkpt>
      <trkpt lat="39.535209" lon="2.426617">
        <ele>60.707</ele>
        <time>2013-05-19T08:28:04Z</time>
      </trkpt>
      <trkpt lat="39.535226" lon="2.426569">
        <ele>60.786</ele>
        <time>2013-05-19T08:28:08Z</time>
      </trkpt>
      <trkpt lat="39.535261" lon="2.426458">
        <ele>61.287</ele>
        <time>2013-05-19T08:28:16Z</time>
      </trkpt>
      <trkpt lat="39.535268" lon="2.426455">
        <ele>60.743</ele>
        <time>2013-05-19T08:28:17Z</time>
      </trkpt>
      <trkpt lat="39.535276" lon="2.426426">
        <ele>59.726</ele>
        <time>2013-05-19T08:28:19Z</time>
      </trkpt>
      <trkpt lat="39.535327" lon="2.426297">
        <ele>59.380</ele>
        <time>2013-05-19T08:28:27Z</time>
      </trkpt>
      <trkpt lat="39.535369" lon="2.426238">
        <ele>59.337</ele>
        <time>2013-05-19T08:28:32Z</time>
      </trkpt>
      <trkpt lat="39.535377" lon="2.426225">
        <ele>59.792</ele>
        <time>2013-05-19T08:28:33Z</time>
      </trkpt>
      <trkpt lat="39.535435" lon="2.426149">
        <ele>60.212</ele>
        <time>2013-05-19T08:28:40Z</time>
      </trkpt>
      <trkpt lat="39.535477" lon="2.426151">
        <ele>60.732</ele>
        <time>2013-05-19T08:28:47Z</time>
      </trkpt>
      <trkpt lat="39.535507" lon="2.426180">
        <ele>61.205</ele>
        <time>2013-05-19T08:28:52Z</time>
      </trkpt>
      <trkpt lat="39.535567" lon="2.426242">
        <ele>61.207</ele>
        <time>2013-05-19T08:28:59Z</time>
      </trkpt>
      <trkpt lat="39.535643" lon="2.426290">
        <ele>61.245</ele>
        <time>2013-05-19T08:29:07Z</time>
      </trkpt>
      <trkpt lat="39.535718" lon="2.426339">
        <ele>61.246</ele>
        <time>2013-05-19T08:29:15Z</time>
      </trkpt>
      <trkpt lat="39.535765" lon="2.426385">
        <ele>61.722</ele>
        <time>2013-05-19T08:29:21Z</time>
      </trkpt>
      <trkpt lat="39.535826" lon="2.426407">
        <ele>62.115</ele>
        <time>2013-05-19T08:29:27Z</time>
      </trkpt>
      <trkpt lat="39.535869" lon="2.426451">
        <ele>63.119</ele>
        <time>2013-05-19T08:29:34Z</time>
      </trkpt>
      <trkpt lat="39.535890" lon="2.426496">
        <ele>64.636</ele>
        <time>2013-05-19T08:29:38Z</time>
      </trkpt>
      <trkpt lat="39.535889" lon="2.426534">
        <ele>64.691</ele>
        <time>2013-05-19T08:29:41Z</time>
      </trkpt>
      <trkpt lat="39.535923" lon="2.426603">
        <ele>66.086</ele>
        <time>2013-05-19T08:29:48Z</time>
      </trkpt>
      <trkpt lat="39.535941" lon="2.426618">
        <ele>66.060</ele>
        <time>2013-05-19T08:29:51Z</time>
      </trkpt>
      <trkpt lat="39.536011" lon="2.426676">
        <ele>66.526</ele>
        <time>2013-05-19T08:29:59Z</time>
      </trkpt>
      <trkpt lat="39.536044" lon="2.426768">
        <ele>67.407</ele>
        <time>2013-05-19T08:30:07Z</time>
      </trkpt>
      <trkpt lat="39.536057" lon="2.426836">
        <ele>68.422</ele>
        <time>2013-05-19T08:30:13Z</time>
      </trkpt>
      <trkpt lat="39.536070" lon="2.426907">
        <ele>69.883</ele>
        <time>2013-05-19T08:30:20Z</time>
      </trkpt>
      <trkpt lat="39.536097" lon="2.426968">
        <ele>69.899</ele>
        <time>2013-05-19T08:30:26Z</time>
      </trkpt>
      <trkpt lat="39.536104" lon="2.427053">
        <ele>70.392</ele>
        <time>2013-05-19T08:30:33Z</time>
      </trkpt>
      <trkpt lat="39.536124" lon="2.427151">
        <ele>68.946</ele>
        <time>2013-05-19T08:30:41Z</time>
      </trkpt>
      <trkpt lat="39.536134" lon="2.427241">
        <ele>69.463</ele>
        <time>2013-05-19T08:30:48Z</time>
      </trkpt>
      <trkpt lat="39.536123" lon="2.427301">
        <ele>67.948</ele>
        <time>2013-05-19T08:30:55Z</time>
      </trkpt>
      <trkpt lat="39.536089" lon="2.427393">
        <ele>67.493</ele>
        <time>2013-05-19T08:31:02Z</time>
      </trkpt>
      <trkpt lat="39.536058" lon="2.427471">
        <ele>66.565</ele>
        <time>2013-05-19T08:31:10Z</time>
      </trkpt>
      <trkpt lat="39.536055" lon="2.427568">
        <ele>66.521</ele>
        <time>2013-05-19T08:31:17Z</time>
      </trkpt>
      <trkpt lat="39.536110" lon="2.427549">
        <ele>65.507</ele>
        <time>2013-05-19T08:31:24Z</time>
      </trkpt>
      <trkpt lat="39.536132" lon="2.427489">
        <ele>63.633</ele>
        <time>2013-05-19T08:31:31Z</time>
      </trkpt>
      <trkpt lat="39.536157" lon="2.427433">
        <ele>63.114</ele>
        <time>2013-05-19T08:31:36Z</time>
      </trkpt>
      <trkpt lat="39.536195" lon="2.427369">
        <ele>61.760</ele>
        <time>2013-05-19T08:31:43Z</time>
      </trkpt>
      <trkpt lat="39.536220" lon="2.427284">
        <ele>61.723</ele>
        <time>2013-05-19T08:31:49Z</time>
      </trkpt>
      <trkpt lat="39.536229" lon="2.427235">
        <ele>61.797</ele>
        <time>2013-05-19T08:31:52Z</time>
      </trkpt>
      <trkpt lat="39.536246" lon="2.427152">
        <ele>61.754</ele>
        <time>2013-05-19T08:31:59Z</time>
      </trkpt>
      <trkpt lat="39.536294" lon="2.427044">
        <ele>59.759</ele>
        <time>2013-05-19T08:32:08Z</time>
      </trkpt>
      <trkpt lat="39.536329" lon="2.426954">
        <ele>58.378</ele>
        <time>2013-05-19T08:32:16Z</time>
      </trkpt>
      <trkpt lat="39.536348" lon="2.426860">
        <ele>56.933</ele>
        <time>2013-05-19T08:32:23Z</time>
      </trkpt>
      <trkpt lat="39.536353" lon="2.426799">
        <ele>54.926</ele>
        <time>2013-05-19T08:32:31Z</time>
      </trkpt>
      <trkpt lat="39.536358" lon="2.426731">
        <ele>53.007</ele>
        <time>2013-05-19T08:32:38Z</time>
      </trkpt>
      <trkpt lat="39.536373" lon="2.426635">
        <ele>52.181</ele>
        <time>2013-05-19T08:32:46Z</time>
      </trkpt>
      <trkpt lat="39.536394" lon="2.426547">
        <ele>49.782</ele>
        <time>2013-05-19T08:32:53Z</time>
      </trkpt>
      <trkpt lat="39.536423" lon="2.426483">
        <ele>48.248</ele>
        <time>2013-05-19T08:32:59Z</time>
      </trkpt>
      <trkpt lat="39.536449" lon="2.426432">
        <ele>47.271</ele>
        <time>2013-05-19T08:33:06Z</time>
      </trkpt>
      <trkpt lat="39.536467" lon="2.426420">
        <ele>46.355</ele>
        <time>2013-05-19T08:33:13Z</time>
      </trkpt>
      <trkpt lat="39.536489" lon="2.426392">
        <ele>45.382</ele>
        <time>2013-05-19T08:33:18Z</time>
      </trkpt>
      <trkpt lat="39.536495" lon="2.426329">
        <ele>43.957</ele>
        <time>2013-05-19T08:33:26Z</time>
      </trkpt>
      <trkpt lat="39.536498" lon="2.426284">
        <ele>42.954</ele>
        <time>2013-05-19T08:33:34Z</time>
      </trkpt>
      <trkpt lat="39.536493" lon="2.426223">
        <ele>41.056</ele>
        <time>2013-05-19T08:33:39Z</time>
      </trkpt>
      <trkpt lat="39.536515" lon="2.426208">
        <ele>40.511</ele>
        <time>2013-05-19T08:33:44Z</time>
      </trkpt>
      <trkpt lat="39.536552" lon="2.426185">
        <ele>38.107</ele>
        <time>2013-05-19T08:33:52Z</time>
      </trkpt>
      <trkpt lat="39.536584" lon="2.426173">
        <ele>36.769</ele>
        <time>2013-05-19T08:33:59Z</time>
      </trkpt>
      <trkpt lat="39.536650" lon="2.426164">
        <ele>34.730</ele>
        <time>2013-05-19T08:34:07Z</time>
      </trkpt>
      <trkpt lat="39.536693" lon="2.426172">
        <ele>33.856</ele>
        <time>2013-05-19T08:34:13Z</time>
      </trkpt>
      <trkpt lat="39.536720" lon="2.426169">
        <ele>32.349</ele>
        <time>2013-05-19T08:34:20Z</time>
      </trkpt>
      <trkpt lat="39.536729" lon="2.426165">
        <ele>30.933</ele>
        <time>2013-05-19T08:34:23Z</time>
      </trkpt>
      <trkpt lat="39.536770" lon="2.426155">
        <ele>29.920</ele>
        <time>2013-05-19T08:34:31Z</time>
      </trkpt>
      <trkpt lat="39.536770" lon="2.426155">
        <ele>29.585</ele>
        <time>2013-05-19T08:34:38Z</time>
      </trkpt>
      <trkpt lat="39.536782" lon="2.426163">
        <ele>28.537</ele>
        <time>2013-05-19T08:34:44Z</time>
      </trkpt>
      <trkpt lat="39.536826" lon="2.426180">
        <ele>26.649</ele>
        <time>2013-05-19T08:34:52Z</time>
      </trkpt>
      <trkpt lat="39.536866" lon="2.426199">
        <ele>24.713</ele>
        <time>2013-05-19T08:35:00Z</time>
      </trkpt>
      <trkpt lat="39.536896" lon="2.426183">
        <ele>23.207</ele>
        <time>2013-05-19T08:35:07Z</time>
      </trkpt>
      <trkpt lat="39.536925" lon="2.426202">
        <ele>22.747</ele>
        <time>2013-05-19T08:35:14Z</time>
      </trkpt>
      <trkpt lat="39.536951" lon="2.426264">
        <ele>21.858</ele>
        <time>2013-05-19T08:35:21Z</time>
      </trkpt>
      <trkpt lat="39.537016" lon="2.426283">
        <ele>18.994</ele>
        <time>2013-05-19T08:35:28Z</time>
      </trkpt>
      <trkpt lat="39.537071" lon="2.426286">
        <ele>18.477</ele>
        <time>2013-05-19T08:35:34Z</time>
      </trkpt>
      <trkpt lat="39.537122" lon="2.426283">
        <ele>17.021</ele>
        <time>2013-05-19T08:35:41Z</time>
      </trkpt>
      <trkpt lat="39.537171" lon="2.426254">
        <ele>16.058</ele>
        <time>2013-05-19T08:35:48Z</time>
      </trkpt>
      <trkpt lat="39.537219" lon="2.426277">
        <ele>15.563</ele>
        <time>2013-05-19T08:35:55Z</time>
      </trkpt>
      <trkpt lat="39.537244" lon="2.426332">
        <ele>17.925</ele>
        <time>2013-05-19T08:36:02Z</time>
      </trkpt>
      <trkpt lat="39.537224" lon="2.426281">
        <ele>15.526</ele>
        <time>2013-05-19T08:42:54Z</time>
      </trkpt>
      <trkpt lat="39.537232" lon="2.426254">
        <ele>15.008</ele>
        <time>2013-05-19T08:43:01Z</time>
      </trkpt>
      <trkpt lat="39.537235" lon="2.426241">
        <ele>14.107</ele>
        <time>2013-05-19T08:43:08Z</time>
      </trkpt>
      <trkpt lat="39.537231" lon="2.426226">
        <ele>13.136</ele>
        <time>2013-05-19T08:43:15Z</time>
      </trkpt>
      <trkpt lat="39.537228" lon="2.426226">
        <ele>13.647</ele>
        <time>2013-05-19T08:43:25Z</time>
      </trkpt>
      <trkpt lat="39.537238" lon="2.426224">
        <ele>11.763</ele>
        <time>2013-05-19T08:43:32Z</time>
      </trkpt>
      <trkpt lat="39.537232" lon="2.426219">
        <ele>12.236</ele>
        <time>2013-05-19T08:43:39Z</time>
      </trkpt>
      <trkpt lat="39.537232" lon="2.426219">
        <ele>12.280</ele>
        <time>2013-05-19T08:43:51Z</time>
      </trkpt>
      <trkpt lat="39.537237" lon="2.426186">
        <ele>12.297</ele>
        <time>2013-05-19T08:43:58Z</time>
      </trkpt>
      <trkpt lat="39.537237" lon="2.426186">
        <ele>12.682</ele>
        <time>2013-05-19T08:44:11Z</time>
      </trkpt>
      <trkpt lat="39.537235" lon="2.426119">
        <ele>11.732</ele>
        <time>2013-05-19T08:44:19Z</time>
      </trkpt>
      <trkpt lat="39.537225" lon="2.426034">
        <ele>12.692</ele>
        <time>2013-05-19T08:44:26Z</time>
      </trkpt>
      <trkpt lat="39.537181" lon="2.425956">
        <ele>14.111</ele>
        <time>2013-05-19T08:44:34Z</time>
      </trkpt>
      <trkpt lat="39.537127" lon="2.425895">
        <ele>14.607</ele>
        <time>2013-05-19T08:44:42Z</time>
      </trkpt>
      <trkpt lat="39.537105" lon="2.425855">
        <ele>14.687</ele>
        <time>2013-05-19T08:44:46Z</time>
      </trkpt>
      <trkpt lat="39.537054" lon="2.425784">
        <ele>16.018</ele>
        <time>2013-05-19T08:44:54Z</time>
      </trkpt>
      <trkpt lat="39.537019" lon="2.425693">
        <ele>15.524</ele>
        <time>2013-05-19T08:45:03Z</time>
      </trkpt>
      <trkpt lat="39.537022" lon="2.425662">
        <ele>16.017</ele>
        <time>2013-05-19T08:45:09Z</time>
      </trkpt>
      <trkpt lat="39.537034" lon="2.425649">
        <ele>15.581</ele>
        <time>2013-05-19T08:45:15Z</time>
      </trkpt>
      <trkpt lat="39.537075" lon="2.425612">
        <ele>15.568</ele>
        <time>2013-05-19T08:45:20Z</time>
      </trkpt>
      <trkpt lat="39.537144" lon="2.425532">
        <ele>14.173</ele>
        <time>2013-05-19T08:45:29Z</time>
      </trkpt>
      <trkpt lat="39.537173" lon="2.425481">
        <ele>13.695</ele>
        <time>2013-05-19T08:45:36Z</time>
      </trkpt>
      <trkpt lat="39.537210" lon="2.425437">
        <ele>12.249</ele>
        <time>2013-05-19T08:45:44Z</time>
      </trkpt>
      <trkpt lat="39.537258" lon="2.425411">
        <ele>10.723</ele>
        <time>2013-05-19T08:45:51Z</time>
      </trkpt>
      <trkpt lat="39.537266" lon="2.425407">
        <ele>11.707</ele>
        <time>2013-05-19T08:45:54Z</time>
      </trkpt>
      <trkpt lat="39.537305" lon="2.425376">
        <ele>10.253</ele>
        <time>2013-05-19T08:46:02Z</time>
      </trkpt>
      <trkpt lat="39.537332" lon="2.425311">
        <ele>9.884</ele>
        <time>2013-05-19T08:46:08Z</time>
      </trkpt>
      <trkpt lat="39.537363" lon="2.425260">
        <ele>9.330</ele>
        <time>2013-05-19T08:46:14Z</time>
      </trkpt>
      <trkpt lat="39.537371" lon="2.425219">
        <ele>7.453</ele>
        <time>2013-05-19T08:46:18Z</time>
      </trkpt>
      <trkpt lat="39.537365" lon="2.425126">
        <ele>7.827</ele>
        <time>2013-05-19T08:46:25Z</time>
      </trkpt>
      <trkpt lat="39.537366" lon="2.425053">
        <ele>6.474</ele>
        <time>2013-05-19T08:46:32Z</time>
      </trkpt>
      <trkpt lat="39.537364" lon="2.425039">
        <ele>6.419</ele>
        <time>2013-05-19T08:46:33Z</time>
      </trkpt>
      <trkpt lat="39.537353" lon="2.424962">
        <ele>5.957</ele>
        <time>2013-05-19T08:46:41Z</time>
      </trkpt>
      <trkpt lat="39.537338" lon="2.424912">
        <ele>4.900</ele>
        <time>2013-05-19T08:46:49Z</time>
      </trkpt>
      <trkpt lat="39.537341" lon="2.424896">
        <ele>5.420</ele>
        <time>2013-05-19T08:46:57Z</time>
      </trkpt>
      <trkpt lat="39.537350" lon="2.424879">
        <ele>4.507</ele>
        <time>2013-05-19T08:47:10Z</time>
      </trkpt>
      <trkpt lat="39.537363" lon="2.424805">
        <ele>4.039</ele>
        <time>2013-05-19T08:47:17Z</time>
      </trkpt>
      <trkpt lat="39.537358" lon="2.424741">
        <ele>3.520</ele>
        <time>2013-05-19T08:47:20Z</time>
      </trkpt>
      <trkpt lat="39.537365" lon="2.424625">
        <ele>3.016</ele>
        <time>2013-05-19T08:47:28Z</time>
      </trkpt>
      <trkpt lat="39.537375" lon="2.424550">
        <ele>1.129</ele>
        <time>2013-05-19T08:47:35Z</time>
      </trkpt>
      <trkpt lat="39.537376" lon="2.424497">
        <ele>1.133</ele>
        <time>2013-05-19T08:47:43Z</time>
      </trkpt>
      <trkpt lat="39.537379" lon="2.424396">
        <ele>0.640</ele>
        <time>2013-05-19T08:47:50Z</time>
      </trkpt>
      <trkpt lat="39.537380" lon="2.424377">
        <ele>-1.385</ele>
        <time>2013-05-19T08:47:54Z</time>
      </trkpt>
      <trkpt lat="39.537384" lon="2.424344">
        <ele>-1.365</ele>
        <time>2013-05-19T08:47:56Z</time>
      </trkpt>
      <trkpt lat="39.537384" lon="2.424309">
        <ele>-2.368</ele>
        <time>2013-05-19T08:47:58Z</time>
      </trkpt>
      <trkpt lat="39.537362" lon="2.424199">
        <ele>-4.214</ele>
        <time>2013-05-19T08:48:06Z</time>
      </trkpt>
      <trkpt lat="39.537409" lon="2.424096">
        <ele>-3.207</ele>
        <time>2013-05-19T08:48:15Z</time>
      </trkpt>
      <trkpt lat="39.537475" lon="2.424024">
        <ele>-4.220</ele>
        <time>2013-05-19T08:48:24Z</time>
      </trkpt>
      <trkpt lat="39.537559" lon="2.423947">
        <ele>-5.111</ele>
        <time>2013-05-19T08:48:35Z</time>
      </trkpt>
      <trkpt lat="39.537621" lon="2.423905">
        <ele>-4.247</ele>
        <time>2013-05-19T08:48:42Z</time>
      </trkpt>
      <trkpt lat="39.537643" lon="2.423915">
        <ele>-4.280</ele>
        <time>2013-05-19T08:48:44Z</time>
      </trkpt>
      <trkpt lat="39.537665" lon="2.423941">
        <ele>-3.294</ele>
        <time>2013-05-19T08:48:48Z</time>
      </trkpt>
      <trkpt lat="39.537677" lon="2.423978">
        <ele>-6.611</ele>
        <time>2013-05-19T08:48:54Z</time>
      </trkpt>
      <trkpt lat="39.537681" lon="2.423980">
        <ele>-5.126</ele>
        <time>2013-05-19T08:48:55Z</time>
      </trkpt>
      <trkpt lat="39.537681" lon="2.423980">
        <ele>-2.773</ele>
        <time>2013-05-19T08:48:58Z</time>
      </trkpt>
      <trkpt lat="39.537691" lon="2.423982">
        <ele>-4.785</ele>
        <time>2013-05-19T08:49:11Z</time>
      </trkpt>
      <trkpt lat="39.537691" lon="2.423982">
        <ele>-4.713</ele>
        <time>2013-05-19T08:49:12Z</time>
      </trkpt>
    </trkseg>
  </trk>
</gpx>
